[[{"header":{"parameterUnit":"m.s-1","parameterCategory":1,"la1":31.0,"la2":29.5877,"lo1":-88.7671,"lo2":-86.6584,"dy":0.0162,"dx":0.0185,"nx":115,"ny":88,"refTime":"2024-05-03T06:00:00:Z","depth":0,"parameterNumber":2,"parameterNumberName":"U-component_of_WINDS"},"data":[0.0,0.0,0.0,0.0,0.0,0.0,0.0,0.0,0.0,0.0,0.0,0.0,0.0,0.0,0.0,0.0,0.0,0.0,0.0,0.0,0.0,0.0,0.0,0.0,0.0,0.0,0.0,0.0,0.0,0.0,0.0,0.0,0.0,0.0,0.0,0.0,0.0,0.0,0.0,0.0,0.0,0.0,0.0,0.0,0.0,0.0,0.0,0.0,0.0,0.0,0.0,0.0,0.0,0.0,0.0,0.0,0.0,0.0,0.0,0.0,0.0,0.0,0.0,0.0,0.0,0.0,0.0,0.0,0.0,0.0,0.0,0.0,0.0,0.0,0.0,0.0,0.0,0.0,0.0,0.0,0.0,0.0,0.0,0.0,0.0,0.0,0.0,0.0,0.0,0.0,0.0,0.0,0.0,0.0,0.0,0.0,0.0,0.0,0.0,0.0,0.0,0.0,0.0,0.0,0.0,0.0,0.0,0.0,0.0,0.0,0.0,0.0,0.0,0.0,0.0,0.0,0.0,0.0,0.0,0.0,0.0,0.0,0.0,0.0,0.0,0.0,0.0,0.0,0.0,0.0,0.0,0.0,0.0,0.0,0.0,0.0,0.0,0.0,0.0,0.0,0.0,0.0,0.0,0.0,0.0,0.0,0.0,0.0,0.0,0.0,0.0,0.0,0.0,0.0,0.0,0.0,0.0,0.0,0.0,0.0,0.0,0.0,0.0,0.0,0.0,0.0,0.0,0.0,0.0,0.0,0.0,0.0,0.0,0.0,0.0,0.0,0.0,0.0,0.0,0.0,0.0,0.0,0.0,0.0,0.0,0.0,0.0,0.0,0.0,0.0,0.0,0.0,0.0,0.0,0.0,0.0,0.0,0.0,0.0,0.0,0.0,0.0,0.0,0.0,0.0,0.0,0.0,0.0,0.0,0.0,0.0,0.0,0.0,0.0,0.0,0.0,0.0,0.0,0.0,0.0,0.0,0.0,0.0,0.0,0.0,0.0,0.0,0.0,0.0,0.0,0.0,0.0,0.0,0.0,0.0,0.0,0.0,0.0,0.0,0.0,0.0,0.0,0.0,0.0,0.0,0.0,0.0,0.0,0.0,0.0,0.0,0.0,0.0,0.0,0.0,0.0,0.0,0.0,0.0,0.0,0.0,0.0,0.0,0.0,0.0,0.0,0.0,0.0,0.0,0.0,0.0,0.0,0.0,0.0,0.0,0.0,0.0,0.0,0.0,0.0,0.0,0.0,0.0,0.0,0.0,0.0,0.0,0.0,0.0,0.0,0.0,0.0,0.0,0.0,0.0,0.0,0.0,0.0,0.0,0.0,0.0,0.0,0.0,0.0,0.0,0.0,0.0,0.0,0.0,0.0,0.0,0.0,0.0,0.0,0.0,0.0,0.0,0.0,0.0,0.0,0.0,0.0,0.0,0.0,0.0,0.0,0.0,0.0,0.0,0.0,0.0,0.0,0.0,0.0,0.0,0.0,0.0,0.0,0.0,0.0,0.0,0.0,0.0,0.0,0.0,0.0,0.0,0.0,0.0,0.0,0.0,0.0,0.0,0.0,0.0,0.0,0.0,0.0,0.0,0.0,0.0,0.0,0.0,0.0,0.0,0.0,0.0,0.0,0.0,0.0,0.0,0.0,0.0,0.0,0.0,0.0,0.0,0.0,0.0,0.0,0.0,0.0,0.0,0.0,0.0,0.0,0.0,0.0,0.0,0.0,0.0,0.0,0.0,0.0,0.0,0.0,0.0,0.0,0.0,0.0,0.0,0.0,0.0,0.0,0.0,0.0,0.0,0.0,0.0,0.0,0.0,0.0,0.0,0.0,0.0,0.0,0.0,0.0,0.0,0.0,0.0,0.0,0.0,0.0,0.0,0.0,0.0,0.0,0.0,0.0,0.0,0.0,0.0,0.0,0.0,0.0,0.0,0.0,0.0,0.0,0.0,0.0,0.0,0.0,0.0,0.0,0.0,0.0,0.0,0.0,0.0,0.0,0.0,0.0,0.0,0.0,0.0,0.0,0.0,0.0,0.0,0.0,0.0,0.0,0.0,0.0,0.0,0.0,0.0,0.0,0.0,0.0,0.0,0.0,0.0,0.0,0.0,0.0,0.0,0.0,0.0,0.0,0.0,0.0,0.0,0.0,0.0,0.0,0.0,0.0,0.0,0.0,0.0,0.0,0.0,0.0,0.0,0.0,0.0,0.0,0.0,0.0,0.0,0.0,0.0,0.0,0.0,0.0,0.0,0.0,0.0,0.0,0.0,0.0,0.0,0.0,0.0,0.0,0.0,0.0,0.0,0.0,0.0,0.0,0.0,0.0,0.0,0.0,0.0,0.0,0.0,0.0,0.0,0.0,0.0,0.0,0.0,0.0,0.0,0.0,0.0,0.0,0.0,0.0,0.0,0.0,0.0,0.0,0.0,0.0,0.0,0.0,0.0,0.0,0.0,0.0,0.0,0.0,0.0,0.0,0.0,0.0,0.0,0.0,0.0,0.0,0.0,0.0,0.0,0.0,0.0,0.0,0.0,0.0,0.0,0.0,0.0,0.0,0.0,0.0,0.0,0.0,0.0,0.0,0.0,0.0,0.0,0.0,0.0,0.0,0.0,0.0,0.0,0.0,0.0,0.0,0.0,0.0,0.0,0.0,0.0,0.0,0.0,0.0,0.0,0.0,0.0,0.0,0.0,0.0,0.0,0.0,0.0,0.0,0.0,0.0,0.0,0.0,0.0,0.0,0.0,0.0,0.0,0.0,0.0,0.0,0.0,0.0,0.0,0.0,0.0,0.0,0.0,0.0,0.0,0.0,0.0,0.0,0.0,0.0,0.0,0.0,0.0,0.0,0.0,0.0,0.0,0.0,0.0,0.0,0.0,0.0,0.0,0.0,0.0,0.0,0.0,0.0,0.0,0.0,0.0,0.0,0.0,0.0,0.0,0.0,0.0,0.0,0.0,0.0,0.0,0.0,0.0,0.0,0.0,0.0,0.0,0.0,0.0,0.0,0.0,0.0,0.0,0.0,0.0,0.0,0.0,0.0,0.0,0.0,0.0,0.0,0.0,0.0,0.0,0.0,0.0,0.0,0.0,0.0,0.0,0.0,0.0,0.0,0.0,0.0,0.0,0.0,0.0,0.0,0.0,0.0,0.0,0.0,0.0,0.0,0.0,0.0,0.0,0.0,0.0,0.0,0.0,0.0,0.0,0.0,0.0,0.0,0.0,0.0,0.0,0.0,0.0,0.0,0.0,0.0,0.0,0.0,0.0,0.0,0.0,0.0,0.0,0.0,0.0,0.0,0.0,0.0,0.0,0.0,0.0,0.0,0.0,0.0,0.0,0.0,0.0,0.0,0.0,0.0,0.0,0.0,0.0,0.0,0.0,0.0,0.0,0.0,0.0,0.0,0.0,0.0,0.0,0.0,0.0,0.0,0.0,0.0,0.0,0.0,0.0,0.0,0.0,0.0,0.0,0.0,0.0,0.0,0.0,0.0,0.0,0.0,0.0,0.0,0.0,0.0,0.0,0.0,0.0,0.0,0.0,0.0,0.0,0.0,0.0,0.0,0.0,0.0,0.0,0.0,0.0,0.0,0.0,0.0,0.0,0.0,0.0,0.0,0.0,0.0,0.0,0.0,0.0,0.0,0.0,0.0,0.0,0.0,0.0,0.0,0.0,0.0,0.0,0.0,0.0,0.0,0.0,0.0,0.0,0.0,0.0,0.0,0.0,0.0,0.0,0.0,0.0,0.0,0.0,0.0,0.0,0.0,0.0,0.0,0.0,0.0,0.0,0.0,0.0,0.0,0.0,0.0,0.0,0.0,0.0,0.0,0.0,0.0,0.0,0.0,0.0,0.0,0.0,0.0,0.0,0.0,0.0,0.0,0.0,0.0,0.0,0.0,0.0,0.0,0.0,0.0,0.0,0.0,0.0,0.0,0.0,0.0,0.0,0.0,0.0,0.0,0.0,0.0,0.0,0.0,0.0,0.0,0.0,0.0,0.0,0.0,0.0,0.0,0.0,0.0,0.0,0.0,0.0,0.0,0.0,0.0,0.0,0.0,0.0,0.0,0.0,0.0,0.0,0.0,0.0,0.0,0.0,0.0,0.0,0.0,0.0,0.0,0.0,0.0,0.0,0.0,0.0,0.0,0.0,0.0,0.0,0.0,0.0,0.0,0.0,0.0,0.0,0.0,0.0,0.0,0.0,0.0,0.0,0.0,0.0,0.0,0.0,0.0,0.0,0.0,0.0,0.0,0.0,0.0,0.0,0.0,-1.5199,0.0,0.0,0.0,0.0,0.0,0.0,0.0,0.0,0.0,0.0,0.0,0.0,0.0,0.0,0.0,0.0,0.0,0.0,0.0,0.0,0.0,0.0,0.0,0.0,0.0,0.0,0.0,0.0,0.0,0.0,0.0,0.0,0.0,0.0,0.0,0.0,0.0,0.0,0.0,0.0,0.0,0.0,0.0,0.0,0.0,0.0,0.0,0.0,0.0,0.0,0.0,0.0,0.0,0.0,0.0,0.0,0.0,0.0,0.0,0.0,0.0,0.0,0.0,0.0,0.0,0.0,0.0,0.0,0.0,0.0,0.0,0.0,0.0,0.0,0.0,0.0,0.0,0.0,0.0,0.0,0.0,0.0,0.0,0.0,0.0,0.0,0.0,0.0,0.0,0.0,0.0,0.0,0.0,0.0,0.0,0.0,0.0,0.0,0.0,0.0,0.0,0.0,0.0,0.0,0.0,0.0,0.0,0.0,0.0,0.0,-1.5359,-1.5407,-1.4933,-1.4898,-1.5325,0.0,0.0,0.0,0.0,0.0,0.0,0.0,0.0,0.0,0.0,0.0,0.0,0.0,0.0,0.0,0.0,0.0,0.0,0.0,0.0,0.0,0.0,0.0,0.0,0.0,0.0,0.0,0.0,0.0,0.0,0.0,0.0,0.0,0.0,0.0,0.0,0.0,0.0,0.0,0.0,0.0,0.0,0.0,0.0,0.0,0.0,0.0,0.0,0.0,0.0,0.0,0.0,0.0,0.0,0.0,0.0,0.0,0.0,0.0,0.0,0.0,0.0,0.0,0.0,0.0,0.0,0.0,0.0,0.0,0.0,0.0,0.0,0.0,0.0,0.0,0.0,0.0,0.0,0.0,0.0,0.0,0.0,0.0,0.0,0.0,0.0,0.0,0.0,0.0,0.0,0.0,0.0,0.0,0.0,0.0,0.0,0.0,0.0,0.0,0.0,0.0,0.0,0.0,0.0,0.0,0.0,0.0,0.0,0.0,0.0,0.0,0.0,-1.5317,-1.5256,-1.5864,0.0,0.0,0.0,0.0,0.0,0.0,0.0,0.0,0.0,0.0,0.0,0.0,0.0,0.0,0.0,0.0,0.0,0.0,0.0,0.0,0.0,0.0,0.0,0.0,0.0,0.0,0.0,0.0,0.0,0.0,0.0,0.0,0.0,0.0,0.0,0.0,0.0,0.0,0.0,0.0,0.0,0.0,0.0,0.0,0.0,0.0,0.0,0.0,0.0,0.0,0.0,0.0,0.0,0.0,0.0,0.0,0.0,0.0,0.0,0.0,0.0,0.0,0.0,0.0,0.0,0.0,0.0,0.0,0.0,0.0,0.0,0.0,0.0,0.0,0.0,0.0,0.0,0.0,0.0,0.0,0.0,0.0,0.0,0.0,0.0,0.0,0.0,0.0,0.0,0.0,0.0,0.0,0.0,0.0,0.0,0.0,0.0,0.0,0.0,0.0,0.0,0.0,0.0,0.0,0.0,0.0,0.0,0.0,0.0,0.0,-1.6101,-1.7698,-1.7597,0.0,-1.7639,0.0,0.0,0.0,0.0,0.0,0.0,0.0,0.0,0.0,0.0,0.0,0.0,0.0,0.0,0.0,0.0,0.0,0.0,0.0,0.0,0.0,0.0,0.0,0.0,0.0,0.0,0.0,0.0,0.0,0.0,0.0,0.0,0.0,0.0,0.0,0.0,0.0,0.0,0.0,0.0,0.0,0.0,0.0,0.0,0.0,0.0,0.0,0.0,0.0,0.0,0.0,0.0,0.0,0.0,0.0,0.0,0.0,0.0,0.0,0.0,0.0,0.0,0.0,0.0,0.0,0.0,0.0,0.0,0.0,0.0,0.0,0.0,0.0,0.0,0.0,0.0,0.0,0.0,0.0,0.0,0.0,0.0,0.0,0.0,0.0,0.0,0.0,0.0,0.0,0.0,0.0,0.0,0.0,0.0,0.0,0.0,0.0,0.0,0.0,0.0,0.0,0.0,0.0,0.0,0.0,0.0,0.0,0.0,0.0,0.0,-1.6568,-1.7851,-1.7868,-1.7633,0.0,0.0,0.0,0.0,0.0,0.0,0.0,0.0,0.0,0.0,0.0,0.0,0.0,0.0,0.0,0.0,0.0,0.0,0.0,0.0,0.0,0.0,0.0,0.0,0.0,0.0,0.0,0.0,0.0,0.0,0.0,0.0,0.0,0.0,0.0,0.0,0.0,0.0,0.0,0.0,0.0,0.0,0.0,0.0,0.0,0.0,0.0,0.0,0.0,0.0,0.0,0.0,0.0,0.0,0.0,0.0,0.0,0.0,0.0,0.0,0.0,0.0,0.0,0.0,0.0,0.0,0.0,0.0,0.0,0.0,0.0,0.0,0.0,0.0,0.0,0.0,0.0,0.0,0.0,0.0,0.0,0.0,0.0,0.0,0.0,0.0,0.0,0.0,0.0,0.0,0.0,0.0,0.0,0.0,0.0,0.0,0.0,0.0,0.0,0.0,0.0,0.0,0.0,0.0,0.0,0.0,0.0,0.0,0.0,0.0,-1.6669,-1.7308,-1.8388,-1.8056,-1.757,-1.7041,0.0,0.0,0.0,0.0,0.0,0.0,0.0,0.0,0.0,0.0,0.0,0.0,0.0,0.0,0.0,0.0,0.0,0.0,0.0,0.0,0.0,0.0,0.0,0.0,0.0,0.0,0.0,0.0,0.0,0.0,0.0,0.0,0.0,0.0,0.0,0.0,0.0,0.0,0.0,0.0,0.0,0.0,0.0,0.0,0.0,0.0,0.0,0.0,0.0,0.0,0.0,0.0,0.0,0.0,0.0,0.0,0.0,0.0,0.0,0.0,0.0,0.0,0.0,0.0,0.0,0.0,0.0,0.0,0.0,0.0,0.0,0.0,0.0,0.0,0.0,0.0,0.0,0.0,0.0,0.0,0.0,0.0,0.0,0.0,0.0,0.0,0.0,0.0,0.0,0.0,0.0,0.0,0.0,0.0,0.0,0.0,0.0,0.0,0.0,0.0,0.0,0.0,0.0,0.0,0.0,0.0,0.0,0.0,-1.9669,-1.8386,-1.8449,-2.0028,-1.8697,-1.7866,0.0,0.0,0.0,0.0,0.0,0.0,0.0,0.0,0.0,0.0,0.0,0.0,0.0,0.0,0.0,0.0,0.0,0.0,0.0,0.0,0.0,0.0,0.0,0.0,0.0,0.0,0.0,0.0,0.0,0.0,0.0,0.0,0.0,0.0,0.0,0.0,0.0,0.0,0.0,0.0,0.0,0.0,0.0,0.0,0.0,0.0,0.0,0.0,0.0,0.0,0.0,0.0,0.0,0.0,0.0,0.0,0.0,0.0,0.0,0.0,0.0,0.0,0.0,0.0,0.0,0.0,0.0,0.0,0.0,0.0,0.0,0.0,0.0,0.0,0.0,0.0,0.0,0.0,0.0,0.0,0.0,0.0,0.0,0.0,0.0,0.0,0.0,0.0,0.0,0.0,0.0,0.0,0.0,0.0,0.0,0.0,0.0,0.0,0.0,0.0,0.0,0.0,0.0,0.0,0.0,0.0,0.0,0.0,0.0,-1.6811,-1.7382,-1.8261,-1.9375,-1.8413,-1.7861,0.0,0.0,0.0,0.0,0.0,0.0,0.0,0.0,0.0,0.0,0.0,0.0,0.0,0.0,0.0,0.0,0.0,0.0,0.0,0.0,0.0,0.0,0.0,0.0,0.0,0.0,0.0,0.0,0.0,0.0,0.0,0.0,0.0,0.0,0.0,0.0,0.0,0.0,0.0,0.0,0.0,0.0,0.0,0.0,0.0,0.0,0.0,0.0,0.0,0.0,0.0,0.0,0.0,0.0,0.0,0.0,0.0,0.0,0.0,0.0,0.0,0.0,0.0,0.0,0.0,0.0,0.0,0.0,0.0,0.0,0.0,0.0,0.0,0.0,0.0,0.0,0.0,0.0,0.0,0.0,0.0,0.0,0.0,0.0,0.0,0.0,0.0,0.0,0.0,0.0,0.0,0.0,0.0,0.0,0.0,0.0,0.0,0.0,0.0,0.0,0.0,0.0,0.0,0.0,0.0,0.0,0.0,0.0,0.0,-1.6264,0.0,-1.8687,-1.8934,-1.8247,-1.7597,0.0,0.0,0.0,0.0,0.0,0.0,0.0,0.0,0.0,0.0,0.0,0.0,0.0,0.0,0.0,0.0,0.0,0.0,0.0,0.0,0.0,0.0,0.0,0.0,0.0,0.0,0.0,0.0,0.0,0.0,0.0,0.0,0.0,0.0,0.0,0.0,0.0,0.0,0.0,0.0,0.0,0.0,0.0,0.0,0.0,0.0,0.0,0.0,0.0,0.0,0.0,0.0,0.0,0.0,0.0,0.0,0.0,0.0,0.0,0.0,0.0,0.0,0.0,0.0,0.0,0.0,0.0,0.0,0.0,0.0,0.0,0.0,0.0,0.0,0.0,0.0,0.0,0.0,0.0,0.0,0.0,0.0,0.0,0.0,0.0,0.0,0.0,0.0,0.0,0.0,0.0,0.0,0.0,0.0,0.0,0.0,0.0,0.0,0.0,0.0,0.0,0.0,0.0,0.0,0.0,0.0,0.0,0.0,-1.6311,-1.8743,-1.9635,-1.9711,-1.904,-1.8277,-1.7093,0.0,0.0,0.0,0.0,0.0,0.0,0.0,0.0,0.0,0.0,0.0,0.0,0.0,0.0,0.0,0.0,0.0,0.0,0.0,0.0,0.0,0.0,0.0,0.0,0.0,0.0,0.0,0.0,0.0,0.0,0.0,0.0,0.0,0.0,0.0,0.0,0.0,0.0,0.0,0.0,0.0,0.0,0.0,0.0,0.0,0.0,0.0,0.0,0.0,0.0,0.0,0.0,0.0,0.0,0.0,0.0,0.0,0.0,0.0,0.0,0.0,0.0,0.0,0.0,0.0,0.0,0.0,0.0,0.0,0.0,0.0,0.0,0.0,0.0,0.0,0.0,0.0,0.0,0.0,0.0,0.0,0.0,0.0,0.0,0.0,0.0,0.0,0.0,0.0,0.0,0.0,0.0,0.0,0.0,0.0,0.0,0.0,0.0,0.0,0.0,0.0,0.0,0.0,0.0,0.0,0.0,0.0,0.0,0.0,-1.8015,-1.8762,-1.9377,-1.9749,-1.7902,-1.7236,0.0,0.0,0.0,0.0,0.0,0.0,0.0,0.0,0.0,0.0,0.0,0.0,0.0,0.0,0.0,0.0,0.0,0.0,0.0,0.0,0.0,0.0,0.0,0.0,0.0,0.0,0.0,0.0,0.0,0.0,0.0,0.0,0.0,0.0,0.0,0.0,0.0,0.0,0.0,0.0,0.0,0.0,0.0,0.0,0.0,0.0,0.0,0.0,0.0,0.0,0.0,0.0,0.0,0.0,0.0,0.0,0.0,0.0,0.0,0.0,0.0,0.0,0.0,0.0,0.0,0.0,0.0,0.0,0.0,0.0,0.0,0.0,0.0,0.0,0.0,0.0,0.0,0.0,0.0,0.0,0.0,0.0,0.0,0.0,0.0,0.0,0.0,0.0,0.0,0.0,0.0,0.0,0.0,0.0,0.0,0.0,0.0,0.0,0.0,0.0,0.0,0.0,0.0,0.0,0.0,0.0,0.0,0.0,0.0,-1.9557,-1.9983,-2.034,-2.0599,-1.8482,-1.7574,-1.8006,0.0,0.0,0.0,0.0,0.0,0.0,0.0,0.0,0.0,0.0,0.0,0.0,0.0,0.0,0.0,0.0,0.0,0.0,0.0,0.0,0.0,0.0,0.0,0.0,0.0,0.0,0.0,0.0,0.0,0.0,0.0,0.0,0.0,0.0,0.0,0.0,0.0,0.0,0.0,0.0,0.0,0.0,0.0,0.0,0.0,0.0,0.0,0.0,0.0,0.0,0.0,0.0,0.0,0.0,0.0,0.0,0.0,0.0,0.0,0.0,0.0,0.0,0.0,0.0,0.0,0.0,0.0,0.0,0.0,0.0,0.0,0.0,0.0,0.0,0.0,0.0,0.0,0.0,0.0,0.0,0.0,0.0,0.0,0.0,0.0,0.0,0.0,0.0,0.0,0.0,0.0,0.0,0.0,0.0,0.0,0.0,0.0,0.0,0.0,0.0,0.0,0.0,0.0,0.0,0.0,0.0,0.0,0.0,-2.2762,-2.2968,-2.2594,-2.1565,-1.9863,-1.8164,0.0,0.0,0.0,0.0,0.0,0.0,0.0,0.0,0.0,0.0,0.0,0.0,0.0,0.0,0.0,0.0,0.0,0.0,0.0,0.0,0.0,0.0,0.0,0.0,0.0,0.0,0.0,0.0,0.0,0.0,0.0,0.0,0.0,0.0,0.0,0.0,0.0,0.0,0.0,0.0,0.0,0.0,0.0,0.0,0.0,0.0,0.0,0.0,0.0,0.0,0.0,0.0,0.0,0.0,0.0,0.0,0.0,0.0,0.0,0.0,0.0,0.0,0.0,0.0,0.0,0.0,0.0,0.0,0.0,0.0,0.0,0.0,0.0,0.0,0.0,0.0,0.0,0.0,0.0,0.0,0.0,0.0,0.0,0.0,0.0,0.0,0.0,0.0,0.0,0.0,0.0,0.0,0.0,0.0,0.0,0.0,0.0,0.0,0.0,0.0,0.0,0.0,0.0,0.0,0.0,0.0,0.0,0.0,0.0,-2.3701,-2.5469,-2.5705,-2.4181,-2.1223,-1.9478,0.0,0.0,0.0,0.0,0.0,0.0,0.0,0.0,0.0,0.0,0.0,0.0,0.0,0.0,0.0,0.0,0.0,0.0,0.0,0.0,0.0,0.0,0.0,0.0,0.0,0.0,0.0,0.0,0.0,0.0,0.0,0.0,0.0,0.0,0.0,0.0,0.0,0.0,0.0,0.0,0.0,0.0,0.0,0.0,0.0,0.0,0.0,0.0,0.0,0.0,0.0,0.0,0.0,0.0,0.0,0.0,0.0,0.0,0.0,0.0,0.0,0.0,0.0,0.0,0.0,0.0,0.0,0.0,0.0,0.0,0.0,0.0,0.0,0.0,0.0,0.0,0.0,0.0,0.0,0.0,0.0,0.0,0.0,0.0,0.0,0.0,0.0,0.0,0.0,0.0,0.0,0.0,0.0,0.0,0.0,0.0,0.0,0.0,0.0,0.0,0.0,0.0,0.0,0.0,0.0,0.0,0.0,0.0,-2.4346,-2.4975,-2.7157,-2.7621,-2.628,-2.3137,-2.0833,0.0,0.0,0.0,0.0,0.0,0.0,0.0,0.0,0.0,0.0,0.0,0.0,0.0,0.0,0.0,0.0,0.0,0.0,0.0,0.0,0.0,0.0,0.0,0.0,0.0,0.0,0.0,0.0,0.0,0.0,0.0,0.0,0.0,0.0,0.0,0.0,0.0,0.0,0.0,0.0,0.0,0.0,0.0,0.0,0.0,0.0,0.0,0.0,0.0,0.0,0.0,0.0,0.0,0.0,0.0,0.0,0.0,0.0,0.0,0.0,0.0,0.0,0.0,0.0,0.0,0.0,0.0,0.0,0.0,0.0,0.0,0.0,0.0,0.0,0.0,0.0,0.0,0.0,0.0,0.0,0.0,0.0,0.0,0.0,0.0,0.0,0.0,0.0,0.0,0.0,0.0,0.0,0.0,0.0,0.0,0.0,0.0,0.0,0.0,0.0,0.0,0.0,0.0,0.0,0.0,0.0,0.0,0.0,-2.4854,-2.6181,-2.8172,-2.8771,-2.7784,-2.5069,-2.2073,0.0,0.0,0.0,0.0,0.0,0.0,0.0,0.0,0.0,0.0,0.0,0.0,0.0,0.0,0.0,0.0,0.0,0.0,0.0,0.0,0.0,0.0,0.0,0.0,0.0,0.0,0.0,0.0,0.0,0.0,0.0,0.0,0.0,0.0,0.0,0.0,0.0,0.0,0.0,0.0,0.0,0.0,0.0,0.0,0.0,0.0,0.0,0.0,0.0,0.0,0.0,0.0,0.0,0.0,0.0,0.0,0.0,0.0,0.0,0.0,0.0,0.0,0.0,0.0,0.0,0.0,0.0,0.0,0.0,0.0,0.0,0.0,0.0,0.0,0.0,0.0,0.0,0.0,0.0,0.0,0.0,0.0,0.0,0.0,0.0,0.0,0.0,0.0,0.0,0.0,0.0,0.0,0.0,0.0,0.0,0.0,0.0,0.0,0.0,0.0,0.0,0.0,0.0,0.0,0.0,0.0,0.0,0.0,-2.513,-2.5478,-2.8402,-2.9544,-2.8637,-2.5319,-2.2319,0.0,0.0,0.0,0.0,0.0,0.0,0.0,0.0,0.0,0.0,0.0,0.0,0.0,0.0,0.0,0.0,0.0,0.0,0.0,0.0,0.0,0.0,0.0,0.0,0.0,0.0,0.0,0.0,0.0,0.0,0.0,0.0,0.0,0.0,0.0,0.0,0.0,0.0,0.0,0.0,0.0,0.0,0.0,0.0,0.0,0.0,0.0,0.0,-1.1304,0.0,0.0,0.0,0.0,0.0,0.0,0.0,0.0,0.0,0.0,0.0,0.0,0.0,0.0,0.0,0.0,0.0,0.0,0.0,0.0,0.0,0.0,0.0,0.0,0.0,0.0,0.0,0.0,0.0,0.0,0.0,0.0,0.0,0.0,0.0,0.0,0.0,0.0,0.0,0.0,0.0,0.0,0.0,0.0,0.0,0.0,0.0,0.0,0.0,0.0,0.0,0.0,0.0,0.0,0.0,0.0,0.0,0.0,0.0,-2.5522,-2.6282,-2.8822,-2.96,-2.8279,-2.5984,-2.3592,0.0,0.0,0.0,0.0,0.0,0.0,0.0,0.0,0.0,0.0,0.0,0.0,0.0,0.0,0.0,0.0,0.0,0.0,0.0,0.0,0.0,0.0,0.0,0.0,0.0,0.0,0.0,0.0,0.0,0.0,0.0,0.0,0.0,0.0,0.0,0.0,0.0,0.0,0.0,0.0,0.0,0.0,0.0,0.0,0.0,0.0,0.0,0.0,0.0,0.0,0.0,0.0,0.0,0.0,0.0,0.0,0.0,0.0,0.0,0.0,0.0,0.0,0.0,0.0,0.0,0.0,0.0,0.0,0.0,0.0,0.0,0.0,0.0,0.0,0.0,0.0,0.0,0.0,0.0,0.0,0.0,0.0,0.0,0.0,0.0,0.0,0.0,0.0,0.0,0.0,0.0,0.0,0.0,0.0,0.0,0.0,0.0,0.0,0.0,0.0,0.0,0.0,0.0,0.0,0.0,0.0,0.0,-2.392,-2.5901,-2.7431,-2.9258,-2.9426,-2.784,-2.674,-2.4922,-2.2277,0.0,0.0,0.0,0.0,0.0,0.0,0.0,0.0,0.0,0.0,0.0,0.0,0.0,0.0,0.0,0.0,0.0,0.0,0.0,0.0,0.0,0.0,0.0,0.0,0.0,0.0,0.0,0.0,0.0,0.0,0.0,0.0,0.0,0.0,0.0,0.0,0.0,0.0,-1.3956,-1.4733,0.0,0.0,0.0,0.0,0.0,0.0,0.0,0.0,-1.1904,0.0,0.0,0.0,0.0,0.0,0.0,0.0,0.0,0.0,0.0,0.0,0.0,0.0,0.0,0.0,0.0,0.0,0.0,0.0,0.0,0.0,0.0,0.0,0.0,0.0,0.0,0.0,0.0,0.0,0.0,0.0,0.0,0.0,0.0,0.0,0.0,0.0,0.0,0.0,0.0,0.0,0.0,0.0,0.0,0.0,0.0,0.0,0.0,0.0,0.0,0.0,0.0,0.0,0.0,0.0,0.0,-2.3309,-2.4417,-2.5824,-2.7612,-2.9312,-2.9713,-2.8698,-2.6963,-2.4779,-2.2128,0.0,0.0,0.0,0.0,0.0,0.0,0.0,0.0,0.0,0.0,0.0,0.0,0.0,0.0,0.0,0.0,0.0,0.0,0.0,0.0,0.0,0.0,0.0,0.0,0.0,0.0,0.0,0.0,0.0,0.0,0.0,0.0,0.0,0.0,0.0,0.0,0.0,0.0,0.0,-1.5117,-1.5389,0.0,0.0,0.0,0.0,0.0,0.0,0.0,0.0,-1.2838,0.0,0.0,0.0,0.0,0.0,0.0,0.0,0.0,0.0,0.0,0.0,0.0,0.0,0.0,0.0,0.0,0.0,0.0,0.0,0.0,0.0,0.0,0.0,0.0,0.0,0.0,0.0,0.0,0.0,0.0,0.0,0.0,0.0,0.0,0.0,0.0,0.0,0.0,0.0,0.0,0.0,0.0,0.0,0.0,0.0,0.0,0.0,0.0,0.0,0.0,0.0,0.0,0.0,0.0,0.0,-2.363,-2.5032,-2.6536,-2.8261,-2.9114,-2.9112,-2.8219,-2.6003,-2.3549,0.0,0.0,0.0,0.0,0.0,0.0,0.0,0.0,0.0,0.0,0.0,0.0,0.0,0.0,0.0,0.0,0.0,0.0,0.0,0.0,0.0,0.0,0.0,0.0,0.0,0.0,0.0,0.0,0.0,0.0,0.0,0.0,0.0,0.0,0.0,0.0,0.0,0.0,0.0,0.0,-1.557,-1.6027,-1.6384,0.0,0.0,0.0,0.0,0.0,0.0,-1.3989,-1.3561,0.0,0.0,0.0,0.0,0.0,0.0,0.0,0.0,0.0,0.0,0.0,0.0,0.0,0.0,0.0,0.0,0.0,0.0,0.0,0.0,0.0,0.0,0.0,0.0,0.0,0.0,0.0,0.0,0.0,0.0,0.0,0.0,0.0,0.0,0.0,0.0,0.0,0.0,0.0,0.0,0.0,0.0,0.0,0.0,0.0,0.0,0.0,0.0,0.0,0.0,0.0,0.0,0.0,0.0,0.0,-2.3482,-2.5399,-2.7026,-2.8331,-2.8731,-2.8398,-2.7335,-2.4762,-2.2198,0.0,0.0,0.0,0.0,0.0,0.0,0.0,0.0,0.0,0.0,0.0,0.0,0.0,0.0,0.0,0.0,0.0,0.0,0.0,0.0,0.0,0.0,0.0,0.0,0.0,0.0,0.0,0.0,0.0,0.0,0.0,0.0,0.0,0.0,0.0,0.0,0.0,0.0,0.0,0.0,0.0,-1.6566,-1.6747,-1.6608,0.0,0.0,0.0,0.0,-1.4937,-1.4833,0.0,0.0,0.0,0.0,0.0,0.0,0.0,0.0,0.0,0.0,0.0,0.0,0.0,0.0,0.0,0.0,0.0,0.0,0.0,0.0,0.0,0.0,0.0,0.0,0.0,0.0,0.0,0.0,0.0,0.0,0.0,0.0,0.0,0.0,0.0,0.0,0.0,0.0,0.0,0.0,0.0,0.0,0.0,0.0,0.0,0.0,0.0,0.0,0.0,0.0,0.0,0.0,0.0,0.0,0.0,0.0,-2.2698,-2.5057,-2.6389,-2.6747,-2.8132,-2.8117,-2.6469,-2.3695,-2.1421,0.0,0.0,0.0,0.0,0.0,0.0,0.0,0.0,0.0,0.0,0.0,0.0,0.0,0.0,0.0,0.0,0.0,0.0,0.0,0.0,0.0,0.0,0.0,0.0,0.0,0.0,0.0,0.0,0.0,0.0,0.0,0.0,0.0,0.0,0.0,0.0,0.0,0.0,0.0,0.0,0.0,-1.6786,-1.7548,-1.6946,-1.6403,0.0,0.0,-1.6624,-1.7326,-1.7444,0.0,0.0,0.0,0.0,0.0,0.0,0.0,0.0,0.0,0.0,0.0,0.0,0.0,0.0,0.0,0.0,0.0,0.0,0.0,0.0,0.0,0.0,0.0,0.0,0.0,0.0,0.0,0.0,0.0,0.0,0.0,0.0,0.0,0.0,0.0,0.0,0.0,0.0,0.0,0.0,0.0,0.0,0.0,0.0,0.0,0.0,0.0,0.0,0.0,0.0,0.0,0.0,0.0,0.0,0.0,-2.0585,-2.3176,-2.5227,-2.6534,-2.7058,-2.731,-2.706,-2.6291,-2.3084,-2.08,0.0,0.0,0.0,0.0,0.0,0.0,0.0,0.0,0.0,0.0,0.0,0.0,0.0,0.0,0.0,0.0,0.0,0.0,0.0,0.0,0.0,0.0,0.0,0.0,0.0,0.0,0.0,0.0,0.0,0.0,0.0,0.0,0.0,0.0,0.0,0.0,0.0,0.0,0.0,0.0,0.0,0.0,-1.7758,-1.7424,0.0,0.0,0.0,-1.7116,-1.7109,0.0,0.0,0.0,0.0,0.0,0.0,0.0,0.0,0.0,0.0,0.0,0.0,0.0,0.0,0.0,0.0,0.0,0.0,0.0,0.0,0.0,0.0,0.0,0.0,0.0,0.0,0.0,0.0,0.0,0.0,0.0,0.0,0.0,0.0,0.0,0.0,0.0,0.0,0.0,0.0,0.0,0.0,0.0,0.0,0.0,0.0,0.0,0.0,0.0,0.0,0.0,0.0,0.0,0.0,0.0,0.0,0.0,-2.3348,-2.5282,-2.6474,-2.6897,-2.6474,-2.6162,-2.5896,-2.2759,0.0,0.0,0.0,0.0,0.0,0.0,0.0,0.0,0.0,0.0,0.0,0.0,0.0,0.0,0.0,0.0,0.0,0.0,0.0,0.0,0.0,0.0,0.0,0.0,0.0,0.0,0.0,-1.0166,0.0,0.0,0.0,0.0,0.0,0.0,0.0,0.0,0.0,0.0,0.0,0.0,0.0,0.0,-1.7944,-1.8109,-1.8072,-1.8094,0.0,0.0,-1.7719,-1.7202,-1.8357,-1.8519,0.0,0.0,0.0,0.0,0.0,0.0,0.0,0.0,0.0,0.0,0.0,0.0,0.0,0.0,0.0,0.0,0.0,0.0,0.0,0.0,0.0,0.0,0.0,0.0,0.0,0.0,0.0,0.0,0.0,0.0,0.0,0.0,0.0,0.0,0.0,0.0,0.0,0.0,0.0,0.0,0.0,0.0,0.0,0.0,0.0,0.0,0.0,0.0,0.0,0.0,0.0,0.0,0.0,0.0,-2.0702,-2.2508,-2.4884,-2.5785,-2.5158,-2.5766,-2.5758,-2.4993,-2.2876,-2.1353,0.0,0.0,0.0,0.0,0.0,0.0,0.0,0.0,0.0,0.0,0.0,0.0,0.0,0.0,0.0,0.0,0.0,0.0,0.0,0.0,0.0,0.0,0.0,0.0,0.0,0.0,0.0,0.0,0.0,0.0,0.0,0.0,0.0,0.0,0.0,0.0,0.0,0.0,0.0,0.0,0.0,-1.81,-1.8908,-1.8898,-1.9146,0.0,-1.9331,-1.8737,-1.8808,-1.9598,-1.9568,-1.7727,0.0,0.0,0.0,0.0,0.0,0.0,0.0,0.0,0.0,0.0,0.0,0.0,0.0,0.0,0.0,0.0,0.0,0.0,0.0,0.0,0.0,0.0,0.0,0.0,0.0,0.0,0.0,0.0,0.0,0.0,0.0,0.0,0.0,0.0,0.0,0.0,0.0,0.0,0.0,0.0,0.0,0.0,0.0,0.0,0.0,0.0,0.0,0.0,0.0,0.0,0.0,0.0,0.0,-2.0571,-2.2388,-2.4211,-2.5062,-2.4861,-2.5133,-2.5103,-2.4727,-2.331,-2.1666,0.0,0.0,0.0,0.0,0.0,0.0,0.0,0.0,0.0,0.0,0.0,0.0,0.0,0.0,0.0,0.0,0.0,0.0,0.0,0.0,0.0,0.0,0.0,0.0,0.0,0.0,0.0,0.0,-1.0833,-1.119,-1.2462,0.0,0.0,0.0,0.0,0.0,0.0,0.0,0.0,0.0,0.0,-1.9508,-2.0508,-2.0531,0.0,0.0,-1.9843,-1.9397,-1.8994,-1.9179,-1.8784,-1.7067,-1.6369,0.0,0.0,0.0,0.0,0.0,0.0,0.0,0.0,0.0,0.0,0.0,0.0,0.0,0.0,0.0,0.0,0.0,0.0,0.0,0.0,0.0,0.0,0.0,0.0,0.0,0.0,0.0,0.0,0.0,0.0,0.0,0.0,0.0,0.0,0.0,0.0,0.0,0.0,0.0,0.0,0.0,0.0,0.0,0.0,0.0,0.0,0.0,0.0,0.0,0.0,0.0,0.0,-2.0459,-2.2323,-2.3794,-2.461,-2.478,-2.4749,-2.4703,-2.4583,-2.3781,-2.2389,0.0,0.0,0.0,0.0,0.0,0.0,0.0,0.0,0.0,0.0,0.0,0.0,0.0,0.0,0.0,0.0,0.0,0.0,0.0,0.0,0.0,0.0,0.0,0.0,0.0,0.0,0.0,0.0,-1.1828,-1.2296,-1.3395,0.0,0.0,0.0,0.0,0.0,0.0,0.0,0.0,0.0,0.0,-2.0419,-2.1386,-2.1425,-2.1129,-2.0564,-2.0133,-1.9709,-1.9156,-1.912,-1.8641,-1.7188,0.0,0.0,0.0,0.0,0.0,0.0,0.0,0.0,0.0,0.0,0.0,0.0,0.0,0.0,0.0,0.0,0.0,0.0,0.0,0.0,0.0,0.0,0.0,0.0,0.0,0.0,0.0,-1.4389,0.0,0.0,-1.3539,0.0,0.0,0.0,0.0,0.0,0.0,0.0,0.0,0.0,0.0,0.0,0.0,0.0,0.0,0.0,0.0,0.0,0.0,0.0,0.0,0.0,0.0,-2.0344,-2.2184,-2.3644,-2.4508,-2.4701,-2.4631,-2.4607,-2.4599,-2.4311,-2.3657,-2.2537,0.0,0.0,0.0,0.0,0.0,0.0,0.0,0.0,0.0,0.0,0.0,0.0,0.0,0.0,0.0,0.0,0.0,0.0,0.0,0.0,0.0,0.0,0.0,0.0,0.0,0.0,-1.3309,-1.3494,-1.3532,0.0,0.0,0.0,0.0,0.0,0.0,0.0,0.0,0.0,0.0,-1.9058,-2.0493,-2.1307,-2.1285,-2.1206,-2.1069,-2.0258,-1.9586,-1.9497,-1.9691,-1.9552,0.0,0.0,0.0,0.0,0.0,0.0,0.0,0.0,0.0,0.0,0.0,0.0,0.0,0.0,0.0,0.0,0.0,0.0,0.0,0.0,0.0,0.0,0.0,0.0,0.0,0.0,0.0,-1.6693,-1.6818,0.0,0.0,0.0,0.0,0.0,0.0,0.0,0.0,0.0,0.0,0.0,-2.1069,-2.0894,0.0,0.0,0.0,0.0,0.0,0.0,0.0,0.0,0.0,0.0,0.0,0.0,-2.0752,-2.2009,-2.3533,-2.4401,-2.4555,-2.4541,-2.449,-2.442,-2.4266,-2.3169,-2.1042,0.0,0.0,0.0,0.0,0.0,0.0,0.0,0.0,0.0,0.0,0.0,0.0,0.0,0.0,0.0,0.0,0.0,0.0,0.0,0.0,0.0,0.0,0.0,0.0,0.0,-1.3028,0.0,0.0,0.0,0.0,0.0,0.0,0.0,0.0,0.0,0.0,0.0,-1.8033,-1.8982,-1.9922,-2.0904,-2.1861,-2.1878,-2.1638,0.0,0.0,0.0,0.0,0.0,0.0,0.0,0.0,0.0,0.0,0.0,0.0,0.0,0.0,-1.7279,-1.6085,-1.6407,-1.6822,-1.6597,0.0,0.0,0.0,0.0,0.0,0.0,0.0,0.0,0.0,0.0,0.0,0.0,0.0,0.0,-1.8815,0.0,-1.857,0.0,0.0,0.0,0.0,0.0,0.0,0.0,0.0,-2.1152,-2.218,-2.3314,-2.307,-2.3118,0.0,-2.269,-2.0935,0.0,0.0,0.0,0.0,0.0,0.0,0.0,0.0,-2.0898,-2.1865,-2.3427,-2.4339,-2.4462,-2.4479,-2.4446,-2.4312,-2.4171,-2.2982,-2.0586,-1.9119,-1.7135,0.0,0.0,0.0,0.0,0.0,0.0,0.0,0.0,0.0,0.0,0.0,0.0,0.0,0.0,0.0,0.0,0.0,0.0,0.0,0.0,0.0,0.0,0.0,-1.3531,0.0,0.0,0.0,0.0,0.0,0.0,0.0,0.0,0.0,-1.6947,-1.7836,-1.8892,-2.0153,-2.0878,-2.1403,-2.1726,0.0,0.0,0.0,0.0,0.0,0.0,0.0,-1.9224,-1.9183,-1.9332,-1.9512,-1.9701,-1.9738,-1.9713,-1.9726,0.0,0.0,-1.8292,-1.8497,-1.8967,-1.903,-1.8644,-1.8477,-1.9068,-1.9146,-1.929,0.0,0.0,0.0,0.0,0.0,0.0,0.0,0.0,-2.2353,-2.147,0.0,-2.0932,0.0,0.0,0.0,0.0,0.0,-2.1633,0.0,0.0,-2.5793,-2.6549,-2.5207,-2.4954,-2.4835,-2.4664,-2.4074,-2.3374,-2.2584,-2.0691,0.0,0.0,0.0,0.0,0.0,0.0,-2.0806,-2.175,-2.3364,-2.4266,-2.4403,-2.4454,-2.4436,-2.4275,-2.4046,-2.3081,-2.1414,-2.0481,-1.8802,-1.6308,-1.5366,0.0,0.0,0.0,0.0,0.0,0.0,0.0,0.0,0.0,0.0,0.0,0.0,0.0,0.0,0.0,0.0,0.0,0.0,0.0,0.0,-1.4344,0.0,0.0,0.0,0.0,0.0,0.0,0.0,0.0,0.0,0.0,-1.8547,-1.8552,-1.9142,-2.0808,0.0,0.0,0.0,0.0,-2.1451,-1.9554,-1.9281,-1.9285,-1.9169,-2.0088,-2.0772,-2.0652,0.0,0.0,-2.239,-2.0985,-2.0051,-1.992,-2.1375,-2.1947,-2.0308,-1.9994,-1.9976,-2.0132,-2.0156,-2.0025,-2.007,-2.0344,-2.0304,-2.5811,0.0,0.0,0.0,0.0,-2.2608,-2.3654,-2.561,-2.4515,-2.4172,-2.4378,-2.4092,0.0,0.0,0.0,0.0,0.0,0.0,-2.4082,-2.4801,-2.5467,-2.624,-2.708,-2.6797,-2.6812,-2.7095,-2.6743,-2.6072,-2.5097,-2.4541,-2.2972,-2.0448,0.0,0.0,0.0,0.0,-2.1944,-2.2395,-2.3563,-2.4238,-2.433,-2.4312,-2.4201,-2.4018,-2.3894,-2.3309,-2.2265,-2.1972,-2.0614,-1.8018,-1.7135,0.0,0.0,0.0,0.0,0.0,0.0,0.0,0.0,0.0,0.0,0.0,0.0,0.0,0.0,0.0,0.0,0.0,0.0,0.0,-1.5162,-1.4137,-1.3787,0.0,0.0,0.0,0.0,0.0,0.0,0.0,0.0,0.0,-2.0856,-2.0019,-1.9451,0.0,0.0,-2.0044,-1.9638,-2.0458,-2.0923,-2.0346,-2.0783,0.0,-2.1195,-2.145,-2.1637,-2.1606,-2.2697,-2.346,-2.3241,-2.3297,-2.3366,-2.3314,-2.3803,-2.4001,-2.3591,-2.3439,-2.3434,-2.3524,-2.3524,-2.3505,-2.3524,-2.3531,-2.3518,-2.9384,-2.7404,-2.6313,-2.5869,-2.5883,-2.557,-2.6552,-2.8276,-2.7049,-2.6706,-2.6965,-2.6501,-2.5403,-2.3878,-2.3941,0.0,0.0,0.0,-2.5849,-2.6544,-2.6591,-2.7131,-2.8006,-2.7747,-2.7736,-2.7918,-2.7792,-2.7387,-2.6695,-2.6338,-2.5204,-2.3367,0.0,0.0,-2.1819,-2.2778,-2.3184,-2.3062,-2.4046,-2.4472,-2.4172,-2.4153,-2.4027,-2.3827,-2.3747,-2.3484,-2.3013,-2.2608,-2.1549,-1.9759,-1.8197,-1.6151,0.0,0.0,0.0,0.0,0.0,0.0,0.0,0.0,0.0,0.0,0.0,-1.3197,-1.3162,0.0,0.0,0.0,-1.4901,-1.5414,-1.5439,-1.4785,0.0,0.0,0.0,0.0,0.0,0.0,0.0,-1.9011,-1.9896,-2.0933,-2.1964,-2.1243,-2.0743,-2.1148,-2.1101,-2.0834,-2.0384,0.0,-2.1722,-2.131,-2.1686,-2.2025,-2.2058,-2.2334,-2.2671,-2.306,-2.3607,-2.4044,-2.4112,-2.4542,-2.487,-2.487,-2.491,-2.4938,-2.4933,-2.4972,-2.5004,-2.5004,-2.5004,-2.5011,-2.5037,-2.5062,-2.5043,-3.2529,-3.0922,-2.8678,-2.8259,-2.9094,-2.9308,-2.9954,-3.0748,-2.9588,-2.8936,-2.8615,-2.8287,-2.7006,-2.5096,-2.5092,0.0,-2.5595,-2.7054,-2.7823,-2.8089,-2.8607,-2.8664,-2.8285,-2.8075,-2.7901,-2.7716,-2.763,-2.7602,-2.7489,-2.6645,-2.6113,-2.5953,-2.4829,-2.3933,-2.3416,-2.4236,-2.4384,-2.3681,-2.4654,-2.4832,-2.4105,-2.4004,-2.3858,-2.3689,-2.3609,-2.3578,-2.3544,-2.2608,-2.1856,-2.1235,-1.867,-1.5999,-1.3361,0.0,0.0,0.0,0.0,0.0,0.0,0.0,0.0,0.0,0.0,0.0,0.0,0.0,0.0,0.0,-1.4813,0.0,-1.5221,-1.5933,0.0,0.0,0.0,-1.8419,-1.9722,-2.043,-2.0886,-2.1046,0.0,0.0,-2.2297,-2.225,-2.2635,-2.3738,-2.3657,-2.3156,-2.2301,-2.2903,-2.3251,-2.2315,-2.2301,-2.2327,-2.2454,-2.3023,-2.3757,-2.4496,-2.4863,-2.4854,-2.4861,-2.4945,-2.4984,-2.4977,-2.4984,-2.4998,-2.4986,-2.4993,-2.4999,-2.5018,-2.5018,-2.5025,-2.5089,-2.5076,-2.5076,-3.2737,-3.2087,-3.1621,-3.0794,-2.98,-3.019,-3.0446,-3.0553,-3.0166,-2.994,-2.9854,-2.946,-2.897,-2.8417,-2.8436,-2.8356,-2.8276,-2.8706,-2.8787,-2.8601,-2.8597,-2.844,-2.8139,-2.8045,-2.7893,-2.7733,-2.7686,-2.7522,-2.7213,-2.7023,-2.6535,-2.5797,-2.5564,-2.4815,-2.3598,-2.3986,-2.4227,-2.4295,-2.4698,-2.4878,-2.4834,-2.4124,-2.3685,-2.3481,-2.3453,-2.3372,-2.3211,-2.2494,-2.175,-2.0994,-1.867,-1.6072,-1.3278,-1.2948,0.0,0.0,0.0,0.0,0.0,0.0,0.0,0.0,0.0,-1.5434,-1.3047,0.0,-1.4741,0.0,-1.4677,-1.5426,-1.4423,-1.6276,0.0,0.0,-1.8452,-2.0071,-2.1051,-2.2009,-2.232,-2.1691,-2.2521,-2.3175,-2.3177,-2.3171,-2.3539,-2.4531,-2.3414,-2.2344,-2.2114,-2.2908,-2.3422,-2.3224,-2.3695,-2.4202,-2.4106,-2.4309,-2.4541,-2.4844,-2.4903,-2.4917,-2.4964,-2.4996,-2.4984,-2.4984,-2.4984,-2.4998,-2.4986,-2.4993,-2.5012,-2.5051,-2.507,-2.507,-2.5082,-2.5101,-2.5095,-3.3628,-3.3081,-3.3776,-3.3248,-3.2019,-3.2011,-3.1931,-3.1761,-3.1585,-3.1265,-3.084,-3.0152,-2.9761,-2.9626,-2.9644,-2.9484,-2.9148,-2.9068,-2.8855,-2.8565,-2.8373,-2.8079,-2.7692,-2.7745,-2.763,-2.7402,-2.7539,-2.7494,-2.7277,-2.7198,-2.6878,-2.6372,-2.6404,-2.5808,-2.4573,-2.4541,-2.4436,-2.4289,-2.4551,-2.481,-2.4975,-2.4504,-2.4113,-2.3827,-2.3136,-2.2652,-2.2392,-2.1708,-2.1144,-2.0699,-1.8787,-1.6446,-1.3845,-1.3404,-1.2356,0.0,0.0,0.0,0.0,0.0,0.0,0.0,0.0,0.0,0.0,0.0,-1.5079,-1.4925,-1.6819,-1.7698,-1.6894,-1.8467,-1.9462,-1.9241,-2.0588,-2.1879,-2.2844,-2.3469,-2.3636,-2.3188,-2.3664,-2.4041,-2.4075,-2.4077,-2.4275,-2.4849,-2.403,-2.3357,-2.3347,-2.3802,-2.4133,-2.4103,-2.4568,-2.495,-2.4896,-2.4889,-2.4903,-2.4931,-2.4938,-2.4964,-2.4996,-2.4984,-2.4984,-2.4984,-2.4984,-2.5017,-2.5044,-2.5038,-2.5057,-2.5113,-2.5144,-2.5151,-2.5151,-2.5144,-2.5137,-3.4633,-3.387,-3.5025,-3.517,-3.4531,-3.3993,-3.3666,-3.3484,-3.3103,-3.2455,-3.1611,-3.0677,-3.016,-3.0019,-3.001,-2.9773,-2.9385,-2.9101,-2.8838,-2.855,-2.8252,-2.7832,-2.7352,-2.7423,-2.731,-2.704,-2.7326,-2.7465,-2.7386,-2.7198,-2.705,-2.6996,-2.6931,-2.6475,-2.5631,-2.5322,-2.483,-2.4195,-2.4521,-2.479,-2.4985,-2.4651,-2.432,-2.3967,-2.254,-2.162,-2.1279,-2.0573,-2.0204,-2.02,-1.8698,-1.6737,-1.4481,-1.3662,-1.2816,0.0,-1.2655,0.0,0.0,0.0,0.0,0.0,0.0,0.0,0.0,-1.4863,-1.5493,-1.7721,-1.9709,-2.0623,-2.0015,-2.098,-2.1917,-2.2547,-2.2932,-2.3527,-2.4462,-2.4599,-2.4647,-2.4764,-2.4757,-2.473,-2.4753,-2.4791,-2.4813,-2.4794,-2.4806,-2.474,-2.4849,-2.4838,-2.4864,-2.4895,-2.4926,-2.495,-2.4957,-2.4957,-2.4957,-2.4964,-2.4957,-2.4971,-2.4971,-2.4971,-2.4996,-2.4984,-2.4984,-2.5023,-2.5082,-2.5076,-2.5107,-2.5187,-2.518,-2.5205,-2.5205,-2.5191,-2.5208,-3.4366,-3.4002,-3.4376,-3.472,-3.4924,-3.4284,-3.4049,-3.4055,-3.3049,-3.2407,-3.2064,-3.1824,-3.1702,-3.1644,-3.1575,-3.1343,-3.0956,-3.0662,-3.0332,-2.9875,-2.9042,-2.8469,-2.8078,-2.7523,-2.7198,-2.7103,-2.7326,-2.7246,-2.6923,-2.699,-2.6634,-2.5909,-2.5939,-2.5689,-2.5154,0.0,0.0,0.0,-2.5138,-2.527,-2.5379,-2.3325,-2.2126,-2.1859,-2.1017,0.0,-2.0132,-1.937,-1.8975,-1.8976,-1.7597,0.0,0.0,0.0,0.0,0.0,0.0,0.0,0.0,0.0,0.0,0.0,-1.7676,-1.6744,-1.6428,-1.6826,-1.7307,-1.7924,-2.0591,-2.1146,-1.8422,-2.0753,-2.1988,-2.088,-2.2584,-2.4091,-2.4539,-2.4599,-2.4639,-2.47,-2.4749,-2.4764,-2.4723,-2.4764,-2.4787,-2.4738,-2.4787,-2.4821,-2.4734,-2.4813,-2.4849,-2.4823,-2.4849,-2.4842,-2.4842,-2.4842,-2.4849,-2.4842,-2.4842,-2.4856,-2.491,-2.4924,-2.4931,-2.4977,-2.4984,-2.4998,-2.5018,-2.5063,-2.5108,-2.5107,-2.5162,-2.521,-2.521,-2.5208,-2.5212,-3.5126,-3.5101,-3.5304,-3.57,0.0,-3.5403,-3.5304,-3.5505,-3.3796,-3.2908,-3.2625,-3.2301,-3.2093,-3.2,-3.1823,-3.1537,-3.1128,-3.0736,-3.0389,-3.0068,-2.9443,-2.9005,-2.8733,-2.8373,-2.8151,-2.8032,-2.7891,-2.7669,-2.7385,-2.7045,-2.6704,-2.6281,-2.6264,-2.6171,-2.6046,-2.6079,-2.5804,-2.5192,-2.5617,-2.5977,-2.6198,-2.4914,-2.413,-2.3932,-2.2803,0.0,0.0,0.0,0.0,0.0,0.0,0.0,0.0,-1.6621,0.0,-1.6587,-1.7127,-1.7903,-1.8939,-1.9009,-1.9298,-2.0038,-2.0303,-1.9761,-1.825,-1.9212,-2.0096,-2.0512,-2.2377,-2.2807,-2.1124,-2.2382,-2.3029,-2.2216,-2.3269,-2.4182,-2.4356,-2.4472,-2.4532,-2.458,-2.4629,-2.4645,-2.4596,-2.465,-2.4673,-2.466,-2.4684,-2.4684,-2.4679,-2.473,-2.4802,-2.4809,-2.4809,-2.4817,-2.4813,-2.4813,-2.4813,-2.4813,-2.4813,-2.482,-2.4849,-2.4877,-2.4898,-2.4957,-2.4996,-2.4998,-2.4986,-2.5044,-2.5051,-2.5095,-2.5119,-2.5168,-2.5205,-2.5203,-2.5201,-3.5907,-3.6289,-3.6324,-3.6742,-3.7348,-3.6315,-3.6167,-3.6517,0.0,0.0,0.0,-3.2753,-3.243,-3.2236,-3.1985,-3.1655,-3.1281,-3.0767,-3.0457,-3.0277,-2.9868,-2.9557,-2.938,-2.9226,-2.9121,-2.9012,-2.8578,-2.822,-2.7929,-2.7267,-2.6961,-2.6926,-2.6825,-2.6874,-2.7085,-2.7217,-2.6676,-2.5594,-2.6033,-2.6449,-2.6755,-2.6494,-2.628,-2.6166,-2.4672,-2.3388,-2.2388,-2.1799,-2.1181,-2.0467,-2.0535,-2.0257,-1.9582,-1.9503,-1.9487,-1.9596,-1.9608,-1.9788,-2.0255,-2.0248,-2.0453,-2.0943,-2.2346,-2.2283,-2.0127,-2.1511,-2.268,-2.3139,-2.3899,-2.4284,-2.4087,-2.404,-2.4019,-2.3947,-2.3989,-2.405,-2.4154,-2.4266,-2.4367,-2.442,-2.4455,-2.4482,-2.4491,-2.4515,-2.4549,-2.4539,-2.4528,-2.4545,-2.4547,-2.4621,-2.47,-2.476,-2.4742,-2.4764,-2.4783,-2.4791,-2.4798,-2.4791,-2.4791,-2.4798,-2.4813,-2.4842,-2.4889,-2.4877,-2.4943,-2.4977,-2.4985,-2.5005,-2.5025,-2.5082,-2.5095,-2.5126,-2.5181,-2.5174,-2.5185,-3.5742,-3.657,-3.5859,-3.6339,-3.744,-3.5725,-3.5103,-3.5257,-3.4957,-3.4484,-3.3951,-3.3882,-3.3765,-3.3615,-3.341,-3.3156,-3.2847,-3.2448,-3.2087,-3.1725,-3.0783,-3.0257,-3.0039,-2.9354,-2.9047,-2.9066,-2.9017,-2.8539,-2.7805,-2.7618,-2.7264,-2.6724,-2.664,-2.6809,-2.7086,-2.7119,-2.708,-2.697,-2.6294,-2.6077,-2.6257,-2.4881,-2.4112,-2.3987,-2.3206,-2.263,-2.2476,-2.2141,-2.1945,-2.1976,-2.2041,-2.181,-2.1215,-2.1221,-2.1309,-2.1482,-2.1499,-2.1913,-2.2879,-2.3059,-2.325,-2.3536,-2.3813,-2.3226,-2.1646,-2.2984,-2.3739,-2.3169,-2.3832,-2.4201,-2.3968,-2.3888,-2.3837,-2.3764,-2.3756,-2.3819,-2.3998,-2.4096,-2.4163,-2.4164,-2.4303,-2.4412,-2.4384,-2.4357,-2.4339,-2.433,-2.4302,-2.4266,-2.4284,-2.4364,-2.4485,-2.4596,-2.4631,-2.4645,-2.47,-2.4715,-2.4704,-2.4723,-2.4704,-2.4738,-2.4787,-2.4802,-2.4843,-2.482,-2.4889,-2.4917,-2.4931,-2.496,-2.4986,-2.5006,-2.5063,-2.5108,-2.5101,-2.5107,-2.5151,-3.6252,-3.6471,-3.6616,-3.6707,-3.6676,-3.6008,-3.5531,-3.5256,-3.5537,-3.5251,-3.4557,-3.3927,-3.3662,-3.3657,-3.3321,-3.3003,-3.2685,-3.2335,-3.2037,-3.1728,-3.116,-3.0838,-3.0726,-3.0366,-3.0194,-3.0215,-2.9696,-2.9139,-2.86,-2.7831,-2.7193,-2.6786,-2.6859,-2.7055,-2.73,-2.7317,-2.7454,-2.7688,-2.7033,-2.673,-2.6874,-2.6157,-2.5779,-2.5817,-2.5386,-2.502,-2.4729,-2.4408,-2.4178,-2.4046,-2.3957,-2.3801,-2.353,-2.3602,-2.3693,-2.3745,-2.3872,-2.401,-2.4088,-2.3853,-2.3728,-2.3813,-2.3888,-2.3648,-2.29,-2.3636,-2.3997,-2.3639,-2.3951,-2.4095,-2.3958,-2.3917,-2.3855,-2.3707,-2.3721,-2.3785,-2.3845,-2.3929,-2.3999,-2.4039,-2.4154,-2.4229,-2.4182,-2.4191,-2.4173,-2.4125,-2.4095,-2.4009,-2.4008,-2.4049,-2.4155,-2.4374,-2.4497,-2.4564,-2.4629,-2.4684,-2.47,-2.4681,-2.4681,-2.4707,-2.4749,-2.4757,-2.4806,-2.4821,-2.4846,-2.4849,-2.4849,-2.4877,-2.4912,-2.4979,-2.5018,-2.5056,-2.5089,-2.5082,-2.5107,-3.6754,-3.6661,-3.7066,-3.6679,-3.5837,-3.6349,-3.6177,-3.5605,-3.5849,-3.5577,-3.4924,-3.3936,-3.3475,-3.3364,-3.3086,-3.273,-3.2301,-3.2084,-3.1806,-3.1498,-3.1288,-3.119,-3.119,-3.1131,-3.0991,-3.0769,-2.9964,-2.933,-2.8741,-2.7627,-2.6942,-2.6662,-2.6813,-2.698,-2.711,-2.711,-2.7308,-2.7674,-2.7363,-2.7264,-2.7452,-2.7498,-2.7572,-2.7644,-2.7554,-2.729,-2.6876,-2.6532,-2.6244,-2.5974,-2.5792,-2.5689,-2.5686,-2.5774,-2.5719,-2.5565,-2.5678,-2.5504,-2.4844,-2.4218,-2.3858,-2.3789,-2.375,-2.375,-2.3732,-2.3813,-2.3955,-2.4077,-2.4037,-2.3988,-2.3996,-2.3945,-2.3863,-2.3721,-2.3714,-2.3689,-2.3667,-2.3782,-2.3884,-2.3935,-2.4008,-2.4029,-2.3998,-2.3999,-2.3989,-2.3925,-2.3852,-2.3792,-2.3732,-2.3761,-2.3896,-2.4096,-2.4302,-2.4425,-2.4539,-2.4621,-2.466,-2.4676,-2.4692,-2.47,-2.4707,-2.4742,-2.4768,-2.4776,-2.4772,-2.4768,-2.4776,-2.4772,-2.482,-2.4896,-2.4936,-2.4957,-2.5004,-2.5044,-2.507,-3.6855,-3.7465,-3.6361,-3.544,-3.5221,-3.6248,-3.642,-3.595,-3.5462,-3.5117,-3.4922,-3.4422,-3.3768,-3.3152,-3.3347,-3.3019,-3.2301,-3.2435,-3.2115,-3.1513,-3.1305,-3.119,-3.1151,-3.0892,-3.0386,-2.9835,-2.9369,-2.8575,-2.7388,-2.7013,-2.645,-2.5824,-2.5924,-2.603,-2.5999,-2.5999,-2.6199,-2.6553,-2.6674,-2.6924,-2.7315,-2.7419,-2.7494,-2.7494,-2.7511,-2.7519,-2.7531,-2.7332,-2.7238,-2.7287,-2.7204,-2.7178,-2.7161,-2.7084,-2.6757,-2.6175,-2.6135,-2.5895,-2.5353,-2.4762,-2.4389,-2.4286,-2.3862,-2.3625,-2.3544,-2.3544,-2.3711,-2.3984,-2.4026,-2.404,-2.3986,-2.3896,-2.3826,-2.379,-2.3647,-2.351,-2.3544,-2.3634,-2.3732,-2.3732,-2.3852,-2.3935,-2.3886,-2.3847,-2.38,-2.3822,-2.3773,-2.3667,-2.3567,-2.3735,-2.3775,-2.3836,-2.3959,-2.4211,-2.4382,-2.452,-2.4604,-2.4631,-2.466,-2.4692,-2.47,-2.4695,-2.4698,-2.4706,-2.4706,-2.4714,-2.4695,-2.4692,-2.473,-2.4813,-2.4836,-2.4817,-2.4834,-2.4917,-2.5004,-3.7349,-3.7536,-3.7464,-3.6823,-3.5934,-3.5754,-3.5422,-3.5058,-3.5394,-3.52,-3.4685,-3.4763,-3.4076,-3.2854,-3.2755,-3.2387,-3.1893,-3.185,-3.1596,-3.1168,-3.1052,-3.0952,-3.0773,-3.0654,-3.0344,-2.9955,-2.9587,-2.9065,-2.8387,-2.7462,-2.6475,-2.5554,-2.5776,-2.6005,-2.6121,-2.6121,-2.6298,-2.6675,-2.6354,-2.6367,-2.6758,-2.7103,-2.7246,-2.7215,-2.723,-2.734,-2.7478,-2.7374,-2.739,-2.7585,-2.7509,-2.7434,-2.7404,-2.7357,-2.7108,-2.6686,-2.6364,-2.5956,-2.5431,-2.516,-2.4606,-2.3726,-2.3914,-2.3934,-2.3552,-2.3463,-2.3547,-2.3797,-2.4216,-2.4487,-2.457,-2.4505,-2.4446,-2.4307,-2.3939,-2.3614,-2.3517,-2.3569,-2.3567,-2.3596,-2.3682,-2.3765,-2.37,-2.3638,-2.3809,-2.4105,-2.4212,-2.4058,-2.3666,-2.3937,-2.4096,-2.3797,-2.38,-2.3998,-2.4275,-2.4497,-2.458,-2.4645,-2.4676,-2.4692,-2.4725,-2.4698,-2.4682,-2.4669,-2.4652,-2.4634,-2.4631,-2.4639,-2.4663,-2.4751,-2.4753,-2.4757,-2.4795,-2.485,-2.4901,-3.7744,-3.7723,-3.8357,-3.7576,-3.5883,-3.5259,-3.4677,-3.43,-3.5024,-3.4897,-3.4275,-3.4729,-3.4226,-3.3019,-3.2837,-3.2488,-3.1863,-3.1839,-3.1506,-3.0962,-3.0912,-3.0753,-3.051,-3.0384,-3.0138,-2.9761,-2.9333,-2.9076,-2.8798,-2.7593,-2.6422,-2.564,-2.5687,-2.5882,-2.6003,-2.5983,-2.611,-2.6376,-2.5947,-2.5886,-2.6226,-2.6607,-2.6858,-2.6958,-2.7039,-2.7151,-2.7293,-2.7297,-2.7359,-2.7569,-2.745,-2.7341,-2.7294,-2.7247,-2.7136,-2.6973,-2.6653,-2.6266,-2.5868,-2.5733,-2.5166,-2.4182,-2.4462,-2.4471,-2.408,-2.3939,-2.3958,-2.4106,-2.4819,-2.5273,-2.4933,-2.5061,-2.5129,-2.5081,-2.459,-2.4245,-2.4177,-2.3987,-2.3951,-2.4088,-2.4162,-2.3934,-2.3861,-2.3903,-2.4099,-2.4551,-2.4837,-2.4855,-2.4343,-2.4641,-2.4796,-2.4136,-2.417,-2.4292,-2.4281,-2.4321,-2.4486,-2.4669,-2.4741,-2.5048,-2.4995,-2.4987,-2.4945,-2.5082,-2.4793,-2.4711,-2.4909,-2.489,-2.4887,-2.4864,-2.4829,-2.472,-2.4695,-2.4745,-2.4764,-3.7831,-3.8258,-3.8245,-3.6755,-3.4463,-3.4931,-3.4674,-3.3899,-3.4151,-3.4006,-3.3783,-3.4247,-3.4058,-3.3454,-3.415,-3.3775,-3.2567,-3.2803,-3.2219,-3.0955,-3.0855,-3.0733,-3.0506,-3.0167,-2.9551,-2.8888,-2.856,-2.8034,-2.7347,-2.6702,-2.6225,-2.595,-2.5556,-2.5277,-2.5156,-2.5152,-2.5187,-2.5413,-2.5454,-2.5575,-2.5721,-2.5956,-2.6329,-2.6775,-2.6958,-2.7006,-2.7103,-2.7101,-2.7184,-2.7313,-2.7137,-2.7024,-2.7007,-2.6842,-2.6792,-2.6892,-2.6988,-2.7016,-2.6873,-2.6491,-2.6109,-2.5967,-2.5492,-2.5277,-2.5005,-2.5032,-2.5028,-2.51,-2.5791,-2.595,-2.5171,-2.5394,-2.5689,-2.5864,-2.5743,-2.5586,-2.561,-2.4938,-2.5033,-2.5312,-2.4985,-2.4706,-2.4652,-2.4659,-2.47,-2.495,-2.536,-2.5663,-2.5526,-2.5615,-2.5413,-2.5028,-2.5147,-2.5456,-2.4356,-2.4482,-2.4515,-2.4745,-2.5382,-2.565,-2.5696,-2.5715,-2.5634,-2.5458,-2.5051,-2.4986,-2.5251,-2.5389,-2.5428,-2.5319,-2.4928,-2.4784,-2.4847,-2.4717,-2.4663,-3.7475,-3.7424,-3.708,-3.6013,-3.4675,-3.4433,-3.3986,-3.3466,-3.4016,-3.3989,-3.3754,-3.4294,-3.4413,-3.4117,-3.4429,-3.3723,-3.2289,-3.2227,-3.1577,-3.0509,-3.0279,-3.0087,-2.987,-2.9754,-2.9441,-2.8955,-2.8788,-2.8395,-2.7753,-2.71,-2.653,-2.5966,-2.5413,-2.508,-2.5005,-2.5005,-2.5005,-2.5001,-2.5029,-2.5091,-2.5195,-2.5362,-2.5624,-2.5924,-2.6383,-2.6657,-2.6775,-2.6941,-2.7056,-2.7106,-2.7041,-2.6992,-2.6909,-2.6775,-2.6758,-2.6893,-2.6942,-2.6801,-2.6502,-2.6666,-2.6383,-2.5582,-2.5727,-2.5663,-2.5275,-2.5149,-2.5103,-2.5313,-2.5811,-2.5979,-2.5998,-2.6089,-2.6298,-2.6335,-2.5959,-2.5711,-2.563,-2.5435,-2.5374,-2.5473,-2.5327,-2.5375,-2.5628,-2.5569,-2.5539,-2.5975,-2.6264,-2.6206,-2.5909,-2.6069,-2.6171,-2.5537,-2.5504,-2.5615,-2.5345,-2.539,-2.5594,-2.5762,-2.61,-2.6184,-2.6249,-2.6297,-2.6247,-2.616,-2.5678,-2.5603,-2.6002,-2.6075,-2.6096,-2.6009,-2.5603,-2.5171,-2.5144,-2.4918,-2.4708,-3.7345,-3.6842,-3.6405,-3.5626,-3.4659,-3.393,-3.3314,-3.2973,-3.3445,-3.3543,-3.3501,-3.4068,-3.4333,-3.4349,-3.4448,-3.3738,-3.2414,-3.1979,-3.1309,-3.0419,-3.0005,-2.9677,-2.9538,-2.9509,-2.9373,-2.9121,-2.9114,-2.8846,-2.841,-2.7703,-2.7008,-2.6356,-2.5625,-2.5147,-2.4973,-2.4926,-2.4866,-2.4746,-2.4742,-2.4751,-2.4799,-2.4895,-2.5029,-2.5246,-2.5705,-2.6155,-2.6469,-2.6809,-2.6975,-2.7008,-2.6992,-2.6925,-2.6842,-2.6759,-2.6742,-2.6809,-2.6893,-2.6738,-2.6424,-2.6796,-2.6689,-2.5794,-2.6083,-2.6214,-2.5796,-2.5657,-2.5672,-2.5822,-2.6067,-2.6411,-2.6563,-2.6715,-2.6833,-2.6925,-2.6511,-2.6253,-2.6272,-2.6109,-2.5901,-2.5823,-2.5778,-2.5978,-2.6279,-2.612,-2.6188,-2.6664,-2.6935,-2.6906,-2.6605,-2.6764,-2.6906,-2.6202,-2.6304,-2.6357,-2.6258,-2.6421,-2.6233,-2.6351,-2.6673,-2.6764,-2.6823,-2.6838,-2.6849,-2.6775,-2.6699,-2.6644,-2.668,-2.6772,-2.6783,-2.6775,-2.6295,-2.5754,-2.5482,-2.5088,-2.4856,-3.7457,-3.6786,-3.6351,-3.5599,-3.4568,-3.3677,-3.2881,-3.2655,-3.2612,-3.2816,-3.2938,-3.3413,-3.3739,-3.3924,-3.4201,-3.3885,-3.3007,-3.2405,-3.1651,-3.0791,-3.0138,-2.9697,-2.947,-2.9448,-2.9312,-2.9098,-2.9114,-2.9075,-2.8903,-2.8173,-2.7529,-2.6965,-2.6131,-2.545,-2.4849,-2.4849,-2.4726,-2.4645,-2.4609,-2.4625,-2.4609,-2.4609,-2.467,-2.4806,-2.5048,-2.5497,-2.619,-2.6623,-2.6842,-2.6909,-2.6893,-2.6826,-2.6708,-2.6674,-2.6708,-2.6725,-2.6826,-2.6876,-2.6892,-2.6989,-2.7038,-2.68,-2.6986,-2.6917,-2.6751,-2.6769,-2.6769,-2.6736,-2.682,-2.6971,-2.7017,-2.7046,-2.7187,-2.7592,-2.7426,-2.7438,-2.7461,-2.7088,-2.6637,-2.6489,-2.6374,-2.6303,-2.635,-2.6466,-2.6588,-2.6771,-2.7278,-2.7748,-2.7586,-2.7674,-2.7543,-2.7158,-2.7077,-2.7161,-2.7264,-2.7337,-2.6967,-2.6748,-2.7139,-2.7393,-2.7411,-2.7429,-2.7447,-2.7393,-2.7139,-2.7103,-2.7351,-2.7423,-2.7465,-2.7356,-2.68,-2.6286,-2.58,-2.5394,-2.4958,-3.7184,-3.6537,-3.6368,-3.5876,-3.5118,-3.4683,-3.4104,-3.3457,-3.3441,-3.3079,-3.2691,-3.3022,-3.324,-3.3282,-3.3529,-3.3505,-3.3173,-3.2538,-3.167,-3.0733,-3.0256,-2.9757,-2.93,-2.9129,-2.902,-2.899,-2.8967,-2.8873,-2.8607,-2.8084,-2.7555,-2.71,-2.623,-2.567,-2.5368,-2.4931,-2.4605,-2.4559,-2.4523,-2.4482,-2.4405,-2.44,-2.4405,-2.4487,-2.4775,-2.5098,-2.5349,-2.5852,-2.6155,-2.6191,-2.633,-2.6452,-2.647,-2.6487,-2.6539,-2.6691,-2.6725,-2.6809,-2.6893,-2.6942,-2.6975,-2.6991,-2.7024,-2.7024,-2.6975,-2.6942,-2.6925,-2.6959,-2.6959,-2.6957,-2.707,-2.7103,-2.7214,-2.7467,-2.7498,-2.7511,-2.7537,-2.7207,-2.7026,-2.6974,-2.6914,-2.6838,-2.6822,-2.6928,-2.7061,-2.7106,-2.7475,-2.7689,-2.7777,-2.7806,-2.7771,-2.7493,-2.7718,-2.7751,-2.7624,-2.7564,-2.7404,-2.721,-2.749,-2.773,-2.7787,-2.7836,-2.7885,-2.7875,-2.7641,-2.7635,-2.79,-2.8003,-2.7987,-2.7916,-2.7514,-2.6895,-2.6198,-2.5774,-2.5456,-3.7212,-3.6801,-3.6503,-3.6156,-3.567,-3.5193,-3.4462,-3.3774,-3.3527,-3.3,-3.245,-3.2715,-3.2893,-3.2951,-3.3176,-3.3309,-3.3245,-3.2688,-3.1886,-3.0923,-3.037,-2.9927,-2.9461,-2.9061,-2.8889,-2.8865,-2.8865,-2.8724,-2.8455,-2.8092,-2.7619,-2.7064,-2.6197,-2.5638,-2.5425,-2.4797,-2.4421,-2.4421,-2.4436,-2.4338,-2.4255,-2.424,-2.4261,-2.424,-2.4513,-2.4699,-2.4799,-2.5157,-2.5478,-2.5687,-2.5923,-2.6136,-2.6313,-2.6366,-2.647,-2.6573,-2.6657,-2.6742,-2.6826,-2.6792,-2.6775,-2.6775,-2.6759,-2.6759,-2.6759,-2.6725,-2.6759,-2.6842,-2.6842,-2.6875,-2.6989,-2.7006,-2.7105,-2.7217,-2.7329,-2.7327,-2.731,-2.7117,-2.6988,-2.6937,-2.6873,-2.6875,-2.6924,-2.7088,-2.7263,-2.731,-2.7419,-2.7526,-2.763,-2.7689,-2.7686,-2.7683,-2.7713,-2.7713,-2.7716,-2.7745,-2.7792,-2.7755,-2.7791,-2.7907,-2.7972,-2.7958,-2.7976,-2.804,-2.7888,-2.7919,-2.8129,-2.8192,-2.8213,-2.8139,-2.801,-2.7562,-2.6945,-2.6615,-2.6261,-3.7464,-3.7385,-3.6711,-3.6429,-3.6274,-3.5186,-3.438,-3.369,-3.3103,-3.2667,-3.2336,-3.2428,-3.266,-3.2854,-3.3027,-3.3145,-3.3145,-3.2761,-3.2199,-3.1451,-3.0679,-2.9988,-2.9618,-2.8998,-2.87,-2.866,-2.866,-2.8541,-2.8235,-2.811,-2.7753,-2.6968,-2.627,-2.5621,-2.5246,-2.4506,-2.429,-2.4317,-2.4317,-2.4234,-2.4051,-2.4198,-2.4234,-2.4051,-2.424,-2.4426,-2.4569,-2.4655,-2.4918,-2.5406,-2.5612,-2.5793,-2.6118,-2.6295,-2.6297,-2.6383,-2.6573,-2.664,-2.6674,-2.6589,-2.6521,-2.6435,-2.6401,-2.633,-2.6452,-2.6504,-2.659,-2.6725,-2.6725,-2.6775,-2.6892,-2.6909,-2.6959,-2.7024,-2.7121,-2.7153,-2.7006,-2.6874,-2.6741,-2.6674,-2.6539,-2.647,-2.6657,-2.6842,-2.6942,-2.7039,-2.7231,-2.7341,-2.7465,-2.7524,-2.7659,-2.7657,-2.7612,-2.7672,-2.7674,-2.7689,-2.7736,-2.7777,-2.7839,-2.7914,-2.8,-2.8018,-2.8018,-2.8071,-2.8126,-2.8164,-2.8205,-2.8232,-2.8286,-2.8232,-2.8105,-2.799,-2.7639,-2.7145,-2.6763,-3.7284,-3.7238,-3.6795,-3.6763,-3.6882,-3.6228,-3.5598,-3.501,-3.4028,-3.3271,-3.2867,-3.2348,-3.2262,-3.2401,-3.2551,-3.2617,-3.259,-3.2413,-3.2269,-3.1842,-3.0589,-2.9378,-2.8608,-2.8296,-2.8165,-2.8088,-2.8113,-2.7915,-2.768,-2.7725,-2.752,-2.7129,-2.6538,-2.6131,-2.5667,-2.4992,-2.4567,-2.4337,-2.4281,-2.4281,-2.4219,-2.4276,-2.4261,-2.424,-2.4276,-2.4302,-2.4385,-2.4369,-2.4609,-2.5068,-2.4974,-2.5188,-2.5682,-2.5828,-2.5957,-2.6225,-2.6295,-2.633,-2.633,-2.6329,-2.6294,-2.6277,-2.6278,-2.6367,-2.6401,-2.6539,-2.664,-2.6708,-2.6691,-2.6758,-2.6859,-2.6893,-2.6926,-2.6975,-2.6925,-2.6875,-2.6791,-2.6607,-2.6435,-2.6469,-2.64,-2.6349,-2.6435,-2.6555,-2.6691,-2.6758,-2.6891,-2.7022,-2.7166,-2.7355,-2.7494,-2.7463,-2.7448,-2.7569,-2.7615,-2.7615,-2.7644,-2.7701,-2.7763,-2.7795,-2.79,-2.7943,-2.7971,-2.8028,-2.8028,-2.8085,-2.8099,-2.8112,-2.8182,-2.825,-2.8215,-2.8053,-2.7641,-2.7187,-2.6977,-3.7119,-3.7089,-3.68,-3.6816,-3.6922,-3.6399,-3.5722,-3.4926,-3.4152,-3.3245,-3.2518,-3.2165,-3.1953,-3.1923,-3.2104,-3.2188,-3.216,-3.1923,-3.1809,-3.1526,-3.0116,-2.8843,-2.8037,-2.786,-2.781,-2.774,-2.7715,-2.7564,-2.7401,-2.7397,-2.7269,-2.6957,-2.6518,-2.6232,-2.6139,-2.5244,-2.478,-2.4664,-2.4466,-2.4261,-2.4193,-2.4193,-2.4094,-2.4051,-2.3994,-2.3994,-2.3994,-2.4114,-2.4426,-2.4826,-2.4786,-2.4871,-2.5397,-2.5565,-2.5735,-2.6045,-2.6134,-2.6189,-2.6171,-2.6134,-2.6081,-2.6063,-2.6099,-2.61,-2.6189,-2.6366,-2.6504,-2.6556,-2.6641,-2.6725,-2.6792,-2.6809,-2.6825,-2.6825,-2.664,-2.6538,-2.659,-2.6348,-2.6207,-2.6189,-2.6171,-2.6171,-2.6259,-2.6365,-2.6486,-2.659,-2.6691,-2.6791,-2.6908,-2.7119,-2.7246,-2.7165,-2.7246,-2.7371,-2.7417,-2.7417,-2.7494,-2.7569,-2.7612,-2.7692,-2.778,-2.7853,-2.79,-2.7929,-2.7943,-2.7957,-2.7971,-2.8014,-2.8071,-2.814,-2.8178,-2.8125,-2.7758,-2.753,-2.727,-3.6969,-3.6954,-3.6693,-3.6616,-3.6523,-3.5896,-3.5146,-3.4242,-3.3801,-3.2975,-3.2094,-3.1966,-3.1877,-3.1569,-3.1799,-3.1794,-3.1809,-3.1452,-3.1188,-3.0702,-2.9661,-2.8616,-2.8077,-2.7848,-2.7838,-2.7805,-2.7693,-2.7509,-2.7343,-2.7259,-2.7052,-2.6794,-2.6261,-2.6182,-2.6182,-2.5337,-2.4972,-2.4998,-2.4553,-2.4213,-2.4067,-2.4024,-2.394,-2.3717,-2.3681,-2.3659,-2.3717,-2.3846,-2.4219,-2.4866,-2.4706,-2.4791,-2.5166,-2.5397,-2.5586,-2.577,-2.5936,-2.6026,-2.6046,-2.5934,-2.5842,-2.5805,-2.5675,-2.5675,-2.5883,-2.61,-2.626,-2.64,-2.6556,-2.6641,-2.6708,-2.6708,-2.6691,-2.6641,-2.64,-2.626,-2.6207,-2.6082,-2.5936,-2.5897,-2.5879,-2.5972,-2.61,-2.626,-2.6331,-2.6295,-2.6401,-2.6453,-2.6573,-2.6758,-2.6825,-2.6775,-2.6923,-2.7151,-2.7166,-2.7166,-2.7293,-2.7402,-2.7463,-2.7524,-2.7644,-2.7719,-2.7766,-2.7795,-2.778,-2.781,-2.7868,-2.7911,-2.794,-2.8014,-2.8071,-2.8126,-2.8079,-2.7946,-2.7745,-3.677,-3.6723,-3.6164,-3.607,-3.6148,-3.5429,-3.502,-3.4855,-3.4171,-3.3648,-3.3309,-3.2495,-3.2035,-3.2005,-3.1619,-3.1263,-3.1308,-3.1014,-3.0602,-2.9915,-2.9697,-2.9071,-2.8494,-2.8096,-2.8054,-2.8174,-2.7898,-2.7654,-2.7513,-2.7188,-2.6884,-2.6762,-2.6617,-2.6469,-2.6199,-2.5735,-2.5183,-2.4969,-2.4575,-2.4263,-2.4064,-2.4,-2.3863,-2.3588,-2.3551,-2.3573,-2.361,-2.3653,-2.3846,-2.4135,-2.4323,-2.4451,-2.4751,-2.4835,-2.5048,-2.5355,-2.547,-2.5508,-2.5508,-2.56,-2.5543,-2.5359,-2.5513,-2.5701,-2.5738,-2.5919,-2.6082,-2.6225,-2.6366,-2.6555,-2.6776,-2.6725,-2.6674,-2.6554,-2.6346,-2.6134,-2.599,-2.5807,-2.5712,-2.5694,-2.5733,-2.5756,-2.5828,-2.5956,-2.601,-2.601,-2.6046,-2.6082,-2.626,-2.6435,-2.6453,-2.6435,-2.6657,-2.6858,-2.6891,-2.6923,-2.7103,-2.723,-2.7308,-2.734,-2.7446,-2.7567,-2.7615,-2.7615,-2.7632,-2.7677,-2.7736,-2.7748,-2.7777,-2.7868,-2.7961,-2.7986,-2.8011,-2.8081,-2.8119,-3.66,-3.6538,-3.5943,-3.5816,-3.5831,-3.5151,-3.474,-3.4561,-3.4106,-3.3721,-3.3399,-3.2599,-3.2333,-3.2304,-3.1951,-3.1626,-3.1231,-3.0864,-3.0512,-3.0089,-2.9813,-2.9595,-2.9552,-2.8942,-2.871,-2.8709,-2.8389,-2.8057,-2.7666,-2.7418,-2.7099,-2.6794,-2.6794,-2.6761,-2.6571,-2.611,-2.5834,-2.5656,-2.5137,-2.4691,-2.4346,-2.4118,-2.3754,-2.3378,-2.326,-2.326,-2.3275,-2.3392,-2.3538,-2.3689,-2.3882,-2.4183,-2.4528,-2.4609,-2.4806,-2.508,-2.5158,-2.5178,-2.5217,-2.5236,-2.5259,-2.5111,-2.5307,-2.5438,-2.5586,-2.5754,-2.5901,-2.6081,-2.6277,-2.6571,-2.7114,-2.6708,-2.6655,-2.682,-2.639,-2.6059,-2.5897,-2.5728,-2.5597,-2.5616,-2.5637,-2.5659,-2.5696,-2.5752,-2.5844,-2.5917,-2.6079,-2.6115,-2.6063,-2.6207,-2.6155,-2.619,-2.6401,-2.6556,-2.659,-2.6691,-2.6874,-2.7038,-2.7151,-2.7166,-2.7215,-2.734,-2.7461,-2.7463,-2.7448,-2.7542,-2.7602,-2.76,-2.7612,-2.7659,-2.7721,-2.778,-2.7839,-2.7879,-2.7922,-3.6352,-3.6289,-3.5655,-3.5415,-3.5317,-3.4721,-3.4239,-3.3904,-3.3704,-3.338,-3.282,-3.2646,-3.2286,-3.2347,-3.2057,-3.1768,-3.1337,-3.0903,-3.0525,-3.0452,-3.006,-3.0089,-3.0205,-2.9885,-2.9493,-2.9,-2.8869,-2.855,-2.8188,-2.784,-2.7578,-2.707,-2.6953,-2.6972,-2.6975,-2.6547,-2.6199,-2.6216,-2.5689,-2.5173,-2.4701,-2.4354,-2.3766,-2.3094,-2.3167,-2.3094,-2.3154,-2.3354,-2.3555,-2.3341,-2.3547,-2.3943,-2.4297,-2.4647,-2.4822,-2.5127,-2.532,-2.5388,-2.5302,-2.5227,-2.5199,-2.5096,-2.5068,-2.5146,-2.532,-2.5473,-2.5624,-2.5912,-2.6231,-2.69,-2.7665,-2.714,-2.7051,-2.7211,-2.6607,-2.6014,-2.5973,-2.5807,-2.5581,-2.5597,-2.5616,-2.56,-2.56,-2.5637,-2.5731,-2.5826,-2.597,-2.6059,-2.6007,-2.5972,-2.5921,-2.5939,-2.6137,-2.6278,-2.633,-2.6418,-2.6624,-2.6725,-2.6891,-2.6908,-2.6925,-2.7022,-2.7117,-2.726,-2.7308,-2.7388,-2.7434,-2.7481,-2.7463,-2.7463,-2.7494,-2.7554,-2.7615,-2.7674,-2.7701,-3.5608,-3.5497,-3.4528,-3.4124,-3.407,-3.3707,-3.3512,-3.3456,-3.3405,-3.3301,-3.3081,-3.2141,-3.1866,-3.1768,-3.0874,-3.0598,-3.0765,-3.0579,-3.0552,-3.0552,-3.0349,-3.0465,-3.0496,-3.0438,-3.0292,-3.0176,-2.974,-2.9262,-2.9058,-2.8782,-2.8058,-2.7637,-2.7434,-2.7312,-2.6837,-2.644,-2.6287,-2.6342,-2.5892,-2.5462,-2.5053,-2.4382,-2.3679,-2.2993,-2.3299,-2.3351,-2.3279,-2.3891,-2.4177,-2.3467,-2.3828,-2.3956,-2.4137,-2.4611,-2.5106,-2.5435,-2.5924,-2.5946,-2.5728,-2.569,-2.5365,-2.4943,-2.4786,-2.4958,-2.5076,-2.5206,-2.5458,-2.5856,-2.6444,-2.7217,-2.8078,-2.7533,-2.7422,-2.744,-2.6888,-2.6134,-2.6276,-2.5934,-2.5505,-2.5524,-2.5559,-2.5486,-2.5391,-2.5333,-2.5355,-2.5394,-2.547,-2.5584,-2.5621,-2.5661,-2.5719,-2.5791,-2.5864,-2.599,-2.6063,-2.6187,-2.6312,-2.6366,-2.6487,-2.6539,-2.6572,-2.664,-2.6741,-2.6825,-2.7005,-2.7166,-2.7231,-2.7294,-2.7341,-2.7357,-2.734,-2.7324,-2.7355,-2.7384,-2.7491,-3.54,-3.5302,-3.4225,-3.3831,-3.3762,-3.3479,-3.3304,-3.3304,-3.3304,-3.3304,-3.3037,-3.2376,-3.2007,-3.19,-3.1268,-3.0799,-3.0509,-3.0183,-3.0217,-3.028,-3.0341,-3.0462,-3.0582,-3.0612,-3.0612,-3.0421,-2.9981,-2.962,-2.9435,-2.8799,-2.8279,-2.7657,-2.7378,-2.707,-2.6849,-2.6648,-2.6535,-2.6429,-2.627,-2.5918,-2.5428,-2.4514,-2.3522,-2.3135,-2.3366,-2.358,-2.3623,-2.4221,-2.4568,-2.4227,-2.4376,-2.4435,-2.4659,-2.5022,-2.5523,-2.5547,-2.6004,-2.6301,-2.6023,-2.5882,-2.5425,-2.5139,-2.4869,-2.4961,-2.5255,-2.5494,-2.5667,-2.6458,-2.6981,-2.7859,-2.8748,-2.8072,-2.7991,-2.8141,-2.7228,-2.6539,-2.6387,-2.5854,-2.5625,-2.5474,-2.5307,-2.5171,-2.4966,-2.4926,-2.4946,-2.4966,-2.4989,-2.5103,-2.522,-2.5359,-2.5495,-2.5605,-2.568,-2.5807,-2.5899,-2.5972,-2.6043,-2.6082,-2.6119,-2.6155,-2.619,-2.6279,-2.6261,-2.6279,-2.6521,-2.6858,-2.6989,-2.7055,-2.7136,-2.72,-2.7086,-2.7005,-2.7054,-2.7119,-2.7197,-3.5059,-3.4927,-3.3899,-3.3485,-3.343,-3.3199,-3.3072,-3.3072,-3.2988,-3.3002,-3.2989,-3.2396,-3.2053,-3.1895,-3.1345,-3.0777,-3.0249,-2.9757,-2.9741,-2.9943,-3.0036,-3.0205,-3.0401,-3.0477,-3.0417,-3.0403,-2.9919,-2.9675,-2.9604,-2.9057,-2.8412,-2.8081,-2.7471,-2.7115,-2.7043,-2.7173,-2.7028,-2.6837,-2.6898,-2.6579,-2.564,-2.4582,-2.365,-2.3039,-2.3468,-2.365,-2.3712,-2.4327,-2.4577,-2.4443,-2.4505,-2.4679,-2.5135,-2.5639,-2.5695,-2.5454,-2.5878,-2.6267,-2.626,-2.6097,-2.5742,-2.5315,-2.5085,-2.5233,-2.5222,-2.5523,-2.6102,-2.7403,-2.7932,-2.8445,-2.912,-2.8686,-2.8621,-2.8661,-2.777,-2.6642,-2.6582,-2.6226,-2.5703,-2.5461,-2.5159,-2.4972,-2.4851,-2.4609,-2.4645,-2.465,-2.469,-2.4771,-2.489,-2.5107,-2.5246,-2.5397,-2.5527,-2.5659,-2.5752,-2.5791,-2.5826,-2.5791,-2.5811,-2.583,-2.5866,-2.5868,-2.5885,-2.5937,-2.6207,-2.6521,-2.6657,-2.6825,-2.6925,-2.6908,-2.6741,-2.6725,-2.6825,-2.6875,-2.6908,-3.3885,-3.3679,-3.2775,-3.2372,-3.2408,-3.24,-3.235,-3.235,-3.2255,-3.2169,-3.2345,-3.1567,-3.1198,-3.0867,-3.0183,-2.9792,-2.9617,-2.9491,-2.9435,-2.9684,-2.978,-2.9938,-3.0066,-2.996,-3.0083,-3.0099,-2.9623,-2.9749,-2.9706,-2.9424,-2.9155,-2.8737,-2.8512,-2.8526,-2.7462,-2.7609,-2.7702,-2.7045,-2.7167,-2.6782,-2.5726,-2.4922,-2.4513,-2.4191,-2.3894,-2.3674,-2.3837,-2.4286,-2.4382,-2.4038,-2.3918,-2.4231,-2.4786,-2.4917,-2.5428,-2.6051,-2.6758,-2.7165,-2.6784,-2.6494,-2.6062,-2.5565,-2.5569,-2.5506,-2.5412,-2.5493,-2.6335,-2.805,-2.835,-2.8767,-2.9399,-2.9134,-2.9205,-2.8783,-2.7943,-2.7312,-2.7102,-2.6419,-2.5911,-2.5862,-2.5644,-2.5217,-2.4927,-2.4617,-2.4359,-2.4343,-2.438,-2.4477,-2.4609,-2.4835,-2.5314,-2.555,-2.5767,-2.5902,-2.6015,-2.601,-2.5864,-2.5726,-2.5581,-2.5565,-2.5532,-2.557,-2.5645,-2.5754,-2.5994,-2.6173,-2.6331,-2.6487,-2.6657,-2.664,-2.6504,-2.6556,-2.6691,-2.6691,-2.664,-3.3416,-3.3402,-3.2588,-3.2146,-3.2036,-3.2146,-3.2146,-3.2073,-3.2073,-3.2073,-3.1878,-3.1294,-3.0575,-2.9903,-2.9108,-2.9017,-2.9138,-2.9141,-2.9258,-2.9458,-2.9559,-2.9581,-2.9565,-2.9634,-2.9744,-2.9526,-2.9293,-2.9121,-2.9303,-2.9145,-2.8778,-2.8505,-2.8264,-2.7934,-2.7612,-2.7637,-2.7485,-2.7193,-2.6984,-2.6428,-2.5658,-2.5137,-2.4775,-2.4412,-2.4099,-2.4063,-2.4215,-2.418,-2.4407,-2.4269,-2.4234,-2.4238,-2.4669,-2.4829,-2.5072,-2.5232,-2.5647,-2.6258,-2.6971,-2.6573,-2.5928,-2.55,-2.547,-2.5364,-2.562,-2.631,-2.6956,-2.8154,-2.871,-2.9169,-2.9514,-2.9392,-2.9484,-2.9113,-2.8125,-2.7912,-2.7507,-2.6657,-2.6143,-2.6141,-2.614,-2.5774,-2.5253,-2.4603,-2.4359,-2.4277,-2.4359,-2.4441,-2.4518,-2.4614,-2.521,-2.5867,-2.6102,-2.6285,-2.6406,-2.6491,-2.6213,-2.5997,-2.5571,-2.5484,-2.5275,-2.5278,-2.5509,-2.5594,-2.5717,-2.5883,-2.6012,-2.6137,-2.6295,-2.6295,-2.6278,-2.6348,-2.6383,-2.6417,-2.6416,-3.2995,-3.3136,-3.2431,-3.2036,-3.189,-3.2036,-3.2,-3.1927,-3.2013,-3.2,-3.1765,-3.12,-3.0303,-2.9486,-2.9074,-2.9013,-2.9158,-2.9069,-2.9106,-2.9228,-2.9307,-2.9206,-2.9123,-2.918,-2.9149,-2.9004,-2.8766,-2.8656,-2.8584,-2.8443,-2.8296,-2.8066,-2.8054,-2.7734,-2.77,-2.7783,-2.7766,-2.7684,-2.6813,-2.6269,-2.5914,-2.5438,-2.5088,-2.4699,-2.4397,-2.4308,-2.457,-2.4062,-2.41,-2.4287,-2.4309,-2.4355,-2.4773,-2.4861,-2.5137,-2.5253,-2.5354,-2.5533,-2.6174,-2.6124,-2.5518,-2.5178,-2.5113,-2.5235,-2.6369,-2.7413,-2.8054,-2.8198,-2.8631,-2.9057,-2.9341,-2.9393,-2.9438,-2.9131,-2.8479,-2.8323,-2.8076,-2.7312,-2.6799,-2.6823,-2.6805,-2.658,-2.5901,-2.4874,-2.4402,-2.426,-2.4305,-2.4447,-2.4672,-2.4869,-2.5441,-2.6287,-2.6536,-2.6718,-2.683,-2.6817,-2.6568,-2.6377,-2.5951,-2.5787,-2.5803,-2.5648,-2.5703,-2.5712,-2.5634,-2.5586,-2.5719,-2.5828,-2.5936,-2.5992,-2.6028,-2.6008,-2.6026,-2.6114,-2.6203,-3.2453,-3.2453,-3.2059,-3.189,-3.189,-3.1706,-3.1743,-3.1817,-3.172,-3.1743,-3.1663,-3.1078,-3.061,-3.0268,-2.9701,-2.9483,-2.9621,-2.9548,-2.9212,-2.9078,-2.906,-2.8904,-2.8685,-2.8527,-2.8546,-2.8656,-2.8411,-2.8229,-2.8151,-2.8103,-2.8258,-2.8478,-2.8166,-2.8147,-2.8095,-2.803,-2.8064,-2.7766,-2.6778,-2.6494,-2.6378,-2.6024,-2.5516,-2.556,-2.4637,-2.3958,-2.4604,-2.379,-2.344,-2.3722,-2.3842,-2.4132,-2.4507,-2.4522,-2.4833,-2.5139,-2.4665,-2.4817,-2.5213,-2.5399,-2.4943,-2.4574,-2.4593,-2.5131,-2.6301,-2.6204,-2.6795,-2.7978,-2.8328,-2.8622,-2.8928,-2.9213,-2.9213,-2.9035,-2.8612,-2.8437,-2.8269,-2.8104,-2.7643,-2.7585,-2.7411,-2.7179,-2.6699,-2.5661,-2.5023,-2.4903,-2.4762,-2.4927,-2.5523,-2.579,-2.6184,-2.6716,-2.6999,-2.7153,-2.7222,-2.7185,-2.7127,-2.7015,-2.6698,-2.6677,-2.6778,-2.6535,-2.6141,-2.5867,-2.581,-2.5616,-2.5454,-2.5602,-2.5715,-2.5754,-2.5791,-2.5807,-2.5899,-2.6043,-2.6114,-3.2277,-3.2228,-3.1753,-3.1582,-3.1706,-3.1757,-3.1706,-3.1545,-3.1596,-3.1373,-3.1185,-3.0679,-3.0118,-2.965,-2.9654,-2.9319,-2.9039,-2.9285,-2.9031,-2.8728,-2.8615,-2.8371,-2.8107,-2.8085,-2.8151,-2.8085,-2.8013,-2.7914,-2.7736,-2.7769,-2.7769,-2.7921,-2.8072,-2.8076,-2.8032,-2.7841,-2.7765,-2.7544,-2.6758,-2.637,-2.6484,-2.6344,-2.5924,-2.5861,-2.495,-2.4448,-2.4614,-2.3568,-2.3339,-2.3393,-2.3443,-2.3728,-2.3923,-2.3829,-2.4056,-2.4414,-2.3735,-2.3736,-2.409,-2.4476,-2.4742,-2.4752,-2.476,-2.5125,-2.61,-2.6239,-2.671,-2.7419,-2.7795,-2.8091,-2.8391,-2.8653,-2.8756,-2.8778,-2.8681,-2.8467,-2.8365,-2.8257,-2.8114,-2.7852,-2.7834,-2.7765,-2.7161,-2.6514,-2.5977,-2.5568,-2.545,-2.5475,-2.609,-2.6542,-2.6834,-2.7183,-2.7453,-2.7867,-2.7952,-2.7873,-2.7747,-2.7604,-2.7446,-2.7446,-2.7425,-2.7067,-2.6688,-2.6349,-2.5977,-2.5807,-2.565,-2.5509,-2.5489,-2.553,-2.5586,-2.5659,-2.5789,-2.5952,-2.6025,-3.2073,-3.195,-3.1545,-3.1434,-3.1508,-3.1596,-3.1508,-3.136,-3.1434,-3.1286,-3.0861,-3.0627,-3.0163,-2.9619,-2.9699,-2.9617,-2.931,-2.9327,-2.9009,-2.8716,-2.8389,-2.8033,-2.7786,-2.7703,-2.7789,-2.7603,-2.7716,-2.7749,-2.757,-2.7503,-2.757,-2.757,-2.7503,-2.7709,-2.7682,-2.73,-2.7104,-2.7247,-2.6606,-2.6303,-2.6524,-2.6205,-2.5849,-2.5605,-2.4792,-2.4599,-2.4525,-2.3858,-2.3399,-2.3467,-2.3526,-2.3419,-2.3324,-2.3228,-2.3203,-2.3058,-2.2843,-2.2748,-2.3288,-2.3708,-2.4457,-2.4365,-2.4994,-2.5299,-2.5756,-2.6347,-2.6886,-2.6993,-2.728,-2.7534,-2.783,-2.7968,-2.818,-2.8235,-2.8404,-2.828,-2.8397,-2.835,-2.8239,-2.8102,-2.8006,-2.7725,-2.7455,-2.6842,-2.648,-2.6217,-2.6331,-2.6398,-2.6787,-2.7115,-2.723,-2.7604,-2.7945,-2.8388,-2.8786,-2.8518,-2.8318,-2.8372,-2.8214,-2.8025,-2.7898,-2.7583,-2.7367,-2.7142,-2.6741,-2.6175,-2.587,-2.5727,-2.5515,-2.5333,-2.5413,-2.5511,-2.5694,-2.5858,-2.5934,-3.178,-3.1609,-3.1572,-3.1471,-3.1286,-3.1099,-3.1136,-3.1272,-3.1272,-3.1235,-3.1123,-3.0957,-3.083,-3.0651,-3.0557,-3.0304,-2.9797,-2.9774,-2.9405,-2.8603,-2.8229,-2.7968,-2.7719,-2.757,-2.759,-2.7536,-2.757,-2.7603,-2.7503,-2.7503,-2.7503,-2.7503,-2.7469,-2.749,-2.7471,-2.6981,-2.7189,-2.7708,-2.6612,-2.6462,-2.6523,-2.6169,-2.577,-2.5427,-2.4931,-2.4759,-2.4605,-2.4215,-2.3714,-2.352,-2.408,-2.4023,-2.3744,-2.3652,-2.3856,-2.4341,-2.3597,-2.3666,-2.4406,-2.4014,-2.4,-2.4283,-2.5133,-2.5571,-2.5755,-2.6255,-2.6712,-2.675,-2.6893,-2.7034,-2.7174,-2.7287,-2.7555,-2.7775,-2.7933,-2.808,-2.8172,-2.8251,-2.8103,-2.7972,-2.766,-2.7401,-2.7284,-2.7089,-2.6845,-2.6791,-2.7094,-2.7284,-2.743,-2.7479,-2.75,-2.7758,-2.8129,-2.8412,-2.8748,-2.8928,-2.8926,-2.8996,-2.8909,-2.8625,-2.8444,-2.821,-2.8027,-2.7905,-2.7235,-2.6419,-2.6146,-2.595,-2.5576,-2.5213,-2.5317,-2.5416,-2.56,-2.5728,-2.5787,-3.1633,-3.1743,-3.1373,-3.1174,-3.1136,-3.1161,-3.1161,-3.1086,-3.1099,-3.0986,-3.0785,-3.0861,-3.0538,-3.0347,-3.0626,-3.0503,-2.9732,-2.9549,-2.9026,-2.8438,-2.8046,-2.7758,-2.7529,-2.7503,-2.7503,-2.7503,-2.7503,-2.7503,-2.7503,-2.7503,-2.7503,-2.7503,-2.7403,-2.7423,-2.7346,-2.704,-2.7013,-2.7301,-2.6772,-2.6437,-2.6791,-2.6552,-2.6272,-2.597,-2.5384,-2.5076,-2.4994,-2.4531,-2.4047,-2.3825,-2.4374,-2.4156,-2.3831,-2.3703,-2.3716,-2.3875,-2.3212,-2.3293,-2.3765,-2.3814,-2.445,-2.4908,-2.5337,-2.5675,-2.5704,-2.6129,-2.6373,-2.6459,-2.6578,-2.6669,-2.6733,-2.6837,-2.706,-2.7291,-2.7455,-2.763,-2.775,-2.7849,-2.7815,-2.772,-2.7488,-2.7222,-2.7067,-2.7041,-2.6872,-2.685,-2.7063,-2.7251,-2.7373,-2.7439,-2.749,-2.7779,-2.811,-2.8367,-2.8605,-2.8795,-2.8936,-2.8974,-2.902,-2.8988,-2.8831,-2.8652,-2.84,-2.8115,-2.7388,-2.6663,-2.622,-2.5787,-2.5381,-2.5132,-2.5201,-2.5301,-2.5416,-2.5527,-2.5567,-3.179,-3.19,-3.1421,-3.1198,-3.1198,-3.1198,-3.1136,-3.1024,-3.0986,-3.0836,-3.0723,-3.0898,-3.0704,-3.041,-3.0574,-3.0555,-2.9601,-2.934,-2.8961,-2.836,-2.7764,-2.7568,-2.7503,-2.7516,-2.7503,-2.7503,-2.7503,-2.7503,-2.7403,-2.7436,-2.7369,-2.7268,-2.7248,-2.7248,-2.7185,-2.7017,-2.6939,-2.7072,-2.6729,-2.6471,-2.6583,-2.6504,-2.6435,-2.6109,-2.5782,-2.5523,-2.5335,-2.4912,-2.44,-2.4347,-2.4194,-2.4026,-2.383,-2.3627,-2.3524,-2.3339,-2.3459,-2.3648,-2.4108,-2.438,-2.5003,-2.5431,-2.5659,-2.5726,-2.5795,-2.614,-2.6122,-2.6152,-2.6231,-2.6204,-2.6204,-2.6338,-2.6551,-2.6774,-2.6982,-2.7148,-2.7265,-2.7367,-2.7352,-2.7265,-2.7284,-2.7026,-2.691,-2.6884,-2.6826,-2.6878,-2.7,-2.717,-2.7299,-2.735,-2.7427,-2.7655,-2.7905,-2.8113,-2.8365,-2.8629,-2.8787,-2.8905,-2.8975,-2.9021,-2.8967,-2.8716,-2.852,-2.8285,-2.7637,-2.6933,-2.6131,-2.5618,-2.5207,-2.5037,-2.5064,-2.5166,-2.5266,-2.5362,-2.5454,-3.2273,-3.2092,-3.174,-3.1556,-3.1519,-3.1161,-3.1024,-3.1024,-3.1024,-3.0986,-3.0986,-3.0986,-3.0884,-3.0947,-3.0986,-3.0649,-3.0012,-2.9539,-2.9034,-2.8447,-2.7944,-2.773,-2.7587,-2.76,-2.7574,-2.7509,-2.7469,-2.7369,-2.7315,-2.7281,-2.718,-2.7079,-2.7045,-2.7011,-2.6973,-2.6947,-2.6888,-2.6867,-2.6675,-2.6414,-2.6348,-2.6155,-2.6097,-2.5918,-2.5803,-2.5743,-2.5546,-2.5201,-2.4883,-2.4661,-2.4374,-2.4217,-2.4029,-2.3819,-2.3678,-2.3779,-2.4108,-2.4449,-2.4927,-2.5105,-2.5231,-2.5481,-2.5786,-2.5936,-2.5946,-2.5905,-2.5797,-2.5716,-2.5757,-2.5661,-2.5619,-2.5825,-2.6029,-2.6258,-2.651,-2.6657,-2.6777,-2.6788,-2.6747,-2.6762,-2.687,-2.6832,-2.6951,-2.6925,-2.6806,-2.6832,-2.691,-2.6963,-2.7119,-2.717,-2.7273,-2.7386,-2.7615,-2.7806,-2.8063,-2.8293,-2.8422,-2.8494,-2.8787,-2.8881,-2.8842,-2.8732,-2.8545,-2.8233,-2.7875,-2.7117,-2.5853,-2.5264,-2.5041,-2.497,-2.5025,-2.5068,-2.5204,-2.5317,-2.5375,-3.2092,-3.2453,-3.185,-3.1593,-3.1519,-3.1161,-3.1024,-3.1024,-3.1024,-3.1024,-3.1024,-3.1024,-3.0986,-3.0986,-3.0836,-3.0681,-3.0203,-2.9684,-2.9329,-2.8799,-2.8174,-2.8002,-2.7893,-2.7803,-2.7673,-2.7486,-2.7335,-2.7248,-2.7113,-2.7092,-2.7079,-2.7024,-2.6875,-2.6794,-2.6773,-2.6705,-2.6739,-2.6693,-2.6464,-2.6271,-2.603,-2.5858,-2.5897,-2.6115,-2.5957,-2.5942,-2.5759,-2.5328,-2.4949,-2.4413,-2.4243,-2.423,-2.4704,-2.4305,-2.4045,-2.4508,-2.448,-2.4419,-2.4983,-2.5103,-2.5221,-2.5491,-2.5853,-2.5745,-2.5643,-2.5508,-2.5424,-2.5341,-2.5328,-2.53,-2.53,-2.5439,-2.5633,-2.588,-2.6084,-2.6245,-2.6395,-2.6535,-2.6494,-2.6642,-2.6724,-2.6779,-2.6899,-2.6858,-2.6753,-2.6779,-2.6806,-2.6858,-2.6937,-2.7041,-2.7119,-2.7248,-2.7335,-2.7529,-2.764,-2.7875,-2.7984,-2.8091,-2.8398,-2.8621,-2.8525,-2.8438,-2.8429,-2.8057,-2.7465,-2.6406,-2.5165,-2.4867,-2.493,-2.4958,-2.5005,-2.5064,-2.5107,-2.5201,-2.5182,-3.2538,-3.2789,-3.2105,-3.1629,-3.1347,-3.1099,-3.1024,-3.1024,-3.1024,-3.1024,-3.1024,-3.1024,-3.0949,-3.0874,-3.0773,-3.0621,-3.0468,-2.967,-2.9209,-2.8836,-2.8425,-2.7893,-2.7726,-2.7687,-2.7417,-2.7258,-2.7146,-2.7079,-2.6909,-2.6807,-2.6773,-2.6773,-2.6658,-2.6658,-2.6589,-2.6555,-2.6568,-2.6468,-2.6303,-2.6098,-2.5889,-2.5711,-2.6032,-2.6323,-2.6166,-2.6145,-2.6015,-2.5519,-2.5027,-2.4478,-2.4334,-2.4298,-2.4745,-2.4581,-2.462,-2.5031,-2.5036,-2.5031,-2.5341,-2.538,-2.5424,-2.5608,-2.5893,-2.5807,-2.569,-2.5556,-2.5245,-2.4959,-2.4975,-2.4991,-2.5033,-2.5103,-2.5285,-2.5522,-2.5674,-2.5853,-2.6075,-2.6298,-2.6477,-2.6669,-2.6703,-2.6732,-2.6727,-2.6712,-2.6712,-2.6753,-2.6753,-2.6738,-2.6832,-2.6977,-2.7029,-2.7107,-2.7144,-2.7222,-2.7361,-2.7514,-2.761,-2.777,-2.8018,-2.8155,-2.8122,-2.8027,-2.7893,-2.7434,-2.6879,-2.5917,-2.5016,-2.491,-2.4905,-2.492,-2.4886,-2.4851,-2.489,-2.495,-2.491,-3.3241,-3.3206,-3.2431,-3.1666,-3.1061,-3.1024,-3.1024,-3.1024,-3.1024,-3.1024,-3.1024,-3.0986,-3.0874,-3.0736,-3.0622,-3.0495,-3.0252,-2.9665,-2.9257,-2.8794,-2.8462,-2.7975,-2.7566,-2.7156,-2.731,-2.7131,-2.6943,-2.6863,-2.6692,-2.6624,-2.6568,-2.6487,-2.6521,-2.6521,-2.6521,-2.6487,-2.6521,-2.6467,-2.6185,-2.5892,-2.5766,-2.5698,-2.5729,-2.6188,-2.6375,-2.6518,-2.6316,-2.5952,-2.5488,-2.4927,-2.4407,-2.4128,-2.4428,-2.4975,-2.5192,-2.5243,-2.5292,-2.5419,-2.5528,-2.5606,-2.5688,-2.5808,-2.5866,-2.5973,-2.5999,-2.5578,-2.5141,-2.4845,-2.482,-2.482,-2.4876,-2.513,-2.5371,-2.5764,-2.6102,-2.6357,-2.6638,-2.6694,-2.6593,-2.6659,-2.6551,-2.6568,-2.6645,-2.6618,-2.6539,-2.6633,-2.6645,-2.6592,-2.6712,-2.6858,-2.6951,-2.7003,-2.7003,-2.7041,-2.717,-2.7284,-2.7335,-2.7499,-2.767,-2.7745,-2.7725,-2.7545,-2.731,-2.6892,-2.6467,-2.5913,-2.528,-2.505,-2.4839,-2.472,-2.469,-2.463,-2.467,-2.4751,-2.4609,-3.3051,-3.3206,-3.2417,-3.1666,-3.1061,-3.1024,-3.0986,-3.1024,-3.1024,-3.0986,-3.0986,-3.0836,-3.0736,-3.066,-3.0381,-3.0228,-3.0063,-2.9707,-2.9454,-2.9264,-2.8921,-2.827,-2.803,-2.77,-2.7459,-2.6976,-2.6726,-2.6692,-2.6589,-2.6521,-2.6487,-2.6487,-2.6487,-2.6487,-2.6418,-2.6452,-2.6487,-2.6393,-2.6194,-2.5795,-2.5556,-2.5435,-2.5422,-2.5614,-2.5819,-2.5896,-2.571,-2.5397,-2.4987,-2.4518,-2.3742,-2.3642,-2.4022,-2.5005,-2.5471,-2.5471,-2.5317,-2.5478,-2.5663,-2.5797,-2.585,-2.6121,-2.6297,-2.6492,-2.6315,-2.5638,-2.5163,-2.4896,-2.4708,-2.4721,-2.4873,-2.5215,-2.5558,-2.6079,-2.6507,-2.6841,-2.72,-2.706,-2.6806,-2.6677,-2.6515,-2.6451,-2.657,-2.6472,-2.6392,-2.6392,-2.6392,-2.6418,-2.6566,-2.6712,-2.6858,-2.691,-2.6899,-2.691,-2.7015,-2.7067,-2.7104,-2.713,-2.7269,-2.7321,-2.7346,-2.7261,-2.7092,-2.6583,-2.6091,-2.5726,-2.5383,-2.4972,-2.4761,-2.458,-2.4533,-2.4513,-2.4487,-2.4528,-2.4343,-3.3086,-3.3171,-3.2417,-3.1666,-3.1099,-3.1024,-3.0949,-3.0874,-3.0874,-3.0798,-3.0761,-3.0685,-3.0622,-3.047,-3.019,-2.9998,-2.9922,-2.9669,-2.9378,-2.9303,-2.9164,-2.8508,-2.823,-2.7963,-2.7296,-2.6754,-2.6627,-2.6568,-2.6487,-2.6487,-2.6487,-2.6487,-2.6487,-2.6418,-2.6327,-2.6361,-2.6396,-2.6233,-2.6135,-2.5965,-2.5582,-2.5403,-2.5351,-2.5432,-2.5499,-2.5504,-2.5368,-2.5167,-2.4917,-2.4658,-2.421,-2.4176,-2.4615,-2.5294,-2.5667,-2.5735,-2.5652,-2.5628,-2.5807,-2.5916,-2.5937,-2.6278,-2.6422,-2.6501,-2.6723,-2.6096,-2.5649,-2.5344,-2.4904,-2.4869,-2.5232,-2.5598,-2.5838,-2.6227,-2.6367,-2.6569,-2.7139,-2.7468,-2.7554,-2.7766,-2.7357,-2.6717,-2.6686,-2.6372,-2.6331,-2.6299,-2.6285,-2.619,-2.6338,-2.6338,-2.6566,-2.6738,-2.6674,-2.6753,-2.6884,-2.6884,-2.6884,-2.691,-2.6963,-2.6989,-2.7052,-2.7026,-2.6868,-2.6473,-2.6161,-2.5923,-2.5538,-2.5029,-2.458,-2.4349,-2.4364,-2.439,-2.4385,-2.4323,-2.4156,-3.3206,-3.3016,-3.2227,-3.1526,-3.0973,-3.0949,-3.0784,-3.0594,-3.0621,-3.0469,-3.0278,-3.0482,-3.0381,-3.019,-3.0037,-2.9934,-2.9819,-2.9743,-2.944,-2.9227,-2.9013,-2.8473,-2.7907,-2.7404,-2.6977,-2.6722,-2.6546,-2.6521,-2.6487,-2.6487,-2.6487,-2.6487,-2.6418,-2.6327,-2.6188,-2.6245,-2.6396,-2.6292,-2.6221,-2.6253,-2.5932,-2.5554,-2.5459,-2.5477,-2.5515,-2.5427,-2.5246,-2.5123,-2.4942,-2.4921,-2.4751,-2.4762,-2.4866,-2.5303,-2.5548,-2.5703,-2.5805,-2.5884,-2.6064,-2.6005,-2.6133,-2.6264,-2.6324,-2.6433,-2.6671,-2.6501,-2.6065,-2.5888,-2.5467,-2.5301,-2.5707,-2.5973,-2.6192,-2.6552,-2.661,-2.664,-2.7298,-2.7873,-2.8197,-2.8521,-2.7818,-2.706,-2.6708,-2.6399,-2.6187,-2.6198,-2.6085,-2.6056,-2.5988,-2.5865,-2.5892,-2.6177,-2.6299,-2.6447,-2.6753,-2.682,-2.6794,-2.6806,-2.6858,-2.6806,-2.6806,-2.6858,-2.6797,-2.6567,-2.6258,-2.5906,-2.5521,-2.5018,-2.4605,-2.4191,-2.446,-2.4541,-2.4177,-2.4114,-2.3973,-3.2824,-3.2024,-3.1267,-3.0787,-3.0532,-3.0685,-3.0364,-2.9855,-3.0252,-3.01,-2.9732,-2.9974,-3.0113,-3.0075,-2.9934,-2.983,-2.9818,-2.9779,-2.9779,-2.9628,-2.9101,-2.8511,-2.7896,-2.7291,-2.6964,-2.6688,-2.6487,-2.6487,-2.6487,-2.6487,-2.6487,-2.6487,-2.6452,-2.6418,-2.6418,-2.6418,-2.6349,-2.628,-2.6327,-2.6339,-2.6292,-2.5877,-2.5388,-2.5303,-2.5204,-2.4898,-2.464,-2.4564,-2.4662,-2.4794,-2.499,-2.4957,-2.5018,-2.521,-2.5428,-2.5535,-2.5629,-2.5664,-2.5699,-2.5687,-2.5769,-2.5955,-2.606,-2.6255,-2.6388,-2.6458,-2.6354,-2.6759,-2.6413,-2.6125,-2.6334,-2.6478,-2.6703,-2.741,-2.7737,-2.7763,-2.8055,-2.8254,-2.8414,-2.8154,-2.7605,-2.7067,-2.6688,-2.6306,-2.584,-2.572,-2.5364,-2.531,-2.5286,-2.5245,-2.5245,-2.5536,-2.5866,-2.642,-2.682,-2.682,-2.6794,-2.6794,-2.6779,-2.6779,-2.6779,-2.6779,-2.6678,-2.6518,-2.6108,-2.5675,-2.5292,-2.512,-2.4593,-2.4289,-2.4675,-2.4761,-2.4271,-2.3925,-2.3782]},{"header":{"parameterUnit":"m.s-1","parameterCategory":1,"la1":31.0,"la2":29.5877,"lo1":-88.7671,"lo2":-86.6584,"dy":0.0162,"dx":0.0185,"nx":115,"ny":88,"refTime":"2024-05-03T06:00:00:Z","depth":0,"parameterNumber":3,"parameterNumberName":"V-component_of_WINDS"},"data":[0.0,0.0,0.0,0.0,0.0,0.0,0.0,0.0,0.0,0.0,0.0,0.0,0.0,0.0,0.0,0.0,0.0,0.0,0.0,0.0,0.0,0.0,0.0,0.0,0.0,0.0,0.0,0.0,0.0,0.0,0.0,0.0,0.0,0.0,0.0,0.0,0.0,0.0,0.0,0.0,0.0,0.0,0.0,0.0,0.0,0.0,0.0,0.0,0.0,0.0,0.0,0.0,0.0,0.0,0.0,0.0,0.0,0.0,0.0,0.0,0.0,0.0,0.0,0.0,0.0,0.0,0.0,0.0,0.0,0.0,0.0,0.0,0.0,0.0,0.0,0.0,0.0,0.0,0.0,0.0,0.0,0.0,0.0,0.0,0.0,0.0,0.0,0.0,0.0,0.0,0.0,0.0,0.0,0.0,0.0,0.0,0.0,0.0,0.0,0.0,0.0,0.0,0.0,0.0,0.0,0.0,0.0,0.0,0.0,0.0,0.0,0.0,0.0,0.0,0.0,0.0,0.0,0.0,0.0,0.0,0.0,0.0,0.0,0.0,0.0,0.0,0.0,0.0,0.0,0.0,0.0,0.0,0.0,0.0,0.0,0.0,0.0,0.0,0.0,0.0,0.0,0.0,0.0,0.0,0.0,0.0,0.0,0.0,0.0,0.0,0.0,0.0,0.0,0.0,0.0,0.0,0.0,0.0,0.0,0.0,0.0,0.0,0.0,0.0,0.0,0.0,0.0,0.0,0.0,0.0,0.0,0.0,0.0,0.0,0.0,0.0,0.0,0.0,0.0,0.0,0.0,0.0,0.0,0.0,0.0,0.0,0.0,0.0,0.0,0.0,0.0,0.0,0.0,0.0,0.0,0.0,0.0,0.0,0.0,0.0,0.0,0.0,0.0,0.0,0.0,0.0,0.0,0.0,0.0,0.0,0.0,0.0,0.0,0.0,0.0,0.0,0.0,0.0,0.0,0.0,0.0,0.0,0.0,0.0,0.0,0.0,0.0,0.0,0.0,0.0,0.0,0.0,0.0,0.0,0.0,0.0,0.0,0.0,0.0,0.0,0.0,0.0,0.0,0.0,0.0,0.0,0.0,0.0,0.0,0.0,0.0,0.0,0.0,0.0,0.0,0.0,0.0,0.0,0.0,0.0,0.0,0.0,0.0,0.0,0.0,0.0,0.0,0.0,0.0,0.0,0.0,0.0,0.0,0.0,0.0,0.0,0.0,0.0,0.0,0.0,0.0,0.0,0.0,0.0,0.0,0.0,0.0,0.0,0.0,0.0,0.0,0.0,0.0,0.0,0.0,0.0,0.0,0.0,0.0,0.0,0.0,0.0,0.0,0.0,0.0,0.0,0.0,0.0,0.0,0.0,0.0,0.0,0.0,0.0,0.0,0.0,0.0,0.0,0.0,0.0,0.0,0.0,0.0,0.0,0.0,0.0,0.0,0.0,0.0,0.0,0.0,0.0,0.0,0.0,0.0,0.0,0.0,0.0,0.0,0.0,0.0,0.0,0.0,0.0,0.0,0.0,0.0,0.0,0.0,0.0,0.0,0.0,0.0,0.0,0.0,0.0,0.0,0.0,0.0,0.0,0.0,0.0,0.0,0.0,0.0,0.0,0.0,0.0,0.0,0.0,0.0,0.0,0.0,0.0,0.0,0.0,0.0,0.0,0.0,0.0,0.0,0.0,0.0,0.0,0.0,0.0,0.0,0.0,0.0,0.0,0.0,0.0,0.0,0.0,0.0,0.0,0.0,0.0,0.0,0.0,0.0,0.0,0.0,0.0,0.0,0.0,0.0,0.0,0.0,0.0,0.0,0.0,0.0,0.0,0.0,0.0,0.0,0.0,0.0,0.0,0.0,0.0,0.0,0.0,0.0,0.0,0.0,0.0,0.0,0.0,0.0,0.0,0.0,0.0,0.0,0.0,0.0,0.0,0.0,0.0,0.0,0.0,0.0,0.0,0.0,0.0,0.0,0.0,0.0,0.0,0.0,0.0,0.0,0.0,0.0,0.0,0.0,0.0,0.0,0.0,0.0,0.0,0.0,0.0,0.0,0.0,0.0,0.0,0.0,0.0,0.0,0.0,0.0,0.0,0.0,0.0,0.0,0.0,0.0,0.0,0.0,0.0,0.0,0.0,0.0,0.0,0.0,0.0,0.0,0.0,0.0,0.0,0.0,0.0,0.0,0.0,0.0,0.0,0.0,0.0,0.0,0.0,0.0,0.0,0.0,0.0,0.0,0.0,0.0,0.0,0.0,0.0,0.0,0.0,0.0,0.0,0.0,0.0,0.0,0.0,0.0,0.0,0.0,0.0,0.0,0.0,0.0,0.0,0.0,0.0,0.0,0.0,0.0,0.0,0.0,0.0,0.0,0.0,0.0,0.0,0.0,0.0,0.0,0.0,0.0,0.0,0.0,0.0,0.0,0.0,0.0,0.0,0.0,0.0,0.0,0.0,0.0,0.0,0.0,0.0,0.0,0.0,0.0,0.0,0.0,0.0,0.0,0.0,0.0,0.0,0.0,0.0,0.0,0.0,0.0,0.0,0.0,0.0,0.0,0.0,0.0,0.0,0.0,0.0,0.0,0.0,0.0,0.0,0.0,0.0,0.0,0.0,0.0,0.0,0.0,0.0,0.0,0.0,0.0,0.0,0.0,0.0,0.0,0.0,0.0,0.0,0.0,0.0,0.0,0.0,0.0,0.0,0.0,0.0,0.0,0.0,0.0,0.0,0.0,0.0,0.0,0.0,0.0,0.0,0.0,0.0,0.0,0.0,0.0,0.0,0.0,0.0,0.0,0.0,0.0,0.0,0.0,0.0,0.0,0.0,0.0,0.0,0.0,0.0,0.0,0.0,0.0,0.0,0.0,0.0,0.0,0.0,0.0,0.0,0.0,0.0,0.0,0.0,0.0,0.0,0.0,0.0,0.0,0.0,0.0,0.0,0.0,0.0,0.0,0.0,0.0,0.0,0.0,0.0,0.0,0.0,0.0,0.0,0.0,0.0,0.0,0.0,0.0,0.0,0.0,0.0,0.0,0.0,0.0,0.0,0.0,0.0,0.0,0.0,0.0,0.0,0.0,0.0,0.0,0.0,0.0,0.0,0.0,0.0,0.0,0.0,0.0,0.0,0.0,0.0,0.0,0.0,0.0,0.0,0.0,0.0,0.0,0.0,0.0,0.0,0.0,0.0,0.0,0.0,0.0,0.0,0.0,0.0,0.0,0.0,0.0,0.0,0.0,0.0,0.0,0.0,0.0,0.0,0.0,0.0,0.0,0.0,0.0,0.0,0.0,0.0,0.0,0.0,0.0,0.0,0.0,0.0,0.0,0.0,0.0,0.0,0.0,0.0,0.0,0.0,0.0,0.0,0.0,0.0,0.0,0.0,0.0,0.0,0.0,0.0,0.0,0.0,0.0,0.0,0.0,0.0,0.0,0.0,0.0,0.0,0.0,0.0,0.0,0.0,0.0,0.0,0.0,0.0,0.0,0.0,0.0,0.0,0.0,0.0,0.0,0.0,0.0,0.0,0.0,0.0,0.0,0.0,0.0,0.0,0.0,0.0,0.0,0.0,0.0,0.0,0.0,0.0,0.0,0.0,0.0,0.0,0.0,0.0,0.0,0.0,0.0,0.0,0.0,0.0,0.0,0.0,0.0,0.0,0.0,0.0,0.0,0.0,0.0,0.0,0.0,0.0,0.0,0.0,0.0,0.0,0.0,0.0,0.0,0.0,0.0,0.0,0.0,0.0,0.0,0.0,0.0,0.0,0.0,0.0,0.0,0.0,0.0,0.0,0.0,0.0,0.0,0.0,0.0,0.0,0.0,0.0,0.0,0.0,0.0,0.0,0.0,0.0,0.0,0.0,0.0,0.0,0.0,0.0,0.0,0.0,0.0,0.0,0.0,0.0,0.0,0.0,0.0,0.0,0.0,0.0,0.0,0.0,0.0,0.0,0.0,0.0,0.0,0.0,0.0,0.0,0.0,0.0,0.0,0.0,0.0,0.0,0.0,0.0,0.0,0.0,0.0,0.0,0.0,0.0,0.0,0.0,0.0,0.0,0.0,0.0,0.0,0.0,0.0,0.0,0.0,0.0,0.0,0.0,0.0,0.0,0.0,0.0,0.0,0.0,0.0,0.0,0.0,0.0,0.0,0.0,0.0,0.0,0.0,0.0,0.0,0.0,0.0,0.0,0.0,0.0,0.0,0.0,0.0,0.0,0.0,0.0,0.0,0.0,0.0,0.0,0.0,0.0,0.0,0.0,0.0,0.0,0.0697,0.0,0.0,0.0,0.0,0.0,0.0,0.0,0.0,0.0,0.0,0.0,0.0,0.0,0.0,0.0,0.0,0.0,0.0,0.0,0.0,0.0,0.0,0.0,0.0,0.0,0.0,0.0,0.0,0.0,0.0,0.0,0.0,0.0,0.0,0.0,0.0,0.0,0.0,0.0,0.0,0.0,0.0,0.0,0.0,0.0,0.0,0.0,0.0,0.0,0.0,0.0,0.0,0.0,0.0,0.0,0.0,0.0,0.0,0.0,0.0,0.0,0.0,0.0,0.0,0.0,0.0,0.0,0.0,0.0,0.0,0.0,0.0,0.0,0.0,0.0,0.0,0.0,0.0,0.0,0.0,0.0,0.0,0.0,0.0,0.0,0.0,0.0,0.0,0.0,0.0,0.0,0.0,0.0,0.0,0.0,0.0,0.0,0.0,0.0,0.0,0.0,0.0,0.0,0.0,0.0,0.0,0.0,0.0,0.0,0.0,0.1479,0.1382,0.1192,0.114,0.1189,0.0,0.0,0.0,0.0,0.0,0.0,0.0,0.0,0.0,0.0,0.0,0.0,0.0,0.0,0.0,0.0,0.0,0.0,0.0,0.0,0.0,0.0,0.0,0.0,0.0,0.0,0.0,0.0,0.0,0.0,0.0,0.0,0.0,0.0,0.0,0.0,0.0,0.0,0.0,0.0,0.0,0.0,0.0,0.0,0.0,0.0,0.0,0.0,0.0,0.0,0.0,0.0,0.0,0.0,0.0,0.0,0.0,0.0,0.0,0.0,0.0,0.0,0.0,0.0,0.0,0.0,0.0,0.0,0.0,0.0,0.0,0.0,0.0,0.0,0.0,0.0,0.0,0.0,0.0,0.0,0.0,0.0,0.0,0.0,0.0,0.0,0.0,0.0,0.0,0.0,0.0,0.0,0.0,0.0,0.0,0.0,0.0,0.0,0.0,0.0,0.0,0.0,0.0,0.0,0.0,0.0,0.0,0.0,0.0,0.0,0.0,0.0,0.129,0.1318,0.1528,0.0,0.0,0.0,0.0,0.0,0.0,0.0,0.0,0.0,0.0,0.0,0.0,0.0,0.0,0.0,0.0,0.0,0.0,0.0,0.0,0.0,0.0,0.0,0.0,0.0,0.0,0.0,0.0,0.0,0.0,0.0,0.0,0.0,0.0,0.0,0.0,0.0,0.0,0.0,0.0,0.0,0.0,0.0,0.0,0.0,0.0,0.0,0.0,0.0,0.0,0.0,0.0,0.0,0.0,0.0,0.0,0.0,0.0,0.0,0.0,0.0,0.0,0.0,0.0,0.0,0.0,0.0,0.0,0.0,0.0,0.0,0.0,0.0,0.0,0.0,0.0,0.0,0.0,0.0,0.0,0.0,0.0,0.0,0.0,0.0,0.0,0.0,0.0,0.0,0.0,0.0,0.0,0.0,0.0,0.0,0.0,0.0,0.0,0.0,0.0,0.0,0.0,0.0,0.0,0.0,0.0,0.0,0.0,0.0,0.0,0.171,0.1412,0.1443,0.0,0.1408,0.0,0.0,0.0,0.0,0.0,0.0,0.0,0.0,0.0,0.0,0.0,0.0,0.0,0.0,0.0,0.0,0.0,0.0,0.0,0.0,0.0,0.0,0.0,0.0,0.0,0.0,0.0,0.0,0.0,0.0,0.0,0.0,0.0,0.0,0.0,0.0,0.0,0.0,0.0,0.0,0.0,0.0,0.0,0.0,0.0,0.0,0.0,0.0,0.0,0.0,0.0,0.0,0.0,0.0,0.0,0.0,0.0,0.0,0.0,0.0,0.0,0.0,0.0,0.0,0.0,0.0,0.0,0.0,0.0,0.0,0.0,0.0,0.0,0.0,0.0,0.0,0.0,0.0,0.0,0.0,0.0,0.0,0.0,0.0,0.0,0.0,0.0,0.0,0.0,0.0,0.0,0.0,0.0,0.0,0.0,0.0,0.0,0.0,0.0,0.0,0.0,0.0,0.0,0.0,0.0,0.0,0.0,0.0,0.0,0.0,0.2384,0.2054,0.2075,0.1892,0.0,0.0,0.0,0.0,0.0,0.0,0.0,0.0,0.0,0.0,0.0,0.0,0.0,0.0,0.0,0.0,0.0,0.0,0.0,0.0,0.0,0.0,0.0,0.0,0.0,0.0,0.0,0.0,0.0,0.0,0.0,0.0,0.0,0.0,0.0,0.0,0.0,0.0,0.0,0.0,0.0,0.0,0.0,0.0,0.0,0.0,0.0,0.0,0.0,0.0,0.0,0.0,0.0,0.0,0.0,0.0,0.0,0.0,0.0,0.0,0.0,0.0,0.0,0.0,0.0,0.0,0.0,0.0,0.0,0.0,0.0,0.0,0.0,0.0,0.0,0.0,0.0,0.0,0.0,0.0,0.0,0.0,0.0,0.0,0.0,0.0,0.0,0.0,0.0,0.0,0.0,0.0,0.0,0.0,0.0,0.0,0.0,0.0,0.0,0.0,0.0,0.0,0.0,0.0,0.0,0.0,0.0,0.0,0.0,0.0,0.3089,0.2955,0.2625,0.2457,0.2099,0.1528,0.0,0.0,0.0,0.0,0.0,0.0,0.0,0.0,0.0,0.0,0.0,0.0,0.0,0.0,0.0,0.0,0.0,0.0,0.0,0.0,0.0,0.0,0.0,0.0,0.0,0.0,0.0,0.0,0.0,0.0,0.0,0.0,0.0,0.0,0.0,0.0,0.0,0.0,0.0,0.0,0.0,0.0,0.0,0.0,0.0,0.0,0.0,0.0,0.0,0.0,0.0,0.0,0.0,0.0,0.0,0.0,0.0,0.0,0.0,0.0,0.0,0.0,0.0,0.0,0.0,0.0,0.0,0.0,0.0,0.0,0.0,0.0,0.0,0.0,0.0,0.0,0.0,0.0,0.0,0.0,0.0,0.0,0.0,0.0,0.0,0.0,0.0,0.0,0.0,0.0,0.0,0.0,0.0,0.0,0.0,0.0,0.0,0.0,0.0,0.0,0.0,0.0,0.0,0.0,0.0,0.0,0.0,0.0,0.3623,0.347,0.3232,0.2882,0.2379,0.1917,0.0,0.0,0.0,0.0,0.0,0.0,0.0,0.0,0.0,0.0,0.0,0.0,0.0,0.0,0.0,0.0,0.0,0.0,0.0,0.0,0.0,0.0,0.0,0.0,0.0,0.0,0.0,0.0,0.0,0.0,0.0,0.0,0.0,0.0,0.0,0.0,0.0,0.0,0.0,0.0,0.0,0.0,0.0,0.0,0.0,0.0,0.0,0.0,0.0,0.0,0.0,0.0,0.0,0.0,0.0,0.0,0.0,0.0,0.0,0.0,0.0,0.0,0.0,0.0,0.0,0.0,0.0,0.0,0.0,0.0,0.0,0.0,0.0,0.0,0.0,0.0,0.0,0.0,0.0,0.0,0.0,0.0,0.0,0.0,0.0,0.0,0.0,0.0,0.0,0.0,0.0,0.0,0.0,0.0,0.0,0.0,0.0,0.0,0.0,0.0,0.0,0.0,0.0,0.0,0.0,0.0,0.0,0.0,0.0,0.3669,0.3418,0.3179,0.3025,0.2588,0.2134,0.0,0.0,0.0,0.0,0.0,0.0,0.0,0.0,0.0,0.0,0.0,0.0,0.0,0.0,0.0,0.0,0.0,0.0,0.0,0.0,0.0,0.0,0.0,0.0,0.0,0.0,0.0,0.0,0.0,0.0,0.0,0.0,0.0,0.0,0.0,0.0,0.0,0.0,0.0,0.0,0.0,0.0,0.0,0.0,0.0,0.0,0.0,0.0,0.0,0.0,0.0,0.0,0.0,0.0,0.0,0.0,0.0,0.0,0.0,0.0,0.0,0.0,0.0,0.0,0.0,0.0,0.0,0.0,0.0,0.0,0.0,0.0,0.0,0.0,0.0,0.0,0.0,0.0,0.0,0.0,0.0,0.0,0.0,0.0,0.0,0.0,0.0,0.0,0.0,0.0,0.0,0.0,0.0,0.0,0.0,0.0,0.0,0.0,0.0,0.0,0.0,0.0,0.0,0.0,0.0,0.0,0.0,0.0,0.0,0.3699,0.0,0.3232,0.3062,0.2646,0.22,0.0,0.0,0.0,0.0,0.0,0.0,0.0,0.0,0.0,0.0,0.0,0.0,0.0,0.0,0.0,0.0,0.0,0.0,0.0,0.0,0.0,0.0,0.0,0.0,0.0,0.0,0.0,0.0,0.0,0.0,0.0,0.0,0.0,0.0,0.0,0.0,0.0,0.0,0.0,0.0,0.0,0.0,0.0,0.0,0.0,0.0,0.0,0.0,0.0,0.0,0.0,0.0,0.0,0.0,0.0,0.0,0.0,0.0,0.0,0.0,0.0,0.0,0.0,0.0,0.0,0.0,0.0,0.0,0.0,0.0,0.0,0.0,0.0,0.0,0.0,0.0,0.0,0.0,0.0,0.0,0.0,0.0,0.0,0.0,0.0,0.0,0.0,0.0,0.0,0.0,0.0,0.0,0.0,0.0,0.0,0.0,0.0,0.0,0.0,0.0,0.0,0.0,0.0,0.0,0.0,0.0,0.0,0.0,0.3579,0.3686,0.3595,0.3387,0.3016,0.2569,0.2137,0.0,0.0,0.0,0.0,0.0,0.0,0.0,0.0,0.0,0.0,0.0,0.0,0.0,0.0,0.0,0.0,0.0,0.0,0.0,0.0,0.0,0.0,0.0,0.0,0.0,0.0,0.0,0.0,0.0,0.0,0.0,0.0,0.0,0.0,0.0,0.0,0.0,0.0,0.0,0.0,0.0,0.0,0.0,0.0,0.0,0.0,0.0,0.0,0.0,0.0,0.0,0.0,0.0,0.0,0.0,0.0,0.0,0.0,0.0,0.0,0.0,0.0,0.0,0.0,0.0,0.0,0.0,0.0,0.0,0.0,0.0,0.0,0.0,0.0,0.0,0.0,0.0,0.0,0.0,0.0,0.0,0.0,0.0,0.0,0.0,0.0,0.0,0.0,0.0,0.0,0.0,0.0,0.0,0.0,0.0,0.0,0.0,0.0,0.0,0.0,0.0,0.0,0.0,0.0,0.0,0.0,0.0,0.0,0.0,0.3829,0.4074,0.3898,0.3283,0.2956,0.2538,0.0,0.0,0.0,0.0,0.0,0.0,0.0,0.0,0.0,0.0,0.0,0.0,0.0,0.0,0.0,0.0,0.0,0.0,0.0,0.0,0.0,0.0,0.0,0.0,0.0,0.0,0.0,0.0,0.0,0.0,0.0,0.0,0.0,0.0,0.0,0.0,0.0,0.0,0.0,0.0,0.0,0.0,0.0,0.0,0.0,0.0,0.0,0.0,0.0,0.0,0.0,0.0,0.0,0.0,0.0,0.0,0.0,0.0,0.0,0.0,0.0,0.0,0.0,0.0,0.0,0.0,0.0,0.0,0.0,0.0,0.0,0.0,0.0,0.0,0.0,0.0,0.0,0.0,0.0,0.0,0.0,0.0,0.0,0.0,0.0,0.0,0.0,0.0,0.0,0.0,0.0,0.0,0.0,0.0,0.0,0.0,0.0,0.0,0.0,0.0,0.0,0.0,0.0,0.0,0.0,0.0,0.0,0.0,0.0,0.409,0.4248,0.4161,0.3748,0.3384,0.302,0.2671,0.0,0.0,0.0,0.0,0.0,0.0,0.0,0.0,0.0,0.0,0.0,0.0,0.0,0.0,0.0,0.0,0.0,0.0,0.0,0.0,0.0,0.0,0.0,0.0,0.0,0.0,0.0,0.0,0.0,0.0,0.0,0.0,0.0,0.0,0.0,0.0,0.0,0.0,0.0,0.0,0.0,0.0,0.0,0.0,0.0,0.0,0.0,0.0,0.0,0.0,0.0,0.0,0.0,0.0,0.0,0.0,0.0,0.0,0.0,0.0,0.0,0.0,0.0,0.0,0.0,0.0,0.0,0.0,0.0,0.0,0.0,0.0,0.0,0.0,0.0,0.0,0.0,0.0,0.0,0.0,0.0,0.0,0.0,0.0,0.0,0.0,0.0,0.0,0.0,0.0,0.0,0.0,0.0,0.0,0.0,0.0,0.0,0.0,0.0,0.0,0.0,0.0,0.0,0.0,0.0,0.0,0.0,0.0,0.4399,0.4257,0.4239,0.4314,0.3861,0.3592,0.0,0.0,0.0,0.0,0.0,0.0,0.0,0.0,0.0,0.0,0.0,0.0,0.0,0.0,0.0,0.0,0.0,0.0,0.0,0.0,0.0,0.0,0.0,0.0,0.0,0.0,0.0,0.0,0.0,0.0,0.0,0.0,0.0,0.0,0.0,0.0,0.0,0.0,0.0,0.0,0.0,0.0,0.0,0.0,0.0,0.0,0.0,0.0,0.0,0.0,0.0,0.0,0.0,0.0,0.0,0.0,0.0,0.0,0.0,0.0,0.0,0.0,0.0,0.0,0.0,0.0,0.0,0.0,0.0,0.0,0.0,0.0,0.0,0.0,0.0,0.0,0.0,0.0,0.0,0.0,0.0,0.0,0.0,0.0,0.0,0.0,0.0,0.0,0.0,0.0,0.0,0.0,0.0,0.0,0.0,0.0,0.0,0.0,0.0,0.0,0.0,0.0,0.0,0.0,0.0,0.0,0.0,0.0,0.0,0.4688,0.5008,0.5026,0.4673,0.4705,0.4363,0.0,0.0,0.0,0.0,0.0,0.0,0.0,0.0,0.0,0.0,0.0,0.0,0.0,0.0,0.0,0.0,0.0,0.0,0.0,0.0,0.0,0.0,0.0,0.0,0.0,0.0,0.0,0.0,0.0,0.0,0.0,0.0,0.0,0.0,0.0,0.0,0.0,0.0,0.0,0.0,0.0,0.0,0.0,0.0,0.0,0.0,0.0,0.0,0.0,0.0,0.0,0.0,0.0,0.0,0.0,0.0,0.0,0.0,0.0,0.0,0.0,0.0,0.0,0.0,0.0,0.0,0.0,0.0,0.0,0.0,0.0,0.0,0.0,0.0,0.0,0.0,0.0,0.0,0.0,0.0,0.0,0.0,0.0,0.0,0.0,0.0,0.0,0.0,0.0,0.0,0.0,0.0,0.0,0.0,0.0,0.0,0.0,0.0,0.0,0.0,0.0,0.0,0.0,0.0,0.0,0.0,0.0,0.0,0.454,0.528,0.5433,0.54,0.5138,0.5448,0.517,0.0,0.0,0.0,0.0,0.0,0.0,0.0,0.0,0.0,0.0,0.0,0.0,0.0,0.0,0.0,0.0,0.0,0.0,0.0,0.0,0.0,0.0,0.0,0.0,0.0,0.0,0.0,0.0,0.0,0.0,0.0,0.0,0.0,0.0,0.0,0.0,0.0,0.0,0.0,0.0,0.0,0.0,0.0,0.0,0.0,0.0,0.0,0.0,0.0,0.0,0.0,0.0,0.0,0.0,0.0,0.0,0.0,0.0,0.0,0.0,0.0,0.0,0.0,0.0,0.0,0.0,0.0,0.0,0.0,0.0,0.0,0.0,0.0,0.0,0.0,0.0,0.0,0.0,0.0,0.0,0.0,0.0,0.0,0.0,0.0,0.0,0.0,0.0,0.0,0.0,0.0,0.0,0.0,0.0,0.0,0.0,0.0,0.0,0.0,0.0,0.0,0.0,0.0,0.0,0.0,0.0,0.0,0.0,0.4691,0.5894,0.5636,0.5527,0.5684,0.6018,0.5837,0.0,0.0,0.0,0.0,0.0,0.0,0.0,0.0,0.0,0.0,0.0,0.0,0.0,0.0,0.0,0.0,0.0,0.0,0.0,0.0,0.0,0.0,0.0,0.0,0.0,0.0,0.0,0.0,0.0,0.0,0.0,0.0,0.0,0.0,0.0,0.0,0.0,0.0,0.0,0.0,0.0,0.0,0.0,0.0,0.0,0.0,0.0,0.0,0.0,0.0,0.0,0.0,0.0,0.0,0.0,0.0,0.0,0.0,0.0,0.0,0.0,0.0,0.0,0.0,0.0,0.0,0.0,0.0,0.0,0.0,0.0,0.0,0.0,0.0,0.0,0.0,0.0,0.0,0.0,0.0,0.0,0.0,0.0,0.0,0.0,0.0,0.0,0.0,0.0,0.0,0.0,0.0,0.0,0.0,0.0,0.0,0.0,0.0,0.0,0.0,0.0,0.0,0.0,0.0,0.0,0.0,0.0,0.0,0.4913,0.5357,0.5779,0.6044,0.6087,0.6313,0.5902,0.0,0.0,0.0,0.0,0.0,0.0,0.0,0.0,0.0,0.0,0.0,0.0,0.0,0.0,0.0,0.0,0.0,0.0,0.0,0.0,0.0,0.0,0.0,0.0,0.0,0.0,0.0,0.0,0.0,0.0,0.0,0.0,0.0,0.0,0.0,0.0,0.0,0.0,0.0,0.0,0.0,0.0,0.0,0.0,0.0,0.0,0.0,0.0,0.0308,0.0,0.0,0.0,0.0,0.0,0.0,0.0,0.0,0.0,0.0,0.0,0.0,0.0,0.0,0.0,0.0,0.0,0.0,0.0,0.0,0.0,0.0,0.0,0.0,0.0,0.0,0.0,0.0,0.0,0.0,0.0,0.0,0.0,0.0,0.0,0.0,0.0,0.0,0.0,0.0,0.0,0.0,0.0,0.0,0.0,0.0,0.0,0.0,0.0,0.0,0.0,0.0,0.0,0.0,0.0,0.0,0.0,0.0,0.0,0.5338,0.5887,0.6159,0.6258,0.6172,0.6388,0.6129,0.0,0.0,0.0,0.0,0.0,0.0,0.0,0.0,0.0,0.0,0.0,0.0,0.0,0.0,0.0,0.0,0.0,0.0,0.0,0.0,0.0,0.0,0.0,0.0,0.0,0.0,0.0,0.0,0.0,0.0,0.0,0.0,0.0,0.0,0.0,0.0,0.0,0.0,0.0,0.0,0.0,0.0,0.0,0.0,0.0,0.0,0.0,0.0,0.0,0.0,0.0,0.0,0.0,0.0,0.0,0.0,0.0,0.0,0.0,0.0,0.0,0.0,0.0,0.0,0.0,0.0,0.0,0.0,0.0,0.0,0.0,0.0,0.0,0.0,0.0,0.0,0.0,0.0,0.0,0.0,0.0,0.0,0.0,0.0,0.0,0.0,0.0,0.0,0.0,0.0,0.0,0.0,0.0,0.0,0.0,0.0,0.0,0.0,0.0,0.0,0.0,0.0,0.0,0.0,0.0,0.0,0.0,0.544,0.5801,0.6554,0.6453,0.6322,0.6172,0.642,0.6445,0.6204,0.0,0.0,0.0,0.0,0.0,0.0,0.0,0.0,0.0,0.0,0.0,0.0,0.0,0.0,0.0,0.0,0.0,0.0,0.0,0.0,0.0,0.0,0.0,0.0,0.0,0.0,0.0,0.0,0.0,0.0,0.0,0.0,0.0,0.0,0.0,0.0,0.0,0.0,0.2618,0.2714,0.0,0.0,0.0,0.0,0.0,0.0,0.0,0.0,0.0494,0.0,0.0,0.0,0.0,0.0,0.0,0.0,0.0,0.0,0.0,0.0,0.0,0.0,0.0,0.0,0.0,0.0,0.0,0.0,0.0,0.0,0.0,0.0,0.0,0.0,0.0,0.0,0.0,0.0,0.0,0.0,0.0,0.0,0.0,0.0,0.0,0.0,0.0,0.0,0.0,0.0,0.0,0.0,0.0,0.0,0.0,0.0,0.0,0.0,0.0,0.0,0.0,0.0,0.0,0.0,0.0,0.5569,0.589,0.6051,0.6027,0.6297,0.6383,0.6362,0.666,0.6756,0.6581,0.0,0.0,0.0,0.0,0.0,0.0,0.0,0.0,0.0,0.0,0.0,0.0,0.0,0.0,0.0,0.0,0.0,0.0,0.0,0.0,0.0,0.0,0.0,0.0,0.0,0.0,0.0,0.0,0.0,0.0,0.0,0.0,0.0,0.0,0.0,0.0,0.0,0.0,0.0,0.2785,0.2817,0.0,0.0,0.0,0.0,0.0,0.0,0.0,0.0,0.0589,0.0,0.0,0.0,0.0,0.0,0.0,0.0,0.0,0.0,0.0,0.0,0.0,0.0,0.0,0.0,0.0,0.0,0.0,0.0,0.0,0.0,0.0,0.0,0.0,0.0,0.0,0.0,0.0,0.0,0.0,0.0,0.0,0.0,0.0,0.0,0.0,0.0,0.0,0.0,0.0,0.0,0.0,0.0,0.0,0.0,0.0,0.0,0.0,0.0,0.0,0.0,0.0,0.0,0.0,0.0,0.5483,0.5837,0.6005,0.6072,0.6288,0.6387,0.6353,0.6393,0.6365,0.0,0.0,0.0,0.0,0.0,0.0,0.0,0.0,0.0,0.0,0.0,0.0,0.0,0.0,0.0,0.0,0.0,0.0,0.0,0.0,0.0,0.0,0.0,0.0,0.0,0.0,0.0,0.0,0.0,0.0,0.0,0.0,0.0,0.0,0.0,0.0,0.0,0.0,0.0,0.0,0.2693,0.2682,0.2797,0.0,0.0,0.0,0.0,0.0,0.0,0.1224,0.1186,0.0,0.0,0.0,0.0,0.0,0.0,0.0,0.0,0.0,0.0,0.0,0.0,0.0,0.0,0.0,0.0,0.0,0.0,0.0,0.0,0.0,0.0,0.0,0.0,0.0,0.0,0.0,0.0,0.0,0.0,0.0,0.0,0.0,0.0,0.0,0.0,0.0,0.0,0.0,0.0,0.0,0.0,0.0,0.0,0.0,0.0,0.0,0.0,0.0,0.0,0.0,0.0,0.0,0.0,0.0,0.534,0.5718,0.5961,0.6119,0.6304,0.6361,0.6279,0.6203,0.6052,0.0,0.0,0.0,0.0,0.0,0.0,0.0,0.0,0.0,0.0,0.0,0.0,0.0,0.0,0.0,0.0,0.0,0.0,0.0,0.0,0.0,0.0,0.0,0.0,0.0,0.0,0.0,0.0,0.0,0.0,0.0,0.0,0.0,0.0,0.0,0.0,0.0,0.0,0.0,0.0,0.0,0.2531,0.2634,0.2761,0.0,0.0,0.0,0.0,0.157,0.1624,0.0,0.0,0.0,0.0,0.0,0.0,0.0,0.0,0.0,0.0,0.0,0.0,0.0,0.0,0.0,0.0,0.0,0.0,0.0,0.0,0.0,0.0,0.0,0.0,0.0,0.0,0.0,0.0,0.0,0.0,0.0,0.0,0.0,0.0,0.0,0.0,0.0,0.0,0.0,0.0,0.0,0.0,0.0,0.0,0.0,0.0,0.0,0.0,0.0,0.0,0.0,0.0,0.0,0.0,0.0,0.0,0.5266,0.59,0.6123,0.5868,0.6205,0.6362,0.6294,0.6571,0.6422,0.0,0.0,0.0,0.0,0.0,0.0,0.0,0.0,0.0,0.0,0.0,0.0,0.0,0.0,0.0,0.0,0.0,0.0,0.0,0.0,0.0,0.0,0.0,0.0,0.0,0.0,0.0,0.0,0.0,0.0,0.0,0.0,0.0,0.0,0.0,0.0,0.0,0.0,0.0,0.0,0.0,0.2509,0.2819,0.2874,0.28,0.0,0.0,0.2262,0.1821,0.1622,0.0,0.0,0.0,0.0,0.0,0.0,0.0,0.0,0.0,0.0,0.0,0.0,0.0,0.0,0.0,0.0,0.0,0.0,0.0,0.0,0.0,0.0,0.0,0.0,0.0,0.0,0.0,0.0,0.0,0.0,0.0,0.0,0.0,0.0,0.0,0.0,0.0,0.0,0.0,0.0,0.0,0.0,0.0,0.0,0.0,0.0,0.0,0.0,0.0,0.0,0.0,0.0,0.0,0.0,0.0,0.5276,0.5537,0.6027,0.6187,0.5999,0.6211,0.6341,0.6282,0.651,0.6384,0.0,0.0,0.0,0.0,0.0,0.0,0.0,0.0,0.0,0.0,0.0,0.0,0.0,0.0,0.0,0.0,0.0,0.0,0.0,0.0,0.0,0.0,0.0,0.0,0.0,0.0,0.0,0.0,0.0,0.0,0.0,0.0,0.0,0.0,0.0,0.0,0.0,0.0,0.0,0.0,0.0,0.0,0.2614,0.2857,0.0,0.0,0.0,0.2922,0.2462,0.0,0.0,0.0,0.0,0.0,0.0,0.0,0.0,0.0,0.0,0.0,0.0,0.0,0.0,0.0,0.0,0.0,0.0,0.0,0.0,0.0,0.0,0.0,0.0,0.0,0.0,0.0,0.0,0.0,0.0,0.0,0.0,0.0,0.0,0.0,0.0,0.0,0.0,0.0,0.0,0.0,0.0,0.0,0.0,0.0,0.0,0.0,0.0,0.0,0.0,0.0,0.0,0.0,0.0,0.0,0.0,0.0,0.574,0.6216,0.6356,0.6179,0.6356,0.6402,0.6337,0.658,0.0,0.0,0.0,0.0,0.0,0.0,0.0,0.0,0.0,0.0,0.0,0.0,0.0,0.0,0.0,0.0,0.0,0.0,0.0,0.0,0.0,0.0,0.0,0.0,0.0,0.0,0.0,0.2951,0.0,0.0,0.0,0.0,0.0,0.0,0.0,0.0,0.0,0.0,0.0,0.0,0.0,0.0,0.2263,0.2505,0.2883,0.3109,0.0,0.0,0.3525,0.2995,0.3196,0.3286,0.0,0.0,0.0,0.0,0.0,0.0,0.0,0.0,0.0,0.0,0.0,0.0,0.0,0.0,0.0,0.0,0.0,0.0,0.0,0.0,0.0,0.0,0.0,0.0,0.0,0.0,0.0,0.0,0.0,0.0,0.0,0.0,0.0,0.0,0.0,0.0,0.0,0.0,0.0,0.0,0.0,0.0,0.0,0.0,0.0,0.0,0.0,0.0,0.0,0.0,0.0,0.0,0.0,0.0,0.5523,0.5638,0.6436,0.6698,0.6389,0.6693,0.6722,0.6405,0.7076,0.7275,0.0,0.0,0.0,0.0,0.0,0.0,0.0,0.0,0.0,0.0,0.0,0.0,0.0,0.0,0.0,0.0,0.0,0.0,0.0,0.0,0.0,0.0,0.0,0.0,0.0,0.0,0.0,0.0,0.0,0.0,0.0,0.0,0.0,0.0,0.0,0.0,0.0,0.0,0.0,0.0,0.0,0.2423,0.2573,0.3035,0.3333,0.0,0.3626,0.3812,0.3337,0.3236,0.3297,0.3486,0.0,0.0,0.0,0.0,0.0,0.0,0.0,0.0,0.0,0.0,0.0,0.0,0.0,0.0,0.0,0.0,0.0,0.0,0.0,0.0,0.0,0.0,0.0,0.0,0.0,0.0,0.0,0.0,0.0,0.0,0.0,0.0,0.0,0.0,0.0,0.0,0.0,0.0,0.0,0.0,0.0,0.0,0.0,0.0,0.0,0.0,0.0,0.0,0.0,0.0,0.0,0.0,0.0,0.585,0.579,0.6686,0.698,0.6603,0.6793,0.6903,0.6945,0.7518,0.7566,0.0,0.0,0.0,0.0,0.0,0.0,0.0,0.0,0.0,0.0,0.0,0.0,0.0,0.0,0.0,0.0,0.0,0.0,0.0,0.0,0.0,0.0,0.0,0.0,0.0,0.0,0.0,0.0,0.3106,0.3209,0.3588,0.0,0.0,0.0,0.0,0.0,0.0,0.0,0.0,0.0,0.0,0.3418,0.2974,0.3574,0.0,0.0,0.406,0.4367,0.3821,0.3793,0.3779,0.3686,0.3498,0.0,0.0,0.0,0.0,0.0,0.0,0.0,0.0,0.0,0.0,0.0,0.0,0.0,0.0,0.0,0.0,0.0,0.0,0.0,0.0,0.0,0.0,0.0,0.0,0.0,0.0,0.0,0.0,0.0,0.0,0.0,0.0,0.0,0.0,0.0,0.0,0.0,0.0,0.0,0.0,0.0,0.0,0.0,0.0,0.0,0.0,0.0,0.0,0.0,0.0,0.0,0.0,0.6231,0.6112,0.7076,0.7348,0.6901,0.7009,0.7171,0.7369,0.7899,0.7983,0.0,0.0,0.0,0.0,0.0,0.0,0.0,0.0,0.0,0.0,0.0,0.0,0.0,0.0,0.0,0.0,0.0,0.0,0.0,0.0,0.0,0.0,0.0,0.0,0.0,0.0,0.0,0.0,0.3532,0.3671,0.4016,0.0,0.0,0.0,0.0,0.0,0.0,0.0,0.0,0.0,0.0,0.3969,0.3555,0.4116,0.4491,0.4137,0.4741,0.5074,0.471,0.4524,0.4346,0.4206,0.0,0.0,0.0,0.0,0.0,0.0,0.0,0.0,0.0,0.0,0.0,0.0,0.0,0.0,0.0,0.0,0.0,0.0,0.0,0.0,0.0,0.0,0.0,0.0,0.0,0.0,0.0,0.8475,0.0,0.0,0.7602,0.0,0.0,0.0,0.0,0.0,0.0,0.0,0.0,0.0,0.0,0.0,0.0,0.0,0.0,0.0,0.0,0.0,0.0,0.0,0.0,0.0,0.0,0.6659,0.6598,0.7626,0.7875,0.7317,0.7413,0.7494,0.7521,0.8223,0.8611,0.8651,0.0,0.0,0.0,0.0,0.0,0.0,0.0,0.0,0.0,0.0,0.0,0.0,0.0,0.0,0.0,0.0,0.0,0.0,0.0,0.0,0.0,0.0,0.0,0.0,0.0,0.0,0.4292,0.4093,0.3896,0.0,0.0,0.0,0.0,0.0,0.0,0.0,0.0,0.0,0.0,0.3899,0.3891,0.4311,0.4694,0.5042,0.5351,0.5737,0.6012,0.6101,0.5368,0.4898,0.0,0.0,0.0,0.0,0.0,0.0,0.0,0.0,0.0,0.0,0.0,0.0,0.0,0.0,0.0,0.0,0.0,0.0,0.0,0.0,0.0,0.0,0.0,0.0,0.0,0.0,0.0,0.8876,0.9179,0.0,0.0,0.0,0.0,0.0,0.0,0.0,0.0,0.0,0.0,0.0,0.9243,0.9632,0.0,0.0,0.0,0.0,0.0,0.0,0.0,0.0,0.0,0.0,0.0,0.0,0.7222,0.7098,0.7902,0.8076,0.7595,0.7708,0.7869,0.8082,0.8533,0.8692,0.8555,0.0,0.0,0.0,0.0,0.0,0.0,0.0,0.0,0.0,0.0,0.0,0.0,0.0,0.0,0.0,0.0,0.0,0.0,0.0,0.0,0.0,0.0,0.0,0.0,0.0,0.4518,0.0,0.0,0.0,0.0,0.0,0.0,0.0,0.0,0.0,0.0,0.0,0.4916,0.4601,0.5338,0.5748,0.5324,0.5735,0.595,0.0,0.0,0.0,0.0,0.0,0.0,0.0,0.0,0.0,0.0,0.0,0.0,0.0,0.0,0.5139,0.5168,0.4919,0.4606,0.4312,0.0,0.0,0.0,0.0,0.0,0.0,0.0,0.0,0.0,0.0,0.0,0.0,0.0,0.0,0.9535,0.0,0.9284,0.0,0.0,0.0,0.0,0.0,0.0,0.0,0.0,0.8172,0.8709,0.9449,1.0031,1.078,0.0,1.178,1.1132,0.0,0.0,0.0,0.0,0.0,0.0,0.0,0.0,0.7684,0.7529,0.8152,0.8262,0.7889,0.7836,0.8002,0.8401,0.8798,0.8908,0.8685,0.8487,0.8081,0.0,0.0,0.0,0.0,0.0,0.0,0.0,0.0,0.0,0.0,0.0,0.0,0.0,0.0,0.0,0.0,0.0,0.0,0.0,0.0,0.0,0.0,0.0,0.5025,0.0,0.0,0.0,0.0,0.0,0.0,0.0,0.0,0.0,0.474,0.5114,0.5328,0.5071,0.5913,0.6416,0.6,0.0,0.0,0.0,0.0,0.0,0.0,0.0,0.5992,0.6187,0.5772,0.5503,0.5836,0.5777,0.5723,0.582,0.0,0.0,0.5767,0.5567,0.5349,0.5121,0.4822,0.4607,0.4578,0.4751,0.4899,0.0,0.0,0.0,0.0,0.0,0.0,0.0,0.0,1.0752,1.0646,0.0,1.0012,0.0,0.0,0.0,0.0,0.0,0.8115,0.0,0.0,0.7549,0.8022,0.9487,1.0082,1.0574,1.111,1.2465,1.2823,1.223,1.0714,0.0,0.0,0.0,0.0,0.0,0.0,0.8091,0.797,0.8388,0.8474,0.8195,0.7916,0.7969,0.8448,0.908,0.9296,0.9035,0.8932,0.8618,0.7954,0.7787,0.0,0.0,0.0,0.0,0.0,0.0,0.0,0.0,0.0,0.0,0.0,0.0,0.0,0.0,0.0,0.0,0.0,0.0,0.0,0.0,0.5632,0.0,0.0,0.0,0.0,0.0,0.0,0.0,0.0,0.0,0.0,0.5604,0.5451,0.5376,0.5503,0.0,0.0,0.0,0.0,0.6661,0.7262,0.7377,0.7475,0.7769,0.699,0.6475,0.691,0.0,0.0,0.6236,0.5894,0.5608,0.5712,0.5878,0.5855,0.5775,0.5875,0.587,0.5536,0.5519,0.5483,0.5237,0.519,0.511,1.34,0.0,0.0,0.0,0.0,1.1769,1.1826,1.2044,1.0723,1.0385,1.0695,0.9765,0.0,0.0,0.0,0.0,0.0,0.0,0.8469,0.8298,0.8645,0.9099,0.9656,1.0522,1.1415,1.2276,1.2935,1.332,1.3415,1.2878,1.1831,1.0419,0.0,0.0,0.0,0.0,0.9286,0.8907,0.881,0.8613,0.8348,0.8342,0.86,0.9099,0.9472,0.9566,0.9279,0.927,0.9017,0.8498,0.8127,0.0,0.0,0.0,0.0,0.0,0.0,0.0,0.0,0.0,0.0,0.0,0.0,0.0,0.0,0.0,0.0,0.0,0.0,0.0,0.6164,0.5676,0.5605,0.0,0.0,0.0,0.0,0.0,0.0,0.0,0.0,0.0,0.6129,0.593,0.5854,0.0,0.0,0.6877,0.7148,0.6995,0.6899,0.708,0.7131,0.0,0.7195,0.7047,0.6978,0.7072,0.6723,0.6396,0.6309,0.6324,0.637,0.6411,0.6322,0.6263,0.6211,0.6171,0.6115,0.6002,0.6002,0.5997,0.592,0.5894,0.5864,1.469,1.3888,1.3661,1.3288,1.287,1.2265,1.2241,1.2553,1.0894,1.0486,1.0997,0.9875,0.9688,1.0228,1.0131,0.0,0.0,0.0,0.9154,0.8689,0.9514,1.0144,1.0645,1.1458,1.2277,1.3056,1.3368,1.3617,1.3859,1.3784,1.3296,1.2424,0.0,0.0,1.0466,1.0351,1.0111,0.97,0.9351,0.8998,0.8738,0.8791,0.9073,0.9536,0.9836,0.9908,0.9768,0.9771,0.951,0.8875,0.8485,0.8052,0.0,0.0,0.0,0.0,0.0,0.0,0.0,0.0,0.0,0.0,0.0,0.6312,0.6384,0.0,0.0,0.0,0.6383,0.6424,0.6415,0.6257,0.0,0.0,0.0,0.0,0.0,0.0,0.0,0.6872,0.6706,0.655,0.6376,0.6267,0.6169,0.5964,0.6401,0.6795,0.6969,0.0,0.6641,0.6847,0.689,0.6918,0.7008,0.7042,0.7012,0.694,0.6741,0.6555,0.6376,0.6433,0.649,0.649,0.6413,0.6305,0.6245,0.6168,0.6119,0.6119,0.6119,0.6091,0.6069,0.6046,0.6041,1.6086,1.5501,1.4573,1.4013,1.3722,1.3164,1.2908,1.2736,1.121,1.0891,1.1344,1.0052,0.963,0.9885,0.9947,0.0,0.9284,1.0014,0.9955,0.9365,1.02,1.1111,1.2043,1.2573,1.3047,1.348,1.37,1.3799,1.3893,1.387,1.3958,1.4091,1.296,1.1965,1.12,1.1013,1.0729,1.0389,0.9992,0.9594,0.9253,0.9244,0.9458,0.9873,1.0113,1.0283,1.036,1.0393,1.0018,0.9206,0.8855,0.8307,0.7559,0.0,0.0,0.0,0.0,0.0,0.0,0.0,0.0,0.0,0.0,0.0,0.0,0.0,0.0,0.0,0.6441,0.0,0.6579,0.7094,0.0,0.0,0.0,0.7279,0.6361,0.6836,0.6887,0.6035,0.0,0.0,0.642,0.6512,0.6304,0.5535,0.5789,0.6097,0.6263,0.6137,0.6121,0.6637,0.6685,0.68,0.7053,0.6929,0.6784,0.6679,0.6517,0.6399,0.6372,0.6277,0.62,0.6228,0.62,0.6146,0.6028,0.6,0.5973,0.5978,0.5978,0.595,0.585,0.5818,0.5818,1.6456,1.5477,1.4913,1.4606,1.4374,1.3441,1.3199,1.3245,1.1504,1.0823,1.0829,0.9253,0.865,0.8858,0.8864,0.9179,0.9667,0.9675,0.9982,1.0445,1.1013,1.1671,1.2381,1.2781,1.3155,1.3489,1.3541,1.3872,1.4469,1.4368,1.437,1.4373,1.3988,1.3403,1.2614,1.2123,1.1588,1.1072,1.0547,1.0115,0.9751,0.9686,0.9932,1.0454,1.0565,1.0744,1.104,1.0639,1.02,0.979,0.8855,0.8123,0.7744,0.7495,0.0,0.0,0.0,0.0,0.0,0.0,0.0,0.0,0.0,0.7695,0.6702,0.0,0.729,0.0,0.6061,0.6292,0.6309,0.6742,0.0,0.0,0.7714,0.7881,0.7662,0.7471,0.7279,0.7126,0.6698,0.64,0.6319,0.6344,0.6252,0.5918,0.6192,0.6539,0.6761,0.6488,0.6386,0.6659,0.6571,0.657,0.677,0.677,0.6662,0.6512,0.644,0.6386,0.6282,0.6232,0.62,0.62,0.62,0.6146,0.6028,0.6,0.5918,0.5755,0.5759,0.5845,0.5791,0.5709,0.565,1.7459,1.6901,1.6382,1.6037,1.5617,1.3712,1.3145,1.34,1.1613,1.0765,1.0619,0.8646,0.8009,0.8355,0.8361,0.8909,0.9894,1.0186,1.0717,1.1469,1.1934,1.2612,1.3394,1.342,1.37,1.4151,1.3881,1.3971,1.4389,1.4538,1.4556,1.4505,1.4486,1.4232,1.3762,1.2878,1.2183,1.1683,1.1027,1.0531,1.0186,1.015,1.0422,1.1016,1.0788,1.0896,1.1379,1.0912,1.0513,1.0179,0.9418,0.8675,0.7973,0.7876,0.7721,0.0,0.0,0.0,0.0,0.0,0.0,0.0,0.0,0.0,0.0,0.0,0.6991,0.6278,0.6435,0.6705,0.6933,0.7368,0.7666,0.7798,0.8006,0.8072,0.7866,0.7597,0.7396,0.7256,0.6897,0.6639,0.6592,0.6508,0.6448,0.634,0.6383,0.6477,0.6585,0.6405,0.6297,0.6487,0.6411,0.6337,0.6468,0.6495,0.644,0.6332,0.6305,0.6282,0.6232,0.62,0.62,0.62,0.62,0.615,0.5955,0.5896,0.5814,0.5567,0.5517,0.5576,0.5576,0.5517,0.5458,1.8609,1.8582,1.7991,1.7487,1.6749,1.4037,1.3176,1.3528,1.1722,1.0781,1.0347,0.8364,0.78,0.8325,0.8358,0.9032,1.0226,1.1062,1.1835,1.2562,1.2987,1.3687,1.4582,1.4237,1.4369,1.4911,1.4339,1.407,1.4181,1.4538,1.4649,1.4543,1.4622,1.46,1.4391,1.3323,1.2617,1.2228,1.1467,1.0972,1.067,1.0655,1.0923,1.1496,1.0994,1.0957,1.1524,1.1228,1.0884,1.0516,1.0179,0.9445,0.8277,0.8169,0.8164,0.0,0.8516,0.0,0.0,0.0,0.0,0.0,0.0,0.0,0.0,0.6424,0.6437,0.7025,0.7125,0.7354,0.7809,0.8291,0.8468,0.8234,0.8262,0.8101,0.7566,0.7521,0.7359,0.6955,0.6982,0.7004,0.6923,0.6788,0.6707,0.6701,0.6502,0.6369,0.634,0.6222,0.6199,0.6236,0.6273,0.6337,0.6309,0.6309,0.6309,0.6282,0.6309,0.6255,0.6255,0.6255,0.6232,0.62,0.62,0.6123,0.5877,0.5818,0.5681,0.5411,0.5352,0.5329,0.5329,0.5297,0.5215,1.9098,1.8175,1.78,1.7075,1.61,1.4952,1.4409,1.4193,1.2439,1.0804,0.9346,0.905,0.8978,0.9111,0.9278,1.0033,1.1229,1.1847,1.2719,1.3852,1.3969,1.4466,1.5087,1.4634,1.4538,1.4715,1.4339,1.4449,1.4962,1.4961,1.4878,1.4733,1.4601,1.4166,1.3515,0.0,0.0,0.0,1.2261,1.1986,1.1566,1.1345,1.1426,1.1807,1.1352,0.0,1.177,1.1524,1.1233,1.1039,1.034,0.0,0.0,0.0,0.0,0.0,0.0,0.0,0.0,0.0,0.0,0.0,0.7344,0.668,0.6575,0.6249,0.6299,0.688,0.7267,0.7514,0.7584,0.8385,0.8717,0.8278,0.8584,0.8501,0.7649,0.7521,0.7386,0.7112,0.6864,0.681,0.7031,0.681,0.6729,0.6977,0.6874,0.6825,0.6918,0.6707,0.6571,0.6593,0.6571,0.6598,0.6598,0.6598,0.6571,0.6598,0.6598,0.6544,0.6413,0.6359,0.6332,0.6228,0.62,0.6146,0.5978,0.5873,0.5768,0.5595,0.5434,0.5301,0.5301,0.5215,0.5101,1.9621,1.8811,1.8427,1.7605,0.0,1.6041,1.5397,1.4571,1.3058,1.1331,0.9586,0.93,0.9316,0.9631,1.0072,1.0936,1.2105,1.2967,1.3809,1.4584,1.4921,1.53,1.5723,1.5445,1.5444,1.5659,1.5065,1.5023,1.5455,1.5223,1.5032,1.4907,1.4859,1.4544,1.3959,1.3939,1.354,1.2767,1.2877,1.2635,1.2077,1.1917,1.1965,1.2227,1.1776,0.0,0.0,0.0,0.0,0.0,0.0,0.0,0.0,0.9572,0.0,0.9552,0.9469,0.9345,0.9109,0.9143,0.8896,0.8326,0.7768,0.7095,0.6329,0.6289,0.6602,0.7138,0.7541,0.7853,0.8135,0.862,0.884,0.8723,0.8816,0.8653,0.815,0.7922,0.7735,0.7515,0.7354,0.73,0.7461,0.7214,0.7133,0.7246,0.7166,0.7166,0.7252,0.7004,0.682,0.6793,0.6793,0.6766,0.6707,0.6707,0.6707,0.6707,0.6707,0.668,0.6571,0.6463,0.6381,0.6309,0.6232,0.6146,0.6028,0.5955,0.5841,0.565,0.554,0.5407,0.5329,0.5242,0.5156,2.0264,1.9858,1.9466,1.862,1.7465,1.7321,1.6435,1.4986,0.0,0.0,0.0,0.9702,0.976,1.0319,1.1013,1.1875,1.2877,1.4062,1.4855,1.5261,1.5714,1.609,1.637,1.6325,1.6392,1.6624,1.5923,1.5683,1.5882,1.5545,1.5293,1.5156,1.5254,1.5089,1.4706,1.4586,1.4147,1.3394,1.348,1.3223,1.2547,1.246,1.25,1.2692,1.2234,1.2175,1.2506,1.2239,1.1984,1.1816,1.1618,1.1315,1.0882,1.0783,1.0691,1.0529,1.0426,1.0164,0.9661,0.9631,0.9187,0.8118,0.8216,0.7754,0.6443,0.6731,0.7178,0.7602,0.7852,0.8243,0.8856,0.8928,0.904,0.9283,0.9119,0.8902,0.8732,0.8474,0.8242,0.8082,0.7975,0.7955,0.7928,0.7788,0.7681,0.7649,0.7616,0.7563,0.7622,0.7381,0.7112,0.7041,0.7036,0.6955,0.6815,0.6788,0.6761,0.6788,0.6788,0.6761,0.6707,0.6598,0.6495,0.6463,0.6364,0.6228,0.6114,0.6032,0.595,0.5704,0.565,0.5599,0.5439,0.538,0.5325,2.1212,2.0955,2.0703,2.0091,1.9231,1.9095,1.7838,1.5697,1.3682,1.2211,1.1236,1.1132,1.1298,1.1739,1.2367,1.2977,1.369,1.4659,1.5477,1.6121,1.6325,1.66,1.6952,1.6735,1.6602,1.6529,1.6417,1.6311,1.6215,1.6187,1.598,1.5663,1.5614,1.5323,1.4745,1.4686,1.4551,1.4302,1.4239,1.3902,1.3343,1.2987,1.2854,1.2922,1.26,1.2351,1.2267,1.2783,1.2926,1.256,1.2407,1.2059,1.1519,1.1343,1.1093,1.071,1.0719,1.054,1.0126,0.9907,0.9452,0.8771,0.8697,0.8425,0.7798,0.7998,0.8145,0.8119,0.8235,0.86,0.923,0.938,0.951,0.9692,0.9658,0.9503,0.9152,0.889,0.8705,0.8646,0.8368,0.8168,0.8189,0.8209,0.8262,0.8289,0.8309,0.8415,0.8362,0.8064,0.7691,0.7461,0.7413,0.73,0.7112,0.7058,0.7025,0.7031,0.7025,0.6977,0.6874,0.682,0.6744,0.668,0.6495,0.6386,0.6332,0.6136,0.6028,0.5946,0.5873,0.5768,0.5709,0.5681,0.5576,2.2107,2.159,2.1461,2.0715,1.9552,1.9146,1.8202,1.6864,1.5498,1.3841,1.2237,1.2432,1.2586,1.2709,1.3462,1.4222,1.4939,1.5727,1.6412,1.6959,1.7228,1.7403,1.7561,1.7444,1.7389,1.7313,1.7275,1.7336,1.7398,1.6972,1.6705,1.6657,1.654,1.6216,1.5762,1.5732,1.5532,1.5111,1.4639,1.4212,1.3767,1.358,1.342,1.3261,1.3286,1.3059,1.26,1.3252,1.3265,1.2518,1.2604,1.2522,1.2282,1.2058,1.1878,1.1774,1.1514,1.1132,1.0724,1.0187,0.9829,0.9621,0.938,0.9137,0.8905,0.8837,0.8764,0.8546,0.8717,0.8949,0.9256,0.9361,0.9517,0.988,0.9795,0.964,0.9543,0.9276,0.9093,0.8988,0.8732,0.858,0.8712,0.8685,0.8679,0.8811,0.8949,0.9066,0.9126,0.8961,0.8613,0.8096,0.7783,0.7568,0.7354,0.7166,0.7112,0.7106,0.7106,0.7085,0.7009,0.6982,0.6879,0.6825,0.6657,0.6571,0.6571,0.6463,0.6327,0.6141,0.6064,0.5987,0.585,0.5791,0.5681,2.3078,2.2411,2.2271,2.1391,2.007,1.9378,1.8782,1.8142,1.7388,1.5747,1.3713,1.3711,1.3652,1.3564,1.4472,1.5262,1.5885,1.6746,1.7269,1.7505,1.7837,1.8008,1.8008,1.811,1.8118,1.8034,1.8049,1.815,1.8135,1.7558,1.7288,1.7397,1.7164,1.69,1.6654,1.6654,1.6327,1.5697,1.5012,1.4497,1.4139,1.4049,1.386,1.367,1.3851,1.3681,1.3108,1.3665,1.3625,1.2774,1.2965,1.3125,1.3088,1.2956,1.2893,1.2851,1.249,1.1994,1.1421,1.0719,1.0374,1.053,1.0081,0.9777,0.9769,0.9621,0.9316,0.8942,0.9047,0.9178,0.9211,0.9342,0.955,0.9947,0.9914,0.9873,0.9925,0.9699,0.9498,0.9368,0.9126,0.9014,0.9152,0.9093,0.9119,0.9394,0.9577,0.9673,0.9769,0.9751,0.9413,0.889,0.8309,0.7877,0.7649,0.7381,0.7246,0.7192,0.7139,0.7112,0.7085,0.7036,0.7014,0.6987,0.6928,0.6869,0.6842,0.6783,0.668,0.6468,0.6391,0.6309,0.6119,0.5955,0.5845,2.4221,2.3925,2.3332,2.2524,2.1584,2.0928,2.0188,1.9418,1.8757,1.7461,1.5777,1.4878,1.4421,1.4372,1.5417,1.5882,1.5973,1.7337,1.7802,1.7558,1.7847,1.8008,1.8076,1.8516,1.8484,1.8149,1.8531,1.8468,1.7999,1.7753,1.7507,1.7214,1.6956,1.6864,1.6804,1.6804,1.6491,1.5876,1.5517,1.504,1.4485,1.416,1.3971,1.3971,1.398,1.3833,1.3502,1.4115,1.4255,1.3903,1.3936,1.4073,1.4064,1.4212,1.4078,1.3589,1.3496,1.3194,1.24,1.1645,1.1243,1.1325,1.0655,1.0272,1.036,1.036,0.9973,0.9297,0.9133,0.9258,0.9237,0.9624,0.99,1.0037,1.0221,1.0437,1.036,1.0154,0.9921,0.9921,0.9577,0.9368,0.9439,0.9484,0.9706,1.0112,1.0275,1.0322,1.0308,1.0167,0.997,0.9721,0.9197,0.8514,0.801,0.7643,0.7434,0.7413,0.7246,0.7139,0.7112,0.7198,0.7257,0.723,0.723,0.7203,0.7198,0.7139,0.7004,0.6852,0.6771,0.6766,0.6625,0.6386,0.6119,2.5311,2.4785,2.4504,2.3913,2.3058,2.191,2.1442,2.1326,2.0178,1.9162,1.8346,1.7427,1.6162,1.4756,1.5755,1.6369,1.6691,1.7473,1.7967,1.8086,1.8245,1.8414,1.8674,1.8831,1.8961,1.8992,1.949,1.9604,1.9282,1.9007,1.8409,1.7645,1.784,1.7956,1.7785,1.7785,1.7489,1.6871,1.6428,1.5921,1.5332,1.4715,1.4449,1.4547,1.4478,1.427,1.4001,1.4288,1.4258,1.3791,1.3941,1.413,1.4189,1.4279,1.4375,1.4377,1.3944,1.3332,1.2507,1.217,1.1836,1.1412,1.1151,1.0876,1.0486,1.0446,1.0208,0.9766,0.9876,0.9987,0.9834,0.9994,1.0188,1.0318,1.0285,1.0298,1.047,1.0401,1.0308,1.029,0.9991,0.9844,0.9999,1.0095,1.0291,1.0638,1.078,1.0743,1.0568,1.0533,1.0415,1.007,0.9706,0.9152,0.8388,0.7783,0.7515,0.73,0.7192,0.7139,0.7236,0.7257,0.7311,0.7424,0.7478,0.7473,0.7413,0.7386,0.7306,0.7214,0.7068,0.6982,0.6847,0.6717,0.6527,2.6184,2.5385,2.5029,2.4402,2.3638,2.2734,2.2519,2.2703,2.1568,2.0761,2.024,1.9449,1.796,1.6328,1.6821,1.732,1.7571,1.8014,1.8282,1.8512,1.8482,1.8707,1.9065,1.9264,1.9432,1.9652,2.0113,2.0312,2.0165,1.9637,1.889,1.8204,1.8407,1.8504,1.8334,1.8363,1.8113,1.7582,1.7133,1.6691,1.6189,1.5555,1.5157,1.5059,1.4872,1.4627,1.4359,1.4476,1.4318,1.3821,1.41,1.4309,1.4398,1.4488,1.4695,1.4951,1.4396,1.371,1.3074,1.2865,1.2513,1.1991,1.1865,1.1574,1.1165,1.1005,1.0918,1.0827,1.105,1.1087,1.0391,1.0541,1.0731,1.0743,1.0501,1.0511,1.0764,1.0711,1.0695,1.0724,1.0506,1.0345,1.0561,1.0611,1.0698,1.0931,1.1058,1.1066,1.087,1.0971,1.091,1.037,1.0291,0.9845,0.8838,0.8256,0.775,0.7424,0.7387,0.7449,0.7493,0.752,0.7656,0.7938,0.7817,0.788,0.8094,0.8027,0.7907,0.772,0.7502,0.7322,0.7198,0.7095,0.6955,2.6674,2.5744,2.4482,2.3585,2.281,2.334,2.3443,2.3298,2.2927,2.219,2.1161,2.0324,1.9564,1.8927,1.9125,1.8915,1.8473,1.9082,1.9073,1.86,1.8539,1.8741,1.9108,1.9638,1.9792,1.9761,2.0231,2.0228,1.9778,1.9002,1.8663,1.8811,1.8187,1.7906,1.8109,1.8148,1.7965,1.7712,1.7412,1.7129,1.6944,1.6655,1.6095,1.5381,1.5059,1.4931,1.4715,1.4677,1.4606,1.4446,1.4734,1.4941,1.497,1.5186,1.5274,1.5176,1.4844,1.463,1.4401,1.3827,1.3375,1.3267,1.2779,1.2465,1.2399,1.2344,1.2308,1.2514,1.2614,1.2239,1.1076,1.1439,1.164,1.1246,1.1327,1.1392,1.1436,1.1168,1.1146,1.1336,1.1157,1.1064,1.104,1.0979,1.1029,1.1141,1.1324,1.1459,1.1432,1.1472,1.1348,1.111,1.0934,1.0609,0.9472,0.8971,0.8531,0.8219,0.8155,0.8087,0.8071,0.8139,0.8329,0.8487,0.8473,0.8603,0.8911,0.8991,0.888,0.8595,0.81,0.7844,0.7775,0.7468,0.7306,2.6669,2.5721,2.4659,2.4006,2.372,2.3555,2.3687,2.3982,2.3161,2.2818,2.2607,2.1742,2.1295,2.1215,2.1305,2.0363,1.8878,1.9364,1.9493,1.925,1.9429,1.9726,2.0053,2.0259,2.0472,2.0653,2.082,2.063,2.0117,1.9554,1.9143,1.8822,1.8253,1.8014,1.8084,1.8084,1.8084,1.8123,1.8018,1.7897,1.7683,1.7512,1.7162,1.6595,1.5931,1.5507,1.5342,1.5049,1.4882,1.4832,1.495,1.5039,1.5147,1.5303,1.5332,1.5215,1.5088,1.4818,1.4389,1.4291,1.3991,1.3459,1.3392,1.3218,1.2948,1.3022,1.3068,1.3002,1.34,1.3201,1.268,1.2584,1.2508,1.2245,1.2036,1.1921,1.1816,1.1726,1.1765,1.2014,1.1911,1.19,1.2053,1.1855,1.1639,1.1906,1.2073,1.2012,1.191,1.1983,1.1996,1.1739,1.1623,1.1472,1.0922,1.0097,0.9569,0.9281,0.9146,0.9144,0.9134,0.9055,0.9198,0.9328,0.9283,0.9319,0.9593,0.962,0.9563,0.9402,0.891,0.8544,0.8443,0.8066,0.7761,2.6515,2.5737,2.4788,2.4371,2.4325,2.3868,2.4093,2.4622,2.3911,2.3706,2.3731,2.2979,2.2617,2.2628,2.2478,2.1597,2.0108,2.0177,2.0139,2.0038,2.0096,2.0302,2.0539,2.0614,2.0807,2.1158,2.1201,2.1006,2.0641,2.022,1.9713,1.9149,1.866,1.8354,1.8228,1.8193,1.8275,1.8437,1.8476,1.8398,1.8267,1.817,1.8018,1.7678,1.6933,1.6304,1.5865,1.5323,1.5029,1.5009,1.5039,1.5117,1.5264,1.5371,1.5362,1.5284,1.5215,1.5012,1.4572,1.4625,1.4453,1.3932,1.4015,1.3975,1.368,1.3858,1.383,1.3839,1.4043,1.4228,1.3901,1.3649,1.3415,1.3096,1.2787,1.2557,1.2426,1.2314,1.2389,1.2595,1.2642,1.2811,1.2995,1.2564,1.2421,1.2647,1.2668,1.2546,1.2406,1.248,1.2546,1.2253,1.2266,1.2151,1.1898,1.1385,1.0566,1.0214,1.0139,1.0174,1.0129,1.0034,1.0005,1.0144,1.0182,1.0161,1.0175,1.021,1.018,1.0144,0.9701,0.9246,0.8961,0.8608,0.8256,2.6289,2.5817,2.4867,2.4581,2.4657,2.4524,2.4778,2.5171,2.5194,2.4897,2.454,2.3888,2.346,2.3261,2.2852,2.2375,2.2107,2.1601,2.1149,2.0818,2.0424,2.041,2.0635,2.0667,2.086,2.119,2.1201,2.1221,2.1192,2.08,2.0324,1.9772,1.9292,1.8832,1.8429,1.8429,1.8464,1.8572,1.8587,1.8598,1.8587,1.8587,1.8506,1.8356,1.7991,1.7279,1.6247,1.5604,1.5264,1.5147,1.5215,1.5293,1.542,1.5439,1.542,1.5391,1.5293,1.5205,1.5137,1.4883,1.4834,1.4779,1.4767,1.4729,1.4828,1.4876,1.4876,1.4896,1.4905,1.4874,1.4669,1.4532,1.4266,1.3644,1.3451,1.3382,1.3245,1.3029,1.2884,1.3099,1.333,1.3511,1.3462,1.3232,1.3076,1.3057,1.3084,1.305,1.2937,1.2978,1.2844,1.27,1.2734,1.2738,1.275,1.2639,1.1795,1.1114,1.1138,1.1137,1.104,1.0943,1.095,1.1033,1.0931,1.0916,1.0981,1.101,1.0957,1.081,1.0355,0.9893,0.9518,0.9149,0.8624,2.6707,2.6303,2.6001,2.5649,2.5398,2.5431,2.5524,2.5441,2.5429,2.5325,2.5028,2.4491,2.4261,2.4236,2.3861,2.3624,2.3553,2.2996,2.2227,2.142,2.1284,2.1177,2.1044,2.1115,2.123,2.1305,2.1336,2.1463,2.1557,2.1115,2.0811,2.0701,1.9811,1.9256,1.9073,1.8744,1.8625,1.8718,1.8732,1.8786,1.8854,1.8893,1.8854,1.8747,1.8333,1.782,1.7462,1.6708,1.6304,1.6208,1.6056,1.5894,1.5787,1.5758,1.5633,1.541,1.5352,1.5284,1.5215,1.5127,1.5029,1.5,1.4941,1.4941,1.5068,1.5127,1.5117,1.5098,1.5098,1.502,1.4775,1.4715,1.4508,1.4109,1.4049,1.398,1.3842,1.3975,1.4069,1.4042,1.4198,1.4383,1.4412,1.413,1.3788,1.37,1.3661,1.358,1.3398,1.3338,1.3321,1.3224,1.3295,1.3274,1.3176,1.3074,1.2633,1.2115,1.206,1.195,1.1867,1.1851,1.1836,1.176,1.1662,1.1624,1.1699,1.1707,1.1593,1.1456,1.1046,1.0594,1.0122,0.9701,0.9265,2.7036,2.6737,2.6582,2.6329,2.6035,2.622,2.6087,2.5799,2.5959,2.5841,2.5467,2.4933,2.473,2.4718,2.4381,2.42,2.4154,2.4023,2.3433,2.2467,2.1964,2.1743,2.1454,2.1406,2.1474,2.1506,2.1506,2.1694,2.1982,2.1653,2.153,2.1383,2.0559,1.9941,1.9642,1.9114,1.8866,1.8866,1.8878,1.8972,1.9078,1.9066,1.904,1.9066,1.8682,1.8402,1.8267,1.7738,1.7307,1.6961,1.6634,1.6371,1.6085,1.596,1.5787,1.5613,1.5468,1.5362,1.5293,1.5352,1.5381,1.5342,1.5371,1.5371,1.5371,1.543,1.5371,1.5225,1.5225,1.5167,1.4922,1.4893,1.4793,1.4586,1.4417,1.4378,1.4369,1.4647,1.4844,1.4855,1.5011,1.5128,1.504,1.4823,1.4458,1.4369,1.416,1.395,1.37,1.358,1.3541,1.3502,1.3442,1.3442,1.348,1.342,1.3368,1.3127,1.2959,1.2755,1.2564,1.2594,1.2602,1.2411,1.2271,1.2103,1.2158,1.2112,1.2012,1.1836,1.1638,1.1241,1.0784,1.0451,1.0015,2.7219,2.7162,2.6794,2.665,2.6597,2.6878,2.674,2.6322,2.6747,2.6572,2.5894,2.5336,2.5004,2.4814,2.455,2.4358,2.4358,2.4743,2.4707,2.3916,2.2961,2.219,2.1966,2.1753,2.1726,2.1843,2.1843,2.1999,2.2359,2.2359,2.2274,2.2033,2.1559,2.0934,2.0217,1.958,1.9192,1.8999,1.8999,1.9105,1.9303,1.9119,1.9105,1.9303,1.9066,1.8827,1.864,1.8494,1.8104,1.7379,1.7073,1.687,1.64,1.6114,1.6036,1.5931,1.5613,1.5536,1.5517,1.5662,1.5778,1.5884,1.5902,1.6056,1.5855,1.5729,1.5623,1.5391,1.5391,1.5303,1.5176,1.5147,1.5098,1.498,1.4764,1.4704,1.4893,1.5089,1.5284,1.5439,1.5671,1.5787,1.5468,1.5225,1.5088,1.4872,1.4517,1.4309,1.407,1.3911,1.364,1.3601,1.3692,1.3571,1.361,1.358,1.3528,1.3398,1.3316,1.3202,1.3019,1.3028,1.3028,1.2867,1.2744,1.2613,1.2521,1.2459,1.2336,1.2166,1.1966,1.1737,1.1413,1.0967,1.061,2.74,2.7429,2.7664,2.7577,2.7353,2.7798,2.7687,2.7107,2.7249,2.6943,2.6261,2.5847,2.5548,2.5371,2.5147,2.5028,2.5064,2.5324,2.5381,2.5102,2.4168,2.3212,2.2705,2.2407,2.2353,2.2543,2.2512,2.2757,2.3072,2.2957,2.299,2.312,2.2367,2.1636,2.0878,2.0283,1.9629,1.91,1.9013,1.9013,1.9093,1.9052,1.904,1.9066,1.9052,1.8987,1.8881,1.8869,1.8587,1.7963,1.8061,1.776,1.7039,1.6853,1.6616,1.6228,1.6114,1.6056,1.6056,1.6095,1.6153,1.6181,1.6142,1.5921,1.5902,1.5671,1.5536,1.542,1.541,1.5332,1.5235,1.5215,1.5156,1.5068,1.5079,1.5167,1.5235,1.5555,1.5845,1.5826,1.5941,1.5989,1.5884,1.572,1.5527,1.5332,1.5098,1.4863,1.4597,1.424,1.3971,1.4031,1.4061,1.3821,1.3731,1.3731,1.367,1.3511,1.3428,1.3407,1.3233,1.3141,1.308,1.2958,1.2958,1.2836,1.2805,1.2775,1.2621,1.2467,1.2305,1.2089,1.1662,1.1227,1.0968,2.7655,2.7696,2.8047,2.8059,2.7886,2.8566,2.8351,2.7595,2.7656,2.7284,2.6569,2.6105,2.5933,2.5908,2.5652,2.5546,2.5581,2.5908,2.6047,2.593,2.5214,2.4148,2.3163,2.2763,2.2823,2.2969,2.3,2.318,2.3403,2.3348,2.3497,2.3589,2.3052,2.2306,2.1596,2.0809,2.0111,1.9443,1.9158,1.904,1.9158,1.9158,1.9251,1.9303,1.9344,1.9344,1.9344,1.9225,1.8827,1.8329,1.8383,1.8236,1.7496,1.7284,1.6994,1.6552,1.641,1.6285,1.6314,1.641,1.6495,1.6524,1.6467,1.6428,1.6285,1.596,1.5768,1.5642,1.5497,1.5391,1.5313,1.5284,1.5254,1.5254,1.5536,1.571,1.5584,1.6028,1.6257,1.6285,1.6314,1.6314,1.621,1.6038,1.5836,1.5623,1.5371,1.5235,1.5069,1.4686,1.4449,1.4558,1.4449,1.421,1.4121,1.4121,1.3971,1.3821,1.3692,1.3619,1.3437,1.3285,1.3233,1.3172,1.3141,1.3111,1.308,1.2989,1.2867,1.2713,1.2582,1.2412,1.2033,1.1721,1.1435,2.7921,2.7973,2.8219,2.8287,2.8407,2.9133,2.8908,2.8039,2.8175,2.7853,2.711,2.641,2.6395,2.649,2.6213,2.6035,2.6047,2.6508,2.6637,2.6455,2.5955,2.4985,2.3664,2.3419,2.3462,2.3591,2.3392,2.3547,2.3769,2.3748,2.3776,2.3862,2.3491,2.2961,2.2214,2.1307,2.0494,1.984,1.9269,1.9131,1.9316,1.9368,1.9473,1.9682,1.9695,1.9721,1.9682,1.9526,1.9093,1.8275,1.8491,1.8344,1.7826,1.7496,1.7217,1.6976,1.6722,1.6581,1.6513,1.6761,1.6902,1.6959,1.7155,1.7155,1.6768,1.6428,1.6171,1.5941,1.5642,1.5497,1.5381,1.5381,1.541,1.5497,1.5941,1.6171,1.6257,1.6457,1.6722,1.6818,1.6846,1.6666,1.6428,1.6171,1.6017,1.6114,1.5902,1.5816,1.5613,1.5294,1.5177,1.5264,1.5001,1.4627,1.4597,1.4597,1.4359,1.4151,1.4031,1.3911,1.367,1.3519,1.3467,1.3407,1.3437,1.3376,1.3255,1.3164,1.3103,1.2989,1.2867,1.2744,1.2612,1.2333,1.2064,2.8151,2.8179,2.8831,2.8949,2.8882,2.9729,2.991,2.9441,2.925,2.8929,2.8575,2.7815,2.7421,2.7335,2.7005,2.676,2.6798,2.7019,2.7015,2.67,2.6622,2.6061,2.5154,2.4748,2.4766,2.4926,2.4736,2.4628,2.461,2.4213,2.3995,2.4044,2.3913,2.3521,2.2674,2.1835,2.0944,2.0219,1.9461,1.9257,1.9443,1.9522,1.9628,1.9837,1.985,1.9824,1.9811,1.9759,1.9526,1.9198,1.896,1.8762,1.8398,1.8251,1.7991,1.759,1.7423,1.7368,1.7368,1.7267,1.7351,1.7551,1.729,1.7011,1.6955,1.6712,1.6457,1.6228,1.596,1.5681,1.5498,1.543,1.5556,1.5798,1.6105,1.641,1.6637,1.692,1.7099,1.7127,1.7032,1.6927,1.6853,1.6655,1.657,1.657,1.6513,1.6457,1.6171,1.5845,1.5816,1.5845,1.5468,1.5118,1.5059,1.5001,1.4715,1.4478,1.433,1.427,1.4022,1.3782,1.3731,1.3731,1.3739,1.3649,1.3528,1.3459,1.3398,1.3255,1.315,1.305,1.295,1.2797,1.2666,2.8339,2.8419,2.9106,2.9263,2.9275,3.0088,3.0265,2.9845,2.9714,2.9442,2.9098,2.8589,2.8418,2.8392,2.8143,2.798,2.7631,2.7426,2.7293,2.7033,2.6844,2.6648,2.655,2.6059,2.585,2.5793,2.5506,2.5262,2.4966,2.4687,2.44,2.4125,2.4125,2.3781,2.3199,2.2448,2.187,2.1291,2.0538,2.0128,2.0025,2.0147,2.0154,2.0233,2.022,2.022,2.0233,2.0067,1.9926,1.9746,1.9512,1.9107,1.8694,1.8587,1.8356,1.8014,1.7904,1.7877,1.7822,1.7794,1.7728,1.787,1.7556,1.7401,1.7217,1.6965,1.674,1.6495,1.6181,1.5808,1.5733,1.5654,1.5819,1.6115,1.637,1.6602,1.6818,1.711,1.7306,1.7278,1.7211,1.7145,1.7088,1.7004,1.6864,1.6751,1.6534,1.6477,1.6524,1.6257,1.6304,1.6247,1.5902,1.5642,1.5584,1.541,1.5089,1.4834,1.4627,1.4597,1.4547,1.427,1.3992,1.4031,1.4061,1.392,1.3799,1.3761,1.3692,1.364,1.3558,1.3437,1.3316,1.3186,1.3094,2.8657,2.8736,2.9457,2.9716,2.9832,3.0583,3.0626,3.0062,3.0082,3.0121,2.9487,2.933,2.9263,2.9254,2.8992,2.873,2.8216,2.7764,2.7425,2.7359,2.7066,2.7092,2.7137,2.6909,2.6556,2.6112,2.5994,2.5707,2.5437,2.5123,2.4831,2.4374,2.4269,2.4073,2.3657,2.3077,2.2525,2.2144,2.1556,2.1169,2.0911,2.0985,2.0888,2.0703,2.0768,2.0703,2.0666,2.0617,2.0476,2.0246,2.0067,1.9562,1.9025,1.8827,1.8662,1.8382,1.8481,1.8488,1.8341,1.8244,1.8183,1.8025,1.7963,1.7854,1.7606,1.7385,1.7162,1.6867,1.655,1.6323,1.6337,1.6227,1.6375,1.6675,1.6869,1.6853,1.6988,1.7203,1.7295,1.7306,1.7278,1.7267,1.7267,1.7211,1.7071,1.6892,1.6705,1.6602,1.6648,1.6666,1.6673,1.6645,1.6332,1.6142,1.6056,1.5912,1.5565,1.5352,1.5059,1.5069,1.5079,1.4863,1.4647,1.438,1.433,1.4219,1.413,1.404,1.4031,1.4031,1.3971,1.3851,1.3731,1.361,1.3511,2.9484,2.9588,3.0683,3.1132,3.122,3.164,3.1733,3.1679,3.1562,3.1671,3.1393,3.0567,2.9977,2.9624,2.8664,2.8099,2.7945,2.7715,2.757,2.757,2.7386,2.7491,2.7398,2.7346,2.7216,2.7111,2.6837,2.6521,2.6222,2.5916,2.5319,2.494,2.4756,2.4484,2.3901,2.3289,2.2901,2.2748,2.2163,2.1794,2.173,2.143,2.1134,2.0931,2.1117,2.1118,2.1053,2.1511,2.1484,2.0399,2.0668,2.037,1.9941,1.9885,1.9703,1.9341,1.9535,1.9507,1.9081,1.8836,1.8684,1.8499,1.8383,1.8216,1.8052,1.7938,1.7784,1.7481,1.7338,1.7256,1.7502,1.7121,1.726,1.7524,1.7336,1.7134,1.7557,1.7575,1.7407,1.7379,1.7362,1.7434,1.7573,1.7656,1.759,1.7534,1.7423,1.7256,1.72,1.7106,1.6983,1.6909,1.6797,1.6637,1.6524,1.6363,1.6124,1.596,1.5758,1.5671,1.5652,1.5536,1.5323,1.5177,1.4854,1.4597,1.4517,1.4398,1.4309,1.4279,1.427,1.43,1.424,1.4142,1.3932,2.9704,2.9819,3.102,3.1479,3.1553,3.1909,3.2092,3.2092,3.2092,3.2092,3.1834,3.1197,3.0707,3.0338,2.9672,2.8973,2.8512,2.8146,2.7994,2.7868,2.7802,2.7669,2.7536,2.7503,2.7503,2.7511,2.7472,2.7201,2.6795,2.6217,2.5744,2.5122,2.476,2.4374,2.4122,2.3732,2.3476,2.3331,2.3038,2.2729,2.2546,2.1928,2.1366,2.1153,2.1364,2.1419,2.1458,2.1904,2.2073,2.1576,2.1613,2.1429,2.1201,2.1136,2.0993,2.0185,2.0362,2.0457,1.9923,1.9592,1.929,1.9116,1.8826,1.8639,1.8603,1.8608,1.8435,1.8227,1.7943,1.792,1.8051,1.7841,1.8004,1.8275,1.7852,1.7691,1.7882,1.7727,1.7612,1.759,1.7761,1.7954,1.8139,1.8193,1.8166,1.8139,1.8073,1.7947,1.7783,1.7551,1.7318,1.719,1.7078,1.692,1.6779,1.6666,1.6591,1.6457,1.6361,1.6304,1.6247,1.6104,1.6132,1.6104,1.57,1.5157,1.4922,1.4843,1.4695,1.4577,1.4745,1.4854,1.4804,1.4686,1.4499,3.0075,3.0228,3.1405,3.1846,3.1932,3.22,3.2359,3.2359,3.2417,3.2431,3.2277,3.1766,3.1361,3.0936,3.0269,2.9592,2.9211,2.8736,2.8471,2.8229,2.8131,2.7921,2.7736,2.7623,2.7689,2.7676,2.8084,2.7916,2.7247,2.6919,2.6321,2.5787,2.5007,2.4468,2.4403,2.4521,2.439,2.4164,2.4272,2.3984,2.3188,2.2378,2.1719,2.1344,2.1599,2.1719,2.168,2.2194,2.2325,2.2154,2.2113,2.2124,2.214,2.2485,2.2092,2.1076,2.1237,2.1223,2.0888,2.0527,2.0157,1.9689,1.9379,1.9187,1.8877,1.88,1.8834,1.8922,1.8664,1.8561,1.8776,1.8584,1.872,1.8836,1.8555,1.8097,1.8184,1.8151,1.8081,1.8119,1.8237,1.8394,1.8557,1.8587,1.8572,1.8533,1.8479,1.8371,1.8209,1.7909,1.7678,1.7496,1.734,1.7145,1.7004,1.6909,1.6892,1.6909,1.6842,1.6814,1.6758,1.6719,1.6729,1.6684,1.6257,1.57,1.5507,1.5254,1.5079,1.5069,1.5323,1.5352,1.5177,1.5128,1.5069,3.1392,3.1613,3.2632,3.3086,3.3051,3.3114,3.3136,3.3136,3.3255,3.3312,3.3058,3.2617,3.1886,3.0867,2.9531,2.8896,2.8852,2.8981,2.8926,2.8728,2.8571,2.8348,2.8099,2.8183,2.8052,2.8006,2.8481,2.8293,2.7883,2.7983,2.7727,2.6974,2.6472,2.6082,2.5219,2.5521,2.5218,2.4459,2.4731,2.4487,2.3471,2.2787,2.2511,2.2313,2.2087,2.198,2.2034,2.2498,2.2538,2.2075,2.1917,2.2009,2.2269,2.2386,2.2546,2.2546,2.2652,2.2593,2.1981,2.1502,2.1011,2.0381,2.0157,1.9793,1.9499,1.9036,1.9178,1.987,1.9439,1.9312,1.9597,1.9467,1.9606,1.9323,1.8892,1.864,1.867,1.8456,1.8397,1.8833,1.9062,1.8916,1.8912,1.8932,1.8946,1.8934,1.8919,1.8825,1.8587,1.8251,1.8056,1.7891,1.775,1.7553,1.763,1.7462,1.7364,1.7394,1.7295,1.7284,1.7262,1.7207,1.7095,1.6965,1.656,1.6275,1.6017,1.5758,1.5507,1.5536,1.5729,1.5642,1.541,1.5449,1.5575,3.1919,3.1905,3.2874,3.3361,3.3466,3.3361,3.3361,3.3431,3.3431,3.3431,3.3374,3.2905,3.2079,3.0965,2.975,2.9592,2.9911,3.0045,2.9903,2.9651,2.9495,2.9196,2.8738,2.8554,2.8411,2.8638,2.8849,2.8994,2.8671,2.833,2.8034,2.795,2.7414,2.68,2.6203,2.6573,2.5912,2.5137,2.4672,2.4323,2.3718,2.339,2.3205,2.2964,2.267,2.2736,2.303,2.2896,2.3111,2.283,2.2697,2.2406,2.2457,2.2454,2.2476,2.262,2.2741,2.2725,2.2581,2.2052,2.1421,2.102,2.081,2.0631,2.0563,2.0509,2.0405,2.112,2.0526,2.0282,2.0332,2.02,2.0169,1.9916,1.9285,1.9318,1.9216,1.8796,1.8777,1.9343,1.9833,1.9733,1.9641,1.9614,1.9638,1.9615,1.9638,1.966,1.9155,1.8548,1.84,1.8323,1.8192,1.8065,1.8233,1.8249,1.81,1.8035,1.7656,1.7679,1.7739,1.77,1.7573,1.7345,1.7022,1.6768,1.6531,1.6332,1.6114,1.6114,1.6142,1.6028,1.597,1.5951,1.599,3.2354,3.2209,3.3002,3.3466,3.3605,3.3466,3.3501,3.357,3.3515,3.3501,3.3401,3.3022,3.2283,3.155,3.0839,3.0708,3.1268,3.1378,3.1076,3.08,3.0481,2.9981,2.9378,2.899,2.9022,2.9194,2.9401,2.9481,2.9278,2.9007,2.8795,2.8747,2.8238,2.7674,2.7459,2.7542,2.7226,2.6156,2.5058,2.4496,2.4218,2.3982,2.3756,2.3541,2.3406,2.3525,2.404,2.3749,2.3683,2.3659,2.3271,2.2911,2.295,2.2681,2.2783,2.2888,2.298,2.2839,2.2703,2.2312,2.1698,2.1314,2.1119,2.1034,2.1931,2.2198,2.2116,2.1932,2.1526,2.1014,2.0784,2.0677,2.0613,2.0303,1.9803,1.9924,1.9934,1.9526,1.947,2.003,2.0475,2.0767,2.0649,2.0459,2.0385,2.0312,2.0349,2.0423,1.9934,1.9212,1.9041,1.9011,1.8797,1.8708,1.8787,1.8908,1.882,1.8685,1.834,1.8267,1.8447,1.8294,1.8081,1.7795,1.7495,1.7217,1.6983,1.6853,1.6722,1.6599,1.6542,1.6609,1.6581,1.6516,1.6374,3.2952,3.2952,3.3417,3.3605,3.3605,3.3779,3.3744,3.3675,3.3793,3.3744,3.3659,3.3109,3.2825,3.253,3.199,3.1686,3.1904,3.2105,3.1671,3.1182,3.0824,3.0326,2.9834,2.9605,2.956,2.9481,2.9744,2.9943,2.9991,2.9875,2.9648,2.949,2.9167,2.8831,2.8527,2.8399,2.831,2.7226,2.5972,2.5197,2.4922,2.4642,2.4213,2.4308,2.4,2.3854,2.4284,2.4104,2.401,2.4034,2.3583,2.3202,2.3205,2.2817,2.2855,2.2985,2.275,2.2641,2.2553,2.2373,2.1826,2.1268,2.1097,2.1369,2.2315,2.2429,2.2335,2.2305,2.2082,2.1765,2.1356,2.1031,2.1031,2.071,2.0361,2.0237,2.0304,2.0232,2.0268,2.074,2.1129,2.1426,2.1621,2.1437,2.1043,2.0943,2.0778,2.0824,2.0807,2.0286,2.0001,1.9814,1.9526,1.9413,1.9417,1.9436,1.9483,1.9404,1.9176,1.9205,1.9366,1.9102,1.8646,1.8323,1.8031,1.7729,1.7412,1.7228,1.706,1.6965,1.6909,1.692,1.6779,1.6591,1.6516,3.3206,3.3227,3.3681,3.3868,3.3779,3.3758,3.3779,3.3902,3.3882,3.4088,3.4182,3.348,3.3013,3.2858,3.2432,3.1997,3.183,3.224,3.189,3.1558,3.1159,3.0826,3.0405,3.0052,2.9991,3.0052,3.0172,3.0264,3.0401,3.0371,3.0371,3.0205,3.0038,2.9846,2.9539,2.883,2.844,2.8274,2.6993,2.6027,2.5799,2.5663,2.5254,2.4757,2.4518,2.4662,2.5102,2.462,2.4595,2.4544,2.417,2.378,2.3305,2.2812,2.263,2.2618,2.223,2.2086,2.222,2.2233,2.2229,2.2043,2.1858,2.2034,2.2788,2.3163,2.3218,2.311,2.2811,2.2445,2.2032,2.1788,2.162,2.1197,2.0934,2.073,2.0703,2.0719,2.0946,2.142,2.1795,2.2134,2.229,2.2396,2.1942,2.1549,2.1355,2.1234,2.1317,2.1255,2.0918,2.0624,2.0361,2.0293,2.0308,2.0251,2.0159,2.0056,1.9941,1.9941,1.9971,1.9666,1.9257,1.8925,1.8572,1.8239,1.7919,1.7573,1.7396,1.7301,1.7217,1.7145,1.6948,1.6733,1.662,3.3431,3.3521,3.3902,3.4005,3.3937,3.3882,3.3937,3.4074,3.4005,3.4142,3.4501,3.3791,3.3499,3.3331,3.3129,3.2677,3.2481,3.2571,3.2147,3.1753,3.1391,3.1134,3.0725,3.0431,3.0326,3.0522,3.0446,3.0416,3.0552,3.0612,3.0552,3.0552,3.0612,3.0372,2.9947,2.9021,2.8562,2.8775,2.8037,2.7001,2.6757,2.655,2.6133,2.5438,2.5173,2.5362,2.5731,2.5528,2.5368,2.5331,2.5009,2.4357,2.3631,2.2926,2.2505,2.2121,2.1724,2.154,2.1764,2.1915,2.2312,2.2035,2.2505,2.2779,2.3293,2.3775,2.3787,2.3725,2.3454,2.3155,2.2738,2.2598,2.2365,2.201,2.1502,2.131,2.135,2.1412,2.1718,2.2054,2.2427,2.2804,2.2885,2.2976,2.2616,2.2293,2.234,2.22,2.213,2.2007,2.1708,2.1422,2.1202,2.1198,2.1252,2.0958,2.0669,2.0661,2.0546,2.0408,2.0316,2.0086,1.9884,1.9629,1.9251,1.88,1.8453,1.8182,1.7907,1.7656,1.7507,1.7329,1.7127,1.6913,1.6761,3.3709,3.3896,3.3931,3.3971,3.4142,3.4312,3.4278,3.4128,3.4128,3.4162,3.4264,3.423,3.424,3.4191,3.4012,3.3583,3.3093,3.314,3.2658,3.1698,3.1351,3.1061,3.0785,3.0552,3.0507,3.0582,3.0552,3.0522,3.0612,3.0612,3.0612,3.0612,3.0642,3.0598,3.051,2.99,2.9737,2.9843,2.8915,2.8254,2.7767,2.7456,2.6919,2.6273,2.61,2.6263,2.6328,2.6369,2.6165,2.5893,2.5936,2.5426,2.4749,2.3911,2.3597,2.366,2.2688,2.236,2.2512,2.2101,2.2088,2.2154,2.2729,2.3177,2.3497,2.3848,2.4157,2.4086,2.3897,2.3708,2.3518,2.3357,2.307,2.2743,2.2268,2.1988,2.206,2.2022,2.2304,2.25,2.3005,2.3403,2.3509,2.3496,2.3182,2.3034,2.3191,2.3149,2.2915,2.2703,2.2369,2.208,2.1829,2.1654,2.1565,2.1356,2.1161,2.1164,2.1052,2.0845,2.0761,2.0684,2.0504,2.0274,1.9833,1.9327,1.904,1.8811,1.8328,1.786,1.7645,1.7468,1.7267,1.711,1.6987,3.3848,3.3744,3.4088,3.4244,3.4278,3.423,3.423,3.4298,3.4312,3.4414,3.4568,3.4501,3.4291,3.4226,3.4239,3.3877,3.3021,3.2817,3.2237,3.1584,3.1148,3.0829,3.0641,3.0612,3.0612,3.0612,3.0612,3.0612,3.0612,3.0612,3.0612,3.0612,3.0702,3.0657,3.0438,3.0031,2.987,3.0321,2.9798,2.9233,2.8856,2.8598,2.8111,2.7187,2.7043,2.7009,2.6979,2.7006,2.6707,2.646,2.6541,2.6131,2.55,2.4707,2.4505,2.4295,2.3467,2.3497,2.3661,2.3556,2.3406,2.3177,2.3115,2.3527,2.3553,2.4101,2.4326,2.4405,2.4247,2.4118,2.4018,2.3901,2.3679,2.3412,2.3037,2.2827,2.2774,2.2652,2.2725,2.2902,2.3271,2.3611,2.3789,2.3819,2.3566,2.3443,2.3526,2.3429,2.3225,2.3177,2.2965,2.2646,2.2359,2.2063,2.1851,2.16,2.1411,2.1293,2.123,2.1109,2.1092,2.1105,2.0919,2.0615,2.022,1.982,1.9269,1.8736,1.8398,1.8009,1.781,1.7634,1.7468,1.734,1.7245,3.3646,3.3542,3.3991,3.4196,3.4196,3.4196,3.4278,3.438,3.4414,3.4549,3.465,3.4467,3.4326,3.4222,3.418,3.3935,3.2875,3.2585,3.2164,3.1496,3.0903,3.0685,3.0612,3.0627,3.0612,3.0612,3.0612,3.0612,3.0702,3.0672,3.0732,3.0821,3.0866,3.0866,3.066,3.047,3.0382,3.0734,3.0411,3.0118,2.9784,2.9435,2.9103,2.8369,2.7952,2.7793,2.7648,2.7426,2.7099,2.7041,2.6811,2.6567,2.6006,2.5503,2.5172,2.4702,2.4399,2.4435,2.4586,2.4702,2.4464,2.4133,2.4032,2.399,2.4002,2.4376,2.4681,2.4763,2.4622,2.465,2.465,2.4507,2.4276,2.4002,2.3767,2.3547,2.3442,2.3322,2.331,2.3442,2.3509,2.3806,2.3966,2.3995,2.3943,2.3884,2.3835,2.3671,2.3522,2.3463,2.3373,2.3103,2.28,2.2512,2.2161,2.1819,2.1643,2.1486,2.1391,2.1328,2.1336,2.1346,2.1152,2.0977,2.0637,2.0112,1.916,1.857,1.8272,1.8107,1.8002,1.7826,1.765,1.7512,1.7412,3.3129,3.3304,3.3667,3.3839,3.3874,3.423,3.438,3.438,3.438,3.4414,3.4414,3.4414,3.4375,3.437,3.4414,3.4114,3.3478,3.2879,3.2387,3.1733,3.124,3.0933,3.0773,3.0788,3.0758,3.0686,3.0642,3.0732,3.0806,3.0836,3.0925,3.1014,3.1043,3.1073,3.1029,3.0999,3.0999,3.1043,3.0821,3.0453,3.0044,2.9824,2.9432,2.8911,2.8594,2.8465,2.8248,2.7927,2.7636,2.7389,2.707,2.6895,2.6512,2.5937,2.5615,2.5388,2.5184,2.5263,2.5533,2.5715,2.5619,2.5425,2.5339,2.5101,2.4838,2.4852,2.5076,2.5216,2.5146,2.5272,2.5341,2.5103,2.4863,2.4593,2.4292,2.416,2.4057,2.4015,2.4031,2.4044,2.3982,2.4054,2.3949,2.3979,2.4083,2.4054,2.3966,2.3907,2.373,2.3671,2.3552,2.339,2.312,2.2921,2.2574,2.2254,2.2056,2.1963,2.1643,2.1517,2.1537,2.1651,2.1608,2.1469,2.1101,2.0387,1.9174,1.8525,1.8235,1.81,1.8057,1.7963,1.7772,1.7645,1.7562,3.3304,3.2952,3.3563,3.3805,3.3874,3.423,3.438,3.438,3.438,3.438,3.438,3.438,3.4414,3.4414,3.4549,3.4451,3.3988,3.3404,3.3223,3.2623,3.1845,3.1581,3.1389,3.1287,3.1141,3.0863,3.0762,3.0866,3.0984,3.1028,3.1014,3.1087,3.119,3.1234,3.1278,3.1336,3.1307,3.1115,3.0849,3.0422,3.001,2.9616,2.94,2.9259,2.8955,2.8811,2.8608,2.8129,2.7708,2.7113,2.6924,2.691,2.7376,2.6816,2.6471,2.6922,2.6656,2.6474,2.6909,2.7038,2.6928,2.6861,2.6948,2.6428,2.5925,2.5564,2.5647,2.5619,2.5605,2.5633,2.5633,2.5495,2.53,2.5047,2.4806,2.4635,2.456,2.4582,2.4598,2.4466,2.4435,2.4112,2.4008,2.4024,2.4141,2.4112,2.4083,2.4024,2.3936,2.3819,2.373,2.3582,2.345,2.3253,2.309,2.2775,2.261,2.2445,2.2087,2.1862,2.1987,2.2068,2.2111,2.1921,2.1506,2.0354,1.892,1.8569,1.8616,1.8216,1.8084,1.8002,1.7909,1.781,1.7838,3.2895,3.2646,3.3318,3.377,3.4059,3.4312,3.438,3.438,3.438,3.438,3.438,3.438,3.4448,3.4515,3.4631,3.4687,3.4666,3.3833,3.338,3.2954,3.2483,3.1806,3.1615,3.1571,3.1263,3.1013,3.0955,3.1014,3.1161,3.1249,3.1278,3.1278,3.1351,3.1351,3.1409,3.1438,3.1453,3.1127,3.0729,3.0288,2.9848,2.9382,2.9359,2.9493,2.9188,2.9101,2.8956,2.8404,2.7795,2.7186,2.7026,2.7164,2.7786,2.7723,2.7766,2.8106,2.7866,2.7739,2.7959,2.8003,2.7989,2.8007,2.8196,2.7796,2.713,2.6637,2.6313,2.6073,2.5976,2.5879,2.5866,2.5825,2.5674,2.5467,2.5285,2.5075,2.507,2.512,2.5016,2.4869,2.463,2.4281,2.4171,2.4157,2.4157,2.4141,2.4141,2.4128,2.4054,2.392,2.3861,2.3772,2.37,2.3611,2.342,2.3241,2.3065,2.2841,2.2537,2.2396,2.2469,2.2494,2.2537,2.2265,2.1864,2.0661,1.9501,1.9287,1.9197,1.8694,1.8247,1.8263,1.8209,1.8127,1.8182,3.2241,3.2277,3.3002,3.3736,3.4346,3.438,3.438,3.438,3.438,3.438,3.438,3.4414,3.4515,3.4664,3.4765,3.485,3.4725,3.4201,3.3805,3.3197,3.2814,3.2253,3.1781,3.1309,3.1486,3.1279,3.1132,3.1176,3.1322,3.138,3.1453,3.1496,3.1467,3.1467,3.1467,3.1496,3.1467,3.1333,3.0727,3.0182,2.9903,2.9497,2.921,2.9665,2.9681,2.958,2.942,2.9013,2.8432,2.7806,2.7406,2.7392,2.8039,2.8857,2.9108,2.9039,2.884,2.8858,2.8918,2.9006,2.8907,2.8852,2.8853,2.8783,2.8311,2.7369,2.6842,2.6584,2.65,2.65,2.6502,2.6423,2.6273,2.6217,2.6102,2.5845,2.5668,2.5554,2.5291,2.5079,2.4651,2.4345,2.4203,2.4232,2.4319,2.4245,2.4203,2.4261,2.4157,2.4024,2.3949,2.3891,2.3891,2.3819,2.3671,2.3509,2.345,2.3228,2.2962,2.2871,2.2957,2.296,2.2967,2.2615,2.2209,2.1409,2.0517,2.015,1.9537,1.8797,1.8479,1.856,1.8506,1.8398,1.8587,3.2408,3.2277,3.2988,3.3736,3.4346,3.438,3.4414,3.438,3.438,3.4414,3.4414,3.4549,3.4664,3.4731,3.4949,3.5082,3.4967,3.4629,3.4562,3.4339,3.3862,3.2954,3.2747,3.2361,3.2079,3.1515,3.1292,3.1322,3.1409,3.1467,3.1496,3.1496,3.1496,3.1496,3.1553,3.1524,3.1496,3.1523,3.0873,3.0136,2.9594,2.9389,2.9245,2.9596,2.9702,2.979,2.9642,2.9345,2.8744,2.8142,2.7676,2.7865,2.8439,2.9602,3.0155,3.0155,2.9773,2.9765,2.9915,3.0005,2.9934,2.9983,2.9985,2.9813,2.929,2.8164,2.7461,2.7229,2.7083,2.7097,2.7144,2.704,2.6932,2.6947,2.6856,2.655,2.621,2.5905,2.5605,2.526,2.4834,2.4558,2.44,2.4363,2.445,2.445,2.445,2.4421,2.429,2.4157,2.4024,2.3966,2.4008,2.3966,2.3848,2.3789,2.3717,2.3688,2.3497,2.3437,2.3407,2.3386,2.3344,2.3007,2.2531,2.1875,2.1252,2.0586,1.9917,1.9075,1.8655,1.8682,1.8747,1.8694,1.8934,3.2372,3.2314,3.2988,3.3736,3.4312,3.438,3.4448,3.4515,3.4515,3.4582,3.4616,3.4683,3.4765,3.4898,3.5115,3.5279,3.5267,3.4969,3.478,3.4767,3.4603,3.3675,3.3347,3.2958,3.2244,3.1603,3.1453,3.1453,3.1496,3.1496,3.1496,3.1496,3.1496,3.1553,3.1655,3.1626,3.1597,3.1682,3.1077,3.0401,2.9624,2.9417,2.9487,2.9778,3.0054,3.0127,3.0165,2.9926,2.9498,2.9256,2.9045,2.9328,2.9927,3.0684,3.1136,3.108,3.0844,3.061,3.0893,3.0954,3.0911,3.0904,3.0936,3.0688,3.0338,2.9302,2.8549,2.8272,2.7538,2.7438,2.79,2.7936,2.7768,2.7698,2.7185,2.6685,2.6553,2.641,2.6434,2.658,2.5961,2.5188,2.4994,2.47,2.4715,2.4578,2.4565,2.4637,2.4507,2.4507,2.429,2.4128,2.4229,2.4141,2.3995,2.3995,2.3995,2.3966,2.3907,2.3878,2.3776,2.3806,2.3719,2.337,2.3044,2.2634,2.2005,2.1188,2.0263,1.9368,1.9035,1.8842,1.8881,1.896,1.9172,3.2277,3.2444,3.301,3.3734,3.4399,3.4448,3.4491,3.4581,3.4687,3.4743,3.4754,3.4758,3.4949,3.5115,3.5246,3.5359,3.5379,3.529,3.5085,3.4831,3.4577,3.3857,3.3185,3.2587,3.2079,3.1706,3.1497,3.1467,3.1496,3.1496,3.1496,3.1496,3.1553,3.1655,3.1769,3.1697,3.1597,3.1683,3.1387,3.108,3.043,2.9854,3.014,3.043,3.0679,3.0777,3.09,3.0749,3.0392,3.0434,3.0497,3.0715,3.0982,3.1457,3.1762,3.1812,3.1654,3.1539,3.1618,3.1617,3.1562,3.158,3.1581,3.1362,3.0954,3.0352,2.9591,2.9069,2.8346,2.81,2.855,2.8783,2.8584,2.8411,2.7737,2.7109,2.7061,2.6976,2.723,2.7542,2.6864,2.5961,2.5792,2.5437,2.5179,2.497,2.4862,2.4835,2.4878,2.4978,2.495,2.4679,2.4578,2.4447,2.4141,2.4096,2.4125,2.4083,2.4024,2.4083,2.4083,2.4024,2.3917,2.3764,2.3436,2.292,2.2382,2.1652,2.0691,1.9721,1.9543,1.9347,1.9146,1.9225,1.937,3.261,3.3234,3.3093,3.3672,3.4662,3.4683,3.4471,3.4268,3.4648,3.4702,3.4581,3.494,3.518,3.5213,3.5359,3.5472,3.5457,3.5489,3.5489,3.531,3.4681,3.3978,3.3245,3.2452,3.2064,3.1735,3.1496,3.1496,3.1496,3.1496,3.1496,3.1496,3.1524,3.1553,3.1553,3.1553,3.1611,3.1668,3.1655,3.139,3.1404,3.1114,3.1213,3.1457,3.1686,3.1655,3.1609,3.137,3.1144,3.124,3.1558,3.1658,3.1735,3.1907,3.2182,3.2247,3.2148,3.212,3.2092,3.2076,3.2035,3.191,3.1824,3.1638,3.117,3.057,3.0117,3.0046,2.9464,2.9015,2.9247,2.9406,2.9334,2.9266,2.8848,2.8251,2.7933,2.7704,2.768,2.7667,2.7305,2.7126,2.7336,2.6945,2.6525,2.6288,2.598,2.5924,2.5564,2.5577,2.5577,2.5314,2.5033,2.4476,2.4096,2.4096,2.4125,2.4125,2.4112,2.4112,2.4112,2.4112,2.4021,2.3877,2.3456,2.2916,2.2376,2.1981,2.1097,2.0246,2.0116,1.9917,1.9654,1.946,1.9604]}]]